[[{"header":{"parameterUnit":"m.s-1","parameterCategory":1,"la1":30.6,"la2":29.2853,"lo1":-89.7004,"lo2":-87.6739,"dy":0.0162,"dx":0.0183,"nx":112,"ny":82,"refTime":"2024-08-14T06:00:00:Z","depth":0,"parameterNumber":2,"parameterNumberName":"U-component_of_WINDS"},"data":[0.0,0.0,0.0,0.0,0.0,0.0,0.0,0.0,0.0,0.0,0.0,0.0,0.0,0.0,0.0,0.0,0.0,0.0,0.0,0.0,0.0,0.0,0.0,0.0,0.0,0.0,0.0,0.0,0.0,0.0,0.0,0.0,0.0,0.0,0.0,0.0,0.0,0.0,0.0,0.0,0.0,0.0,0.0,0.0,0.0,0.0,0.0,0.0,0.0,0.0,0.0,0.0,0.0,0.0,0.0,0.0,0.0,0.0,0.0,0.0,0.0,0.0,0.0,0.0,0.0,0.0,0.0,0.0,0.0,0.0,0.0,0.0,0.0,0.0,0.0,0.0,0.0,0.0,0.0,0.0,0.0,0.0,0.0,0.0,0.0,0.0,0.0,0.0,0.0,0.0,-1.5081,-1.512,-1.5866,-1.6322,-1.6322,-1.588,-1.5413,-1.4945,0.0,0.0,0.0,0.0,0.0,0.0,0.0,0.0,0.0,0.0,0.0,0.0,0.0,0.0,0.0,0.0,0.0,0.0,0.0,0.0,0.0,0.0,0.0,0.0,0.0,0.0,0.0,0.0,0.0,0.0,0.0,0.0,0.0,0.0,0.0,0.0,0.0,0.0,0.0,0.0,0.0,0.0,0.0,0.0,0.0,0.0,0.0,0.0,0.0,0.0,0.0,0.0,0.0,0.0,0.0,0.0,0.0,0.0,0.0,0.0,0.0,0.0,0.0,0.0,0.0,0.0,0.0,0.0,0.0,0.0,0.0,0.0,0.0,0.0,0.0,0.0,0.0,0.0,0.0,0.0,0.0,0.0,0.0,0.0,0.0,0.0,0.0,0.0,0.0,0.0,0.0,0.0,0.0,0.0,0.0,0.0,0.0,0.0,0.0,0.0,0.0,0.0,0.0,0.0,-1.517,-1.5365,-1.5505,-1.5584,-1.5584,-1.4844,-1.436,-1.4237,0.0,0.0,0.0,0.0,0.0,0.0,0.0,0.0,0.0,0.0,0.0,0.0,0.0,0.0,0.0,0.0,0.0,0.0,0.0,0.0,0.0,0.0,0.0,0.0,0.0,0.0,0.0,0.0,0.0,0.0,0.0,0.0,0.0,0.0,0.0,0.0,0.0,0.0,0.0,0.0,0.0,0.0,0.0,0.0,0.0,0.0,0.0,0.0,0.0,0.0,0.0,0.0,0.0,0.0,0.0,0.0,0.0,0.0,0.0,0.0,0.0,0.0,0.0,0.0,0.0,0.0,0.0,0.0,0.0,0.0,0.0,0.0,0.0,0.0,0.0,0.0,0.0,0.0,0.0,0.0,0.0,0.0,0.0,0.0,0.0,0.0,0.0,0.0,0.0,0.0,0.0,0.0,0.0,0.0,0.0,0.0,0.0,0.0,0.0,0.0,0.0,0.0,0.0,-1.4307,-1.479,-1.5322,-1.541,-1.541,-1.541,-1.4629,-1.4077,-1.4077,-1.376,0.0,0.0,0.0,0.0,0.0,0.0,0.0,0.0,0.0,0.0,0.0,0.0,0.0,0.0,0.0,0.0,0.0,0.0,0.0,0.0,0.0,0.0,0.0,0.0,0.0,0.0,0.0,0.0,0.0,0.0,0.0,0.0,0.0,0.0,0.0,0.0,0.0,0.0,0.0,0.0,0.0,0.0,0.0,0.0,0.0,0.0,0.0,0.0,0.0,0.0,0.0,0.0,0.0,0.0,0.0,0.0,0.0,0.0,0.0,0.0,0.0,0.0,0.0,0.0,0.0,0.0,0.0,0.0,0.0,0.0,0.0,0.0,0.0,0.0,0.0,0.0,0.0,0.0,0.0,0.0,0.0,0.0,0.0,0.0,0.0,0.0,0.0,0.0,0.0,0.0,0.0,0.0,0.0,0.0,0.0,0.0,0.0,0.0,0.0,0.0,0.0,0.0,-1.4434,-1.458,-1.5332,-1.541,-1.5371,-1.5273,-1.457,-1.4038,-1.3941,-1.3291,0.0,0.0,0.0,0.0,0.0,0.0,0.0,0.0,0.0,0.0,0.0,0.0,0.0,0.0,0.0,0.0,0.0,0.0,0.0,0.0,0.0,0.0,0.0,0.0,0.0,0.0,0.0,0.0,0.0,0.0,0.0,0.0,0.0,0.0,0.0,0.0,0.0,0.0,0.0,0.0,0.0,0.0,0.0,0.0,0.0,0.0,0.0,0.0,0.0,0.0,0.0,0.0,0.0,0.0,0.0,0.0,0.0,0.0,0.0,0.0,0.0,0.0,0.0,0.0,0.0,0.0,0.0,0.0,0.0,0.0,0.0,0.0,0.0,0.0,0.0,0.0,0.0,0.0,0.0,0.0,0.0,0.0,0.0,0.0,0.0,0.0,0.0,0.0,0.0,0.0,0.0,0.0,0.0,0.0,0.0,0.0,0.0,0.0,0.0,0.0,0.0,0.0,-1.4502,-1.4912,-1.5361,-1.541,-1.5254,-1.4863,-1.4404,-1.3912,-1.3574,-1.3135,0.0,0.0,0.0,0.0,0.0,0.0,0.0,0.0,0.0,0.0,0.0,0.0,0.0,0.0,0.0,0.0,0.0,0.0,0.0,0.0,0.0,0.0,0.0,0.0,0.0,0.0,0.0,0.0,0.0,0.0,0.0,0.0,0.0,0.0,0.0,0.0,0.0,0.0,0.0,0.0,0.0,0.0,0.0,0.0,0.0,0.0,0.0,0.0,0.0,0.0,0.0,0.0,0.0,0.0,0.0,0.0,0.0,0.0,0.0,0.0,0.0,0.0,0.0,0.0,0.0,0.0,0.0,0.0,0.0,0.0,0.0,0.0,0.0,0.0,0.0,0.0,0.0,0.0,0.0,0.0,0.0,0.0,0.0,0.0,0.0,0.0,0.0,0.0,0.0,0.0,0.0,0.0,0.0,0.0,0.0,0.0,0.0,0.0,0.0,0.0,0.0,0.0,-1.4512,-1.4941,-1.5371,-1.5176,-1.4951,-1.4795,-1.4141,-1.3682,-1.3516,0.0,0.0,0.0,0.0,0.0,0.0,0.0,0.0,0.0,0.0,0.0,0.0,0.0,0.0,0.0,0.0,0.0,0.0,0.0,0.0,0.0,0.0,0.0,0.0,0.0,0.0,0.0,0.0,0.0,0.0,0.0,0.0,0.0,0.0,0.0,0.0,0.0,0.0,0.0,0.0,0.0,0.0,0.0,0.0,0.0,0.0,0.0,0.0,0.0,0.0,0.0,0.0,0.0,0.0,0.0,0.0,0.0,0.0,0.0,0.0,0.0,0.0,0.0,0.0,0.0,0.0,0.0,0.0,0.0,0.0,0.0,0.0,0.0,0.0,0.0,0.0,0.0,0.0,0.0,0.0,0.0,0.0,0.0,0.0,0.0,0.0,0.0,0.0,0.0,0.0,0.0,0.0,0.0,0.0,0.0,0.0,0.0,0.0,0.0,0.0,0.0,0.0,-1.4048,-1.4629,-1.5098,-1.5381,-1.5039,-1.4727,-1.459,-1.3705,-1.3243,-1.3311,0.0,0.0,0.0,0.0,0.0,0.0,0.0,0.0,0.0,0.0,0.0,0.0,0.0,0.0,0.0,0.0,0.0,0.0,0.0,0.0,0.0,0.0,0.0,0.0,0.0,0.0,0.0,0.0,0.0,0.0,0.0,0.0,0.0,0.0,0.0,0.0,0.0,0.0,0.0,0.0,0.0,0.0,0.0,0.0,0.0,0.0,0.0,0.0,0.0,0.0,0.0,0.0,0.0,0.0,0.0,0.0,0.0,0.0,0.0,0.0,0.0,0.0,0.0,0.0,0.0,0.0,0.0,0.0,0.0,0.0,0.0,0.0,0.0,0.0,0.0,0.0,0.0,0.0,0.0,0.0,0.0,0.0,0.0,0.0,0.0,0.0,0.0,0.0,0.0,0.0,0.0,0.0,0.0,0.0,0.0,0.0,0.0,0.0,0.0,0.0,0.0,0.0,-1.4077,-1.4883,-1.541,-1.54,-1.5029,-1.46,-1.4107,-1.3094,-1.2591,0.0,0.0,0.0,0.0,0.0,0.0,0.0,0.0,0.0,0.0,0.0,0.0,0.0,0.0,0.0,0.0,0.0,0.0,0.0,0.0,0.0,0.0,0.0,0.0,0.0,0.0,0.0,0.0,0.0,0.0,0.0,0.0,0.0,0.0,0.0,0.0,0.0,0.0,0.0,0.0,0.0,0.0,0.0,0.0,0.0,0.0,0.0,0.0,0.0,0.0,0.0,0.0,0.0,0.0,0.0,0.0,0.0,0.0,0.0,0.0,0.0,0.0,0.0,0.0,0.0,0.0,0.0,0.0,0.0,0.0,0.0,0.0,0.0,0.0,0.0,0.0,0.0,0.0,0.0,0.0,0.0,0.0,0.0,0.0,0.0,0.0,0.0,0.0,0.0,0.0,0.0,0.0,0.0,0.0,0.0,0.0,0.0,0.0,0.0,0.0,0.0,0.0,0.0,-1.4038,-1.4883,-1.5293,-1.5,-1.458,-1.3936,-1.3032,-1.2401,-1.2059,-1.2138,0.0,0.0,0.0,0.0,0.0,0.0,0.0,0.0,0.0,0.0,0.0,0.0,0.0,0.0,0.0,0.0,0.0,0.0,0.0,0.0,0.0,0.0,0.0,0.0,0.0,0.0,0.0,0.0,0.0,0.0,0.0,0.0,0.0,0.0,0.0,0.0,0.0,0.0,0.0,0.0,0.0,0.0,0.0,0.0,0.0,0.0,0.0,0.0,0.0,0.0,0.0,0.0,0.0,0.0,0.0,0.0,0.0,0.0,0.0,0.0,0.0,0.0,0.0,0.0,0.0,0.0,0.0,0.0,0.0,0.0,0.0,0.0,0.0,0.0,0.0,0.0,0.0,0.0,0.0,0.0,0.0,0.0,0.0,0.0,0.0,0.0,0.0,0.0,0.0,0.0,0.0,0.0,0.0,0.0,0.0,0.0,0.0,0.0,0.0,0.0,0.0,0.0,-1.4029,-1.4883,-1.5254,-1.4834,-1.4112,-1.3362,-1.2595,-1.1601,-1.1116,-1.1366,0.0,0.0,0.0,0.0,0.0,0.0,0.0,0.0,0.0,0.0,0.0,0.0,0.0,0.0,0.0,0.0,0.0,0.0,0.0,0.0,0.0,0.0,0.0,0.0,0.0,0.0,0.0,0.0,0.0,0.0,0.0,0.0,0.0,0.0,0.0,0.0,0.0,0.0,0.0,0.0,0.0,0.0,0.0,0.0,0.0,0.0,0.0,0.0,0.0,0.0,0.0,0.0,0.0,0.0,0.0,0.0,0.0,0.0,0.0,0.0,0.0,0.0,0.0,0.0,0.0,0.0,0.0,0.0,0.0,0.0,0.0,0.0,0.0,0.0,0.0,0.0,0.0,0.0,0.0,0.0,0.0,0.0,0.0,0.0,0.0,0.0,0.0,0.0,0.0,0.0,0.0,0.0,0.0,0.0,0.0,0.0,0.0,0.0,0.0,0.0,0.0,0.0,-1.4029,-1.4827,-1.5177,-1.4775,-1.3755,-1.286,-1.2375,-1.0813,-1.0115,-1.0661,0.0,0.0,0.0,0.0,0.0,0.0,0.0,0.0,0.0,0.0,0.0,0.0,0.0,0.0,0.0,0.0,0.0,0.0,0.0,0.0,0.0,0.0,0.0,0.0,0.0,0.0,0.0,0.0,0.0,0.0,0.0,0.0,0.0,0.0,0.0,0.0,0.0,0.0,0.0,0.0,0.0,0.0,0.0,0.0,0.0,0.0,0.0,0.0,0.0,0.0,0.0,0.0,0.0,0.0,0.0,0.0,0.0,0.0,0.0,0.0,-0.9447,-0.96,0.0,0.0,0.0,0.0,0.0,0.0,0.0,0.0,0.0,0.0,0.0,0.0,0.0,0.0,0.0,0.0,0.0,0.0,0.0,0.0,0.0,0.0,0.0,0.0,0.0,0.0,0.0,0.0,0.0,0.0,0.0,0.0,0.0,0.0,0.0,0.0,0.0,0.0,0.0,0.0,-1.4029,-1.4298,-1.4408,-1.4247,-1.3468,-1.2467,-1.1251,-1.0812,-1.0415,-1.0064,-0.9447,0.0,0.0,0.0,0.0,0.0,0.0,0.0,0.0,0.0,0.0,0.0,0.0,0.0,0.0,0.0,0.0,0.0,0.0,0.0,0.0,0.0,0.0,0.0,0.0,0.0,0.0,0.0,0.0,0.0,0.0,0.0,0.0,0.0,0.0,0.0,0.0,0.0,0.0,0.0,0.0,0.0,0.0,0.0,0.0,0.0,0.0,0.0,0.0,0.0,0.0,0.0,0.0,0.0,0.0,0.0,0.0,0.0,0.0,0.0,-0.9775,-0.9831,0.0,0.0,0.0,0.0,0.0,0.0,0.0,0.0,0.0,0.0,0.0,0.0,0.0,0.0,0.0,0.0,0.0,0.0,0.0,0.0,0.0,0.0,0.0,0.0,0.0,0.0,0.0,0.0,0.0,0.0,0.0,0.0,0.0,0.0,0.0,0.0,0.0,0.0,0.0,0.0,-1.3474,-1.3602,-1.3488,-1.3095,-1.241,-1.1505,-1.0427,-1.0012,-0.971,-0.9361,-0.9026,0.0,0.0,0.0,0.0,0.0,0.0,0.0,0.0,0.0,0.0,0.0,0.0,0.0,0.0,0.0,0.0,0.0,0.0,0.0,0.0,0.0,0.0,0.0,0.0,0.0,0.0,0.0,0.0,0.0,0.0,0.0,0.0,0.0,0.0,0.0,0.0,0.0,0.0,0.0,0.0,0.0,0.0,0.0,0.0,0.0,0.0,0.0,0.0,0.0,0.0,0.0,0.0,0.0,-1.0593,-1.0144,-0.9353,-0.8546,-0.8485,-0.9005,-1.0015,-1.0017,-0.9395,-1.0855,0.0,0.0,0.0,0.0,0.0,0.0,0.0,0.0,0.0,0.0,0.0,0.0,0.0,0.0,0.0,0.0,0.0,0.0,0.0,0.0,0.0,0.0,-1.144,-1.1987,-1.1946,-1.1807,-1.1895,0.0,0.0,0.0,0.0,0.0,0.0,0.0,0.0,0.0,0.0,0.0,-1.265,-1.2789,-1.2541,-1.1969,-1.1287,-1.0579,-0.9866,-0.9309,-0.891,-0.8811,-0.8584,-0.8494,0.0,0.0,0.0,0.0,0.0,0.0,0.0,0.0,0.0,0.0,0.0,0.0,0.0,0.0,0.0,0.0,0.0,0.0,0.0,0.0,0.0,0.0,0.0,0.0,0.0,0.0,0.0,0.0,0.0,0.0,0.0,0.0,-0.1467,-0.8578,0.0,0.0,0.0,0.0,0.0,0.0,0.0,0.0,0.0,0.0,0.0,0.0,0.0,-1.0755,-1.0365,-1.0377,-1.0527,-1.083,-1.0221,-0.9518,-0.8824,-0.8727,-0.8404,-0.7982,-0.9336,0.0,-0.9798,-1.0597,0.0,0.0,0.0,0.0,0.0,0.0,0.0,0.0,0.0,0.0,0.0,0.0,0.0,0.0,0.0,0.0,0.0,0.0,0.0,0.0,0.0,0.0,-1.1742,-1.184,-1.1828,-1.2094,-1.3034,-1.3057,-1.2852,-1.2734,-1.2318,-1.2101,0.0,0.0,0.0,0.0,0.0,0.0,-1.1997,-1.2008,-1.1933,-1.1913,-1.1174,-1.0476,-0.9874,-0.971,-0.9413,-0.8857,-0.8771,-0.8999,-0.96,-0.9285,0.0,0.0,0.0,0.0,0.0,0.0,0.0,0.0,0.0,0.0,0.0,0.0,0.0,0.0,0.0,0.0,0.0,0.0,0.0,0.0,0.0,0.0,0.0,0.0,0.0,0.0,0.0,0.0,0.0,0.138,-0.2457,-0.6746,-0.6656,-0.6533,0.0,0.0,0.0,0.0,0.0,0.0,0.0,0.0,0.0,-0.8303,-0.9361,-0.9787,-0.9419,-0.9799,-1.0084,-1.0268,-0.9555,-0.8803,-0.8125,-0.7717,-0.7616,-0.7723,-0.8349,-0.883,-0.9309,-1.0364,-1.0471,-1.0008,0.0,0.0,0.0,0.0,-0.9948,-0.9627,-0.9388,-0.9486,-0.9547,-0.8797,0.0,0.0,0.0,0.0,0.0,0.0,0.0,-1.0433,-1.0532,-1.0597,-1.0864,-1.1616,-1.1516,-1.153,-1.2623,-1.2689,-1.2633,-1.2856,-1.2848,-1.2636,-1.2102,-1.1608,0.0,0.0,0.0,-1.1461,-1.1461,-1.1238,-1.1055,-1.0887,-1.0458,-0.9946,-0.9498,-0.9309,-0.9106,-0.8804,-0.8804,-0.8956,-0.9211,-0.9085,-0.911,0.0,0.0,0.0,0.0,0.0,0.0,0.0,0.0,0.0,0.0,0.0,0.0,0.0,0.0,0.0,0.0,0.0,0.0,0.0,0.0,0.0,0.0,0.0,0.0,0.0,0.0,0.0,0.0,0.089,-0.2803,-0.4803,-0.6477,-0.7076,0.0,0.0,0.0,0.0,0.0,0.0,-0.7982,-0.8558,-0.8215,-0.6659,-0.7866,-0.8435,-0.8159,-0.8915,-0.9235,-0.9242,-0.8698,-0.8072,-0.7396,-0.6858,-0.6804,-0.7122,-0.7343,-0.783,-0.8639,-0.9806,-1.0012,-0.9614,-1.0115,-0.9961,-0.9614,-1.0115,-0.9961,-0.9562,-0.9562,-0.9562,-0.9422,-0.8755,-0.8484,-0.8545,-0.8693,0.0,0.0,0.0,0.0,-1.0098,-1.0314,-1.0142,-1.0246,-1.1463,-1.1158,-1.1042,-1.2378,-1.2484,-1.2375,-1.2549,-1.2755,-1.2547,-1.1597,-1.1289,0.0,-1.1168,-1.0962,-1.0869,-1.0869,-1.0671,-1.0448,-1.0147,-0.992,-0.9646,-0.9216,-0.9038,-0.8884,-0.8811,-0.8804,-0.8804,-0.8804,-0.8804,-0.8804,-0.8804,0.0,0.0,0.0,0.0,0.0,0.0,0.0,0.0,0.0,0.0,0.0,0.0,0.0,0.0,0.0,0.0,0.0,0.0,0.0,0.0,0.0,0.0,0.0,0.0,0.0,0.0,0.0,0.0,0.0,-0.2518,-0.285,0.0,0.0,0.0,0.0,0.089,-0.5436,-0.84,-0.5734,-0.6279,-0.6313,-0.5575,-0.6347,-0.6735,-0.6691,-0.745,-0.783,-0.783,-0.7771,-0.7343,-0.6642,-0.6642,-0.6253,-0.5651,-0.6367,-0.7074,-0.783,-0.8586,-0.8857,-0.8857,-0.891,-0.8857,-0.8857,-0.891,-0.8857,-0.8857,-0.8857,-0.8857,-0.8857,-0.8791,-0.8784,-0.8784,-0.8771,-0.8965,0.0,0.0,-0.9946,-1.0448,-0.9501,-0.9755,-1.0493,-1.1333,-1.0915,-1.0895,-1.3055,-1.2943,-1.2258,-1.1857,-1.1246,-1.1027,-1.1599,0.0,-1.0013,-1.0664,-1.0373,-1.0174,-1.0174,-1.0436,-1.0448,-1.0147,-1.01,-0.986,-0.923,-0.917,-0.9044,-0.8824,-0.8804,-0.8804,-0.8804,-0.8804,-0.8804,-0.8804,-0.8524,0.0,0.0,0.0,0.0,0.0,0.0,0.0,0.0,0.0,0.0,0.0,0.0,0.0,0.0,0.0,0.0,0.0,0.0,0.0,0.0,0.0,0.0,0.0,0.0,0.0,0.0,0.0,0.0,-0.0641,-0.0912,0.0,0.0816,-0.1816,-0.2579,-0.0219,-0.3422,-0.4873,-0.3424,-0.4615,-0.4737,-0.3392,-0.5592,-0.6271,-0.5198,-0.6411,-0.6966,-0.6966,-0.6524,-0.614,-0.5869,-0.5441,-0.5332,-0.5542,-0.576,-0.6308,-0.702,-0.7289,-0.7937,-0.8752,-0.8262,-0.8103,-0.8103,-0.8103,-0.8103,-0.8156,-0.8639,-0.8804,-0.8804,-0.8804,-0.8931,-0.903,-0.903,-0.9292,-0.9526,-0.9526,-0.9765,-0.9992,-0.961,-0.969,-1.0073,-1.0837,-1.0789,-1.0797,-1.1768,-1.1752,-1.1428,-1.1052,-1.1247,-1.1234,-1.0739,-1.047,-1.0302,-1.0338,-1.039,-1.0401,-1.0401,-1.0557,-1.0521,-1.0414,-1.0234,-1.0033,-0.982,-0.9402,-0.9143,-0.9037,-0.8911,-0.8804,-0.8804,-0.8804,-0.8804,-0.8804,-0.8704,-0.8564,0.0,0.0,0.0,0.0,0.0,0.0,0.0,0.0,0.0,0.0,0.0,0.0,0.0,0.0,0.0,0.0,0.0,0.0,0.0,0.0,0.0,0.0,0.0,0.0,0.0,0.4142,0.3424,0.1033,0.0318,0.0215,0.069,-0.1064,-0.1796,-0.0794,-0.2088,-0.2606,-0.1845,-0.2876,-0.3114,-0.2251,-0.421,-0.4915,-0.4131,-0.5325,-0.6126,-0.6417,-0.584,-0.5584,-0.558,-0.4812,-0.4732,-0.5164,-0.5164,-0.5546,-0.6204,-0.6204,-0.6961,-0.7996,-0.7509,-0.7343,-0.7343,-0.7343,-0.7509,-0.7777,-0.8262,-0.8427,-0.8447,-0.8543,-0.8696,-0.8918,-0.9246,-0.9599,-0.9826,-0.9826,-0.99,-0.996,-0.986,-0.9826,-0.9996,-1.0733,-1.0675,-1.0646,-1.1196,-1.1148,-1.0861,-1.064,-1.1045,-1.1162,-1.0417,-1.0428,-1.0494,-1.0294,-1.0434,-1.0624,-1.0624,-1.0624,-1.0624,-1.0624,-1.0381,-1.0221,-1.0127,-0.9666,-0.9385,-0.9385,-0.9025,-0.8851,-0.8945,-0.8858,-0.8804,-0.8804,-0.8905,-0.8858,-0.8664,0.0,0.0,0.0,0.0,0.0,0.0,0.0,0.0,0.0,0.0,0.0,0.0,0.0,0.0,0.0,0.0,0.0,0.0,0.0,0.0,0.0,0.0,0.0,0.4274,0.458,0.4343,0.2382,0.0928,0.0661,0.206,-0.0379,-0.1465,-0.0059,-0.1228,-0.1716,-0.1044,-0.1047,-0.1354,-0.2089,-0.2153,-0.2644,-0.3501,-0.4278,-0.5069,-0.5868,-0.5748,-0.5665,-0.5657,-0.4811,-0.4467,-0.4467,-0.4463,-0.4838,-0.5429,-0.5433,-0.5869,-0.648,-0.6534,-0.6593,-0.6598,-0.6593,-0.702,-0.767,-0.7676,-0.7681,-0.7722,-0.8096,-0.8241,-0.8407,-0.9433,-0.99,-1.0134,-1.0134,-1.0341,-1.0557,-1.0207,-1.0134,-1.0302,-1.1115,-1.071,-1.0445,-1.152,-1.1163,-1.0624,-1.0624,-1.0624,-1.0624,-1.0624,-1.0624,-1.0624,-1.0624,-1.0624,0.0,-1.0624,-1.0624,-1.0624,-1.0624,-1.0624,-1.0441,-1.0154,-0.9866,-0.9693,-0.9686,-0.9138,-0.8945,-0.9176,-0.8971,-0.8824,-0.8831,-0.9112,-0.9196,-0.9196,0.0,0.0,0.0,0.0,0.0,0.0,0.0,0.0,0.0,0.0,0.0,0.0,0.0,0.0,0.0,0.0,0.0,0.0,0.0,0.0,0.0,0.8749,0.6657,0.3151,0.3767,0.3811,0.1649,0.1989,0.2321,0.2196,0.1583,0.139,0.1759,0.1555,0.1458,0.1658,0.0438,-0.0125,0.0307,-0.1443,-0.2199,-0.1783,-0.2514,-0.3003,-0.3247,-0.322,-0.3206,-0.3204,-0.3516,-0.3642,-0.3751,-0.4284,-0.4291,-0.395,-0.4508,-0.456,-0.4333,-0.5374,-0.5908,-0.6018,-0.5872,-0.6253,-0.6987,-0.7648,-0.7544,-0.7247,-0.8063,-0.8498,-0.8783,-0.9721,-1.02,-1.0441,-1.0441,-1.0557,-1.0604,-1.0461,-1.0441,-1.0497,-1.0739,-1.0622,-1.0524,-1.0843,-1.0744,-1.0624,-1.0624,-1.0624,-1.0624,-1.0624,-1.0624,-1.0624,-1.0624,-1.0624,-1.0624,-1.0624,-1.0624,-1.0624,-1.0624,-1.0624,-1.0591,-1.0448,-1.0167,-0.9907,-0.9699,-0.9332,-0.9103,-0.9183,-0.911,-0.9218,-0.9439,-0.9519,-0.9559,0.0,0.0,0.0,0.0,0.0,0.0,0.0,0.0,0.0,0.0,0.0,0.0,0.0,0.0,0.0,0.0,0.0,0.0,0.0,0.0,0.0,0.0,0.9141,0.707,0.3999,0.3806,0.3586,0.2609,0.272,0.2959,0.3229,0.2779,0.2549,0.2554,0.2664,0.2706,0.2677,0.1681,0.136,0.1851,0.0065,-0.0648,-0.0127,-0.1274,-0.1847,-0.1844,-0.2139,-0.2317,-0.2315,-0.2668,-0.2868,-0.2924,-0.3751,-0.3661,-0.2902,-0.3778,-0.3642,-0.301,0.0,0.0,0.0,0.0,-0.5813,-0.635,-0.6859,-0.6793,-0.6676,-0.7773,-0.8182,-0.8567,-0.9884,-1.0421,-1.0624,-1.0624,-1.0624,-1.0624,-1.0624,-1.0624,-1.0624,-1.0624,-1.0624,-1.0624,-1.0624,-1.0624,-1.0624,-1.0624,-1.0624,0.0,-1.0624,-1.0661,-1.0701,-1.0645,-1.0732,-1.0759,-1.0638,-1.0624,-1.0624,-1.0624,-1.0624,-1.0624,-1.0624,-1.0287,0.0,0.0,0.0,-0.9426,-0.9426,-0.9426,0.0,0.0,0.0,0.0,0.0,0.0,0.0,0.0,-0.9853,-1.018,0.0,0.0,0.0,0.0,0.0,0.0,0.0,0.0,0.0,0.0,0.0,0.0,0.0,0.0,0.0,0.0,1.0083,0.8237,0.625,0.4834,0.4078,0.4258,0.3277,0.3156,0.4589,0.3518,0.2837,0.2937,0.3023,0.2996,0.3008,0.2878,0.0,0.0,0.0,0.1471,0.1466,-0.0067,-0.0869,-0.0865,-0.1695,-0.2067,-0.2064,-0.2067,-0.21,-0.2099,-0.3013,-0.2948,-0.2145,-0.3038,-0.2945,-0.2349,-0.3806,-0.4421,-0.4574,-0.5293,-0.557,-0.5719,-0.5797,0.0,0.0,-0.7212,-0.7653,-0.8069,-0.9895,-1.0491,-1.0624,-1.0624,-1.0624,-1.0624,-1.0624,-1.0624,-1.0624,-1.0624,-1.0624,-1.0624,-1.0624,-1.0624,-1.0624,-1.0624,-1.0624,-1.0624,-1.0624,-1.0775,-1.0868,-1.0705,-1.0828,-1.0902,-1.0705,-1.0672,-1.0658,-1.0624,-1.0624,0.0,-1.0624,-1.0321,-1.0199,-1.0362,-0.9926,-0.9721,-0.978,-0.9813,-0.9967,-1.0261,-1.0234,-1.0425,-1.0837,-0.9952,-0.9604,-0.9759,-0.9988,-1.0364,0.0,0.0,0.0,0.0,0.0,0.0,0.0,0.0,0.0,0.0,0.0,0.0,0.0,0.0,0.0,1.1217,1.0264,0.9429,0.8944,0.8657,0.7231,0.3883,0.433,0.4838,0.4728,0.4558,0.451,0.4604,0.4786,0.486,0.4888,0.4151,0.3747,0.3747,0.2878,0.2409,0.2407,0.2074,0.1939,0.1938,0.0998,0.0,0.0531,-0.0711,-0.134,-0.1338,-0.2112,-0.2027,-0.1353,-0.2137,-0.2375,-0.2306,-0.335,-0.4056,-0.4588,-0.5438,-0.5404,-0.4995,-0.5711,-0.5632,-0.5423,-0.654,-0.7376,-0.8158,-0.925,-1.004,0.0,-1.0624,-1.0624,-1.0624,-1.0624,-1.0624,-1.0624,-1.0624,-1.0624,-1.0624,-1.0624,-1.0624,-1.0624,-1.0624,-1.0624,-1.0624,-1.0624,-1.0672,-1.0701,-1.0882,-1.0955,-1.0969,-1.0915,-1.0909,-1.0822,-1.0651,-1.0624,-1.0624,-1.0624,-1.0571,-1.0138,-0.9192,-0.9307,-0.9693,-1.0388,-1.0615,-1.0875,-1.1169,-1.0942,-1.0586,-1.0081,-0.9943,-0.9578,-0.9016,-0.9679,-1.0167,0.0,0.0,0.0,0.0,0.0,0.0,0.0,0.0,0.0,0.0,0.0,1.5048,1.3867,0.0,1.2715,1.1115,1.0539,1.0143,0.9739,0.968,0.8619,0.577,0.6108,0.6409,0.6052,0.6049,0.6223,0.6497,0.6672,0.6531,0.6075,0.5997,0.5793,0.5335,0.4469,0.4201,0.4665,0.334,0.2945,0.3345,0.241,0.1742,0.1273,0.0925,0.0329,-0.0592,-0.0969,-0.0899,-0.0579,-0.0951,-0.131,-0.1718,-0.2658,-0.3446,-0.4167,-0.5004,-0.5146,-0.4982,-0.5424,-0.5434,-0.5387,-0.6367,-0.7307,-0.8156,-0.9011,-0.9913,-1.0624,-1.0624,-1.0301,-1.0047,-1.0491,-1.0301,-1.0047,-1.0498,-1.0624,-1.0624,-1.0624,-1.0624,-1.0665,-1.0748,-1.0775,-1.0822,-1.0969,-1.0995,-1.0995,-1.0995,-1.1116,-1.1209,-1.1209,-1.1209,-1.1096,-1.0808,-1.0909,-1.0935,-1.0788,-1.0437,-0.973,-0.8554,-0.87,-0.9036,-0.9504,-0.962,-1.0027,-1.0648,-1.0033,-0.9817,-1.0137,-0.9132,-0.8534,-0.83,-0.8714,-0.9233,0.0,0.0,0.0,0.0,0.0,0.0,0.0,1.6479,1.672,1.6557,1.6258,1.5665,1.4527,1.3905,1.2984,1.1266,1.1116,1.104,1.0537,1.0572,1.016,0.8781,0.8016,0.7543,0.7303,0.7289,0.7476,0.7991,0.8027,0.7697,0.6981,0.7632,0.7697,0.6981,0.6052,0.592,0.6719,0.4403,0.3547,0.4284,0.3347,0.2544,0.1876,0.241,0.1811,0.0269,0.0067,0.0,0.0,0.0,-0.0321,-0.1003,-0.1878,-0.275,-0.3556,-0.4507,-0.5009,-0.5131,-0.5131,-0.5233,-0.5491,-0.6203,-0.7046,-0.7897,-0.8549,-0.9524,-1.0301,-1.0168,-0.9716,-0.9402,-0.9977,-0.9588,-0.9204,-0.9913,-1.0104,-1.0117,-1.011,-1.0123,-1.0206,-1.0473,-1.0463,-1.0533,-1.0754,-1.0792,-1.0872,-1.1122,-1.1363,-1.151,-1.151,-1.151,-1.1396,-1.1109,-1.1283,-1.1261,-1.0823,-1.0107,-0.9237,-0.8303,-0.8214,-0.8326,-0.8467,-0.8462,-0.8912,-0.9743,-0.8912,-0.8929,-0.9896,-0.8203,-0.7401,-0.748,-0.7512,-0.8064,1.3171,1.4836,1.7189,1.9146,1.9823,2.0316,0.0,1.9428,1.7247,1.7076,1.5869,1.4484,1.3243,1.2938,1.2628,1.1841,1.2209,1.2773,1.3263,1.382,1.3658,1.2347,0.9497,0.7543,0.7303,0.7289,0.7476,0.7991,0.8027,0.7962,0.7827,0.7962,0.7962,0.7827,0.6976,0.6588,0.6719,0.5613,0.516,0.5226,0.4284,0.3816,0.368,0.3011,0.2143,0.114,0.0336,0.0,0.0,0.0,-0.0067,-0.02,-0.1064,-0.199,-0.2965,-0.4385,-0.5009,-0.5131,-0.5131,-0.5233,-0.5428,-0.5491,-0.6141,-0.685,-0.6981,-0.8156,-0.9268,-0.8479,-0.8807,-0.9139,-0.8479,-0.8221,-0.8156,-0.8285,-0.8285,-0.8343,-0.842,-0.8462,-0.8524,-0.8672,-0.8718,-0.8723,-0.8749,-0.8754,-0.9449,-1.1519,-1.1797,-1.1824,-1.1824,-1.1824,-1.171,-1.141,-1.141,-1.106,-1.0116,-0.9238,-0.8609,-0.8369,-0.7857,-0.7965,-0.8684,-0.8757,-0.893,-0.9365,-0.8935,-0.8503,-0.8053,-0.7825,-0.7306,-0.6493,-0.6623,-0.7156,1.7212,1.8442,1.9756,2.1912,2.2477,2.2462,2.2395,2.0822,1.9087,1.8094,1.7196,1.6175,1.471,1.4413,1.4228,1.3606,1.37,1.3982,1.4283,1.4514,1.4215,1.2956,1.1731,1.0706,1.0059,0.9994,1.0251,1.0878,1.0927,1.0488,0.9476,0.9926,0.9551,0.8021,0.7632,0.7242,0.6719,0.5815,0.5428,0.5428,0.5024,0.4553,0.4015,0.3613,0.2678,0.1274,0.0404,0.0,0.0,0.0,0.0,-0.0067,-0.0939,-0.1876,-0.2802,-0.3978,-0.4755,-0.5267,-0.5267,-0.5308,-0.5428,-0.5428,-0.6009,-0.6719,-0.6719,-0.7567,-0.8484,-0.8091,-0.7892,-0.7827,-0.7962,-0.7632,-0.74,-0.7991,-0.8092,-0.8148,-0.8299,-0.8344,-0.8409,-0.8618,-0.8662,-0.8702,-0.8915,-0.8935,-0.9264,-1.0256,-1.021,-1.0164,-1.0324,-1.0415,-1.0302,-1.0199,-0.9973,-0.9521,-0.8596,-0.8281,-0.779,-0.7021,-0.6891,-0.6988,-0.7358,-0.7358,-0.7698,-0.8389,-0.7702,-0.7475,-0.7783,-0.7176,-0.6718,-0.6264,-0.6407,-0.6757,1.9626,2.0706,2.156,2.3452,2.4032,2.391,2.3031,2.1927,2.0721,1.9456,1.8856,1.8079,1.6674,1.6175,1.5823,1.5194,1.5028,1.4971,1.4971,1.5107,1.4777,1.3608,1.3758,1.3613,1.2782,1.2332,1.2324,1.2959,1.3009,1.2373,1.0933,1.1447,1.0822,0.8801,0.8484,0.8027,0.7437,0.6338,0.5752,0.5752,0.5491,0.5024,0.435,0.3882,0.2811,0.1274,0.0404,0.0,0.0,0.0,0.0,-0.0067,-0.0672,-0.1676,-0.2744,-0.3413,-0.4417,-0.5428,-0.5428,-0.5428,-0.5428,-0.5428,-0.5815,-0.633,-0.633,-0.692,-0.7567,-0.7377,-0.6981,-0.6785,-0.7181,-0.6789,-0.6511,-0.7306,-0.7487,-0.7555,-0.7735,-0.7713,-0.7843,-0.8042,-0.8083,-0.8207,-0.8438,-0.8466,-0.8466,-0.8466,-0.8253,-0.8435,-0.92,-0.9296,-0.9296,-0.9296,-0.907,-0.8601,-0.7646,-0.7702,-0.7271,-0.6173,-0.62,-0.6338,-0.6338,-0.6338,-0.6644,-0.7403,-0.6641,-0.6641,-0.7403,-0.6644,-0.6281,-0.6322,-0.6468,-0.6617,1.8729,2.0471,2.239,2.3448,2.4096,2.4479,2.4442,2.3055,2.1646,2.1295,2.048,1.9558,1.8585,1.7671,1.6857,1.617,1.5763,1.5588,1.5588,1.6107,1.6159,1.5336,1.5211,1.511,1.4733,1.3438,1.2671,1.2984,1.3009,1.2634,1.1826,1.1764,1.1406,1.0555,0.9722,0.9268,0.921,0.7502,0.6654,0.6654,0.5818,0.5362,0.5292,0.3547,0.2209,0.1274,0.0404,0.0,0.0,0.0,0.0,0.0,0.0,-0.1141,-0.2678,-0.2744,-0.3882,-0.5428,-0.5428,-0.5428,-0.5428,-0.5428,-0.5428,-0.5428,-0.5428,-0.6075,-0.6593,-0.5686,-0.6075,-0.6527,-0.5686,-0.5425,-0.5466,-0.5621,-0.5658,-0.5737,-0.6033,-0.6094,-0.6143,-0.63,-0.6409,-0.6409,-0.6412,-0.6416,-0.6416,-0.6416,-0.6409,-0.7092,-0.9069,-0.9296,-0.9296,-0.9296,-0.9291,-0.8908,-0.7851,-0.7778,-0.7399,-0.6331,-0.6257,-0.6338,-0.6338,-0.6338,-0.6338,-0.6338,-0.6338,-0.6338,-0.6338,-0.6338,-0.6332,-0.6468,-0.6624,-0.6776,2.142,2.2417,2.3145,2.4608,2.4864,2.4805,2.4926,2.3946,2.2845,2.2285,2.1787,2.1116,2.0067,1.8989,1.8131,1.7876,1.6927,1.633,1.6744,1.6953,1.6958,1.6644,1.6849,1.6831,1.6299,1.4913,1.4201,1.4542,1.4569,1.4025,1.2696,1.2573,1.171,0.9786,0.9466,0.9091,0.8716,0.7967,0.7639,0.7841,0.6783,0.5338,0.3613,0.2945,0.1877,0.0404,0.0135,0.0,0.0,0.0,0.0,0.0,0.0,-0.0739,-0.1876,-0.2477,-0.348,-0.4553,-0.516,-0.5428,-0.5428,-0.5428,-0.5428,-0.5428,-0.5428,-0.5624,-0.5749,-0.5491,-0.5624,-0.5752,-0.5495,-0.5437,-0.5549,-0.5694,-0.5806,-0.5935,-0.6139,-0.6183,-0.62,-0.6251,-0.6338,-0.6338,-0.6338,-0.6338,-0.6338,-0.6338,-0.6338,-0.6567,-0.7249,-0.7326,-0.7326,-0.7326,-0.7326,-0.7176,-0.6872,-0.6795,-0.6641,-0.6338,-0.6338,-0.6338,-0.6338,-0.6338,-0.6338,-0.6338,-0.6338,-0.6308,-0.6403,-0.6403,-0.6478,-0.6627,-0.678,-0.6878,2.2801,2.3382,2.3657,2.5247,2.5332,2.5086,2.5213,2.4615,2.3876,2.3349,2.3124,2.2721,2.1926,2.0594,1.9749,2.0108,1.8874,1.8002,1.8236,1.8394,1.828,1.7568,1.7894,1.8026,1.7594,1.6824,1.6239,1.5816,1.6107,1.5475,1.3502,1.3308,1.2313,1.0425,1.0051,0.979,0.9496,0.9008,0.8467,0.799,0.6912,0.5264,0.326,0.326,0.2232,0.0471,0.0471,0.0269,0.0,0.0,0.0,0.0,0.0,-0.0538,-0.1409,-0.2437,-0.3328,-0.4206,-0.5109,-0.5428,-0.5428,-0.5428,-0.5428,-0.5428,-0.5428,-0.5428,-0.5428,-0.5428,-0.5428,-0.5439,-0.543,-0.5515,-0.564,-0.5837,-0.5959,-0.6071,-0.6227,-0.6338,-0.6338,-0.6338,-0.6338,-0.6338,-0.6338,-0.6338,-0.6338,-0.6338,-0.6338,-0.6338,-0.6338,-0.6338,-0.6338,-0.6338,-0.6338,-0.6338,-0.6338,-0.6338,-0.6338,-0.6338,-0.6338,-0.6338,-0.6338,-0.6338,-0.6338,-0.6338,-0.6312,-0.638,-0.6471,-0.6525,-0.663,-0.6783,-0.6881,-0.6956,2.2955,2.345,2.4017,2.5353,2.5508,2.5312,2.5312,2.5066,2.4759,2.4482,2.4442,2.4339,2.4016,2.2447,2.1535,2.2602,2.1399,2.0218,1.995,2.0202,1.9818,1.8174,1.847,1.8713,1.8623,1.9077,1.8625,1.6789,1.749,1.6921,1.4432,1.3879,1.3244,1.2337,1.1521,1.1223,1.1512,1.061,0.9265,0.7354,0.6365,0.5367,0.4194,0.4194,0.3168,0.1344,0.1344,0.0807,0.0,0.0,0.0,0.0,0.0,-0.0472,-0.135,-0.249,-0.3422,-0.425,-0.5094,-0.5452,-0.5452,-0.5452,-0.5446,-0.5439,-0.5439,-0.5435,-0.5428,-0.5428,-0.5428,-0.5463,-0.5542,-0.5589,-0.5671,-0.5952,-0.603,-0.6081,-0.623,-0.6338,-0.6338,-0.6338,-0.6338,-0.6338,-0.6338,-0.6338,-0.6338,-0.6338,-0.6338,-0.6338,-0.6338,-0.6338,-0.6338,-0.6338,-0.6338,-0.6338,-0.6338,-0.6338,-0.6338,-0.6338,-0.6338,-0.6338,-0.6338,-0.6338,-0.6338,-0.6338,-0.64,-0.6474,-0.6485,-0.6637,-0.679,-0.6939,-0.6939,-0.701,2.4312,2.4793,2.5112,2.5522,2.5609,2.5586,2.5527,2.534,2.5138,2.5022,2.5005,2.4966,2.4879,2.3485,2.2451,2.2748,2.0881,1.9574,1.9938,1.9634,1.9368,1.9294,1.9441,1.9698,2.0104,2.0631,2.0246,1.8578,1.8151,1.7194,1.5286,1.5051,1.4655,1.3811,1.2905,1.2541,1.2786,1.1884,1.0361,0.8272,0.799,0.6683,0.4448,0.4448,0.3397,0.1521,0.1521,0.0959,0.0,0.0,0.0,0.0,0.0,-0.0141,-0.057,-0.2245,-0.3039,-0.3446,-0.513,-0.5688,-0.5688,-0.5688,-0.562,-0.5532,-0.5532,-0.5454,-0.5428,-0.5428,-0.5428,-0.5435,-0.541,-0.5583,-0.5766,-0.584,-0.6034,-0.6213,-0.6251,-0.6338,-0.6338,-0.6338,-0.6338,-0.6338,-0.6338,-0.6338,-0.6338,-0.6338,-0.6338,-0.6338,-0.6338,-0.6338,-0.6338,-0.6338,-0.6338,-0.6338,-0.6338,-0.6338,-0.6338,-0.6338,-0.6338,-0.6338,-0.6338,-0.6338,-0.6338,-0.6338,-0.64,-0.6529,-0.6644,-0.6797,-0.6946,-0.7085,-0.7085,-0.7105,2.5111,2.5428,2.5557,2.5626,2.5673,2.5684,2.5644,2.5503,2.5386,2.5342,2.534,2.5328,2.5332,2.3926,2.303,2.3863,2.1994,2.0571,2.102,2.095,2.0651,2.0294,2.0718,2.1133,2.1427,2.1937,2.1724,2.0421,1.9576,1.8207,1.6138,1.5882,1.5507,1.5045,1.3723,1.3009,1.2835,1.1893,1.0797,0.9563,0.8699,0.7411,0.5808,0.5374,0.4073,0.2203,0.2203,0.1341,0.0,0.0,0.0,0.0,0.0,0.0,-0.0215,-0.178,-0.2582,-0.3205,-0.4762,-0.5625,-0.5979,-0.5844,-0.5745,-0.5671,-0.561,-0.5532,-0.546,-0.546,-0.546,-0.5491,-0.5623,-0.5779,-0.5918,-0.5986,-0.6135,-0.6338,-0.6338,-0.6338,-0.6338,-0.6338,-0.6338,-0.6338,-0.6338,-0.6338,-0.6338,-0.6338,-0.6338,-0.6338,-0.6338,-0.6338,-0.6338,-0.6338,-0.6338,-0.6338,-0.6338,-0.6338,-0.6338,-0.6338,-0.6338,-0.6338,-0.6338,-0.6338,-0.6338,-0.6338,-0.6468,-0.6614,-0.6702,-0.6915,-0.7061,-0.7139,-0.7139,-0.7139,2.5522,2.5601,2.5622,2.5673,2.5703,2.5703,2.5703,2.5593,2.5502,2.5502,2.5504,2.5505,2.5507,2.4135,2.352,2.5124,2.3608,2.2286,2.2512,2.2732,2.2408,2.1099,2.1817,2.2451,2.2405,2.2863,2.2802,2.1954,2.1164,1.965,1.7189,1.6731,1.6312,1.5842,1.4348,1.3177,1.2298,1.1465,1.0932,1.0783,0.8912,0.7845,0.7533,0.6503,0.5004,0.3138,0.2992,0.1896,0.0219,0.0073,0.0,0.0,0.0,0.0,-0.0142,-0.1228,-0.2257,-0.3233,-0.4292,-0.5378,-0.6217,-0.5949,-0.5847,-0.581,-0.5684,-0.5633,-0.5616,-0.5616,-0.5616,-0.5677,-0.5932,-0.6013,-0.6064,-0.62,-0.6247,-0.6338,-0.6338,-0.6338,-0.6338,-0.6338,-0.6338,-0.6338,-0.6338,-0.6338,-0.6338,-0.6338,-0.6338,-0.6338,-0.6338,-0.6338,-0.6338,-0.6338,-0.6338,-0.6338,-0.6338,-0.6338,-0.6338,-0.6338,-0.62,-0.6054,-0.6054,-0.5914,-0.5843,-0.5843,-0.6094,-0.6222,-0.6226,-0.6657,-0.6782,-0.6602,-0.6959,-0.7051,2.5553,2.5601,2.5622,2.5673,2.5703,2.5703,2.5703,2.5634,2.5571,2.5571,2.5534,2.5529,2.5563,2.5047,2.4656,2.4794,2.3755,2.2863,2.2672,2.2229,2.1829,2.1568,2.1746,2.2024,2.2365,2.2508,2.238,2.193,2.1753,2.0842,1.8947,1.8802,1.7678,1.5415,1.4993,1.4037,1.2298,1.215,1.162,1.0783,0.9593,0.8599,0.7732,0.6674,0.5597,0.4341,0.3446,0.2372,0.1238,0.0373,0.0,0.0,0.0,0.0,-0.0149,-0.1171,-0.221,-0.3227,-0.431,-0.5381,-0.6251,-0.62,-0.6095,-0.5986,-0.5962,-0.5864,-0.5766,-0.5766,-0.5766,-0.5776,-0.5827,-0.5935,-0.6037,-0.6064,-0.6169,-0.6338,-0.6338,-0.6338,-0.6338,-0.6338,-0.6338,-0.6338,-0.6338,-0.6338,-0.6338,-0.6338,-0.6338,-0.6338,-0.6338,-0.6338,-0.6338,-0.6338,-0.6338,-0.6338,-0.6338,-0.6338,-0.6338,-0.6338,-0.5495,-0.4988,-0.4988,-0.4095,-0.3641,-0.3641,-0.3823,-0.3959,-0.3959,-0.5117,-0.5176,-0.4281,-0.6157,-0.6605,2.5615,2.5654,2.566,2.5681,2.5703,2.5703,2.5703,2.5625,2.5557,2.5592,2.5543,2.5522,2.5587,2.5016,2.4587,2.4736,2.3235,2.2222,2.2682,2.2467,2.2366,2.2692,2.3316,2.3826,2.3986,2.3647,2.3358,2.3132,2.2738,2.1803,2.0074,1.9562,1.8065,1.5305,1.5234,1.4235,1.2298,1.2305,1.1768,1.0783,0.9744,0.8765,0.7783,0.6795,0.5748,0.4607,0.3532,0.252,0.1515,0.046,0.0,0.0,0.0,0.0,-0.0073,-0.0591,-0.1397,-0.2479,-0.3485,-0.4602,-0.5533,-0.6153,-0.6156,-0.603,-0.603,-0.5922,-0.5817,-0.5898,-0.5922,-0.5939,-0.602,-0.6095,-0.6149,-0.6149,-0.6207,-0.6338,-0.6338,-0.6338,-0.6338,-0.6338,-0.6338,-0.6338,-0.6338,-0.6338,-0.6338,-0.6338,-0.6338,-0.6103,-0.555,-0.5473,-0.5709,-0.6257,-0.5315,-0.4844,-0.5395,-0.4921,-0.4608,-0.4608,-0.4184,-0.3893,-0.3893,-0.3412,-0.3126,-0.3126,-0.3235,-0.3378,-0.3378,-0.4154,-0.4194,-0.3659,-0.4727,-0.4996,2.5662,2.5683,2.5658,2.5668,2.5673,2.5661,2.5683,2.559,2.5527,2.559,2.5563,2.5543,2.5582,2.4948,2.4497,2.4816,2.3318,2.2362,2.3117,2.3431,2.3777,2.4177,2.5151,2.5777,2.5683,2.5062,2.4559,2.4297,2.3531,2.2372,2.0719,1.9748,1.8133,1.5587,1.5305,1.4378,1.2592,1.2372,1.1768,1.0783,0.9744,0.8765,0.7783,0.6795,0.5867,0.4999,0.3904,0.2891,0.1801,0.0784,0.0233,0.0,0.0,0.0,0.0,0.0,-0.0661,-0.1707,-0.2504,-0.3444,-0.4538,-0.5585,-0.6023,-0.6078,-0.6078,-0.5996,-0.5925,-0.6047,-0.6078,-0.6108,-0.623,-0.6338,-0.6338,-0.6338,-0.6338,-0.6338,-0.6338,-0.6338,-0.6338,-0.6338,-0.6338,-0.6338,-0.6338,-0.6338,-0.6257,-0.6022,-0.5944,-0.555,-0.453,-0.4142,-0.4453,-0.5473,-0.4139,-0.3435,-0.4295,-0.3593,-0.3124,-0.3124,-0.2904,-0.2756,-0.2756,-0.259,-0.2465,-0.2465,-0.2566,-0.2705,-0.2705,-0.3014,-0.3037,-0.2858,-0.3393,-0.3481,2.5664,2.5607,2.5537,2.5592,2.5564,2.5531,2.5604,2.5547,2.5527,2.5586,2.5601,2.5582,2.5601,2.5475,2.5298,2.5101,2.5237,2.5184,2.4708,2.5727,2.6399,2.6086,2.6275,2.6397,2.6333,2.5762,2.5082,2.4355,2.3531,2.2372,2.0719,1.9748,1.8412,1.6558,1.5658,1.4665,1.36,1.2739,1.1768,1.0783,0.9744,0.8765,0.7783,0.6795,0.6261,0.6103,0.5002,0.3982,0.289,0.188,0.0862,0.0,0.0,0.0,0.0,0.0,-0.0669,-0.1601,-0.1725,-0.242,-0.3408,-0.4498,-0.5464,-0.624,-0.624,-0.623,-0.6224,-0.6237,-0.624,-0.6244,-0.6257,-0.6338,-0.6338,-0.6338,-0.6338,-0.6338,-0.6338,-0.6338,-0.6338,-0.6338,-0.6338,-0.6338,-0.6338,-0.6338,-0.5944,-0.5002,-0.4844,-0.4453,-0.3357,-0.2425,-0.227,-0.3281,-0.3202,-0.3124,-0.3202,-0.3124,-0.3124,-0.3124,-0.2236,-0.17,-0.17,-0.076,-0.0259,-0.0259,-0.0266,-0.0269,-0.0358,-0.1431,-0.1433,-0.0359,-0.2592,-0.3037,2.5547,2.5546,2.5515,2.5532,2.5541,2.5573,2.5583,2.5573,2.5584,2.5655,2.5601,2.5563,2.564,2.554,2.5382,2.5188,2.4869,2.462,2.4515,2.5373,2.6133,2.6466,2.6978,2.7436,2.7622,2.6745,2.5624,2.4381,2.3531,2.2628,2.1428,2.059,1.8992,1.6697,1.621,1.5296,1.3745,1.331,1.2352,1.0783,0.9744,0.8765,0.7783,0.6795,0.6338,0.6257,0.5157,0.4062,0.3046,0.2035,0.0933,0.0,0.0,0.0,0.0,0.0,-0.0288,-0.0701,-0.1408,-0.187,-0.2377,-0.3394,-0.4407,-0.5366,-0.6073,-0.6196,-0.6142,-0.6234,-0.6338,-0.6338,-0.6338,-0.6338,-0.6338,-0.6338,-0.6338,-0.6338,-0.6338,-0.6338,-0.6338,-0.6338,-0.6338,-0.6103,-0.547,-0.5315,-0.4999,-0.3904,-0.3748,-0.3359,-0.2347,-0.188,-0.1489,-0.1253,-0.1253,-0.1488,-0.2112,-0.1644,-0.1253,-0.1253,-0.087,-0.0641,-0.065,-0.0252,0.0,0.0,0.0,0.0,0.0,-0.0449,-0.0449,0.0,-0.0986,-0.1165,2.5506,2.5495,2.5453,2.5475,2.5505,2.5544,2.5578,2.5599,2.5622,2.5683,2.5625,2.5584,2.5657,2.5543,2.5395,0.0,2.4892,2.4678,2.5008,2.58,2.6613,2.73,2.7921,2.8349,2.8555,2.73,2.5892,2.4408,2.3767,2.2992,2.1951,2.1302,1.9912,1.7453,1.6904,1.593,1.4593,1.3954,1.2851,1.1218,1.0185,0.9064,0.7783,0.7099,0.6567,0.6261,0.5473,0.453,0.3515,0.2503,0.1396,0.0459,0.0152,0.0,0.0,0.0,0.0,-0.0139,-0.0896,-0.1122,-0.1319,-0.2289,-0.3116,-0.3891,-0.4991,-0.5657,-0.6061,-0.6217,-0.6338,-0.6338,-0.6338,-0.6338,-0.6257,-0.5867,-0.5864,-0.5709,-0.5392,-0.5315,-0.5315,-0.5315,-0.5315,-0.5079,-0.4373,-0.4217,-0.3906,-0.2813,-0.2657,-0.2268,-0.1254,-0.1098,-0.0863,-0.0079,0.0,-0.0314,-0.1097,-0.0471,0.0,0.0,0.0,0.0,0.0,0.0,0.0,0.0,0.0,0.0,0.0,0.0,0.0,0.0,0.0,0.0,2.5558,2.5447,2.5332,2.539,2.5409,2.5416,2.5496,2.5561,2.5627,2.5696,2.5703,2.5687,2.5605,2.5556,2.5479,2.5408,2.5834,2.6341,2.6814,2.7853,2.8755,2.9215,2.9215,2.9085,2.8812,2.7415,2.5892,2.4408,2.4292,2.3564,2.2002,2.1877,2.1101,1.9299,1.7522,1.6558,1.6558,1.4665,1.3215,1.2151,1.1218,0.9734,0.7783,0.7783,0.7249,0.6261,0.6261,0.5709,0.4608,0.3513,0.2501,0.1485,0.0382,0.0,0.0,0.0,0.0,0.0,0.0,0.0,-0.0219,-0.1275,-0.1634,-0.1827,-0.2848,-0.445,-0.6061,-0.6217,-0.6338,-0.6338,-0.6338,-0.6338,-0.6025,-0.4999,-0.4688,-0.4453,-0.3357,-0.3124,-0.3124,-0.3124,-0.3124,-0.3124,-0.3124,-0.3124,-0.2812,-0.1802,-0.1646,-0.1254,-0.0157,0.0,0.0,0.0,0.0,0.0,0.0,0.0,0.0,0.0,0.0,0.0,0.0,0.0,0.0,0.0,0.0,0.0,0.0,0.0,0.0,0.0,0.0,0.0,2.5511,2.5486,2.5447,2.5466,2.5505,2.5544,2.5567,2.5613,2.5676,2.5702,2.5633,2.5576,2.5609,2.5474,2.5569,2.6178,2.6395,2.6612,2.7047,2.8127,2.8923,2.9009,2.92,2.8979,2.8062,2.7098,2.6283,2.5837,2.4851,2.4047,2.3564,2.2482,2.1101,1.9365,1.8757,1.7862,1.6627,1.5367,1.4227,1.3215,1.1594,1.0115,0.8765,0.8089,0.7253,0.6338,0.6338,0.5709,0.4686,0.4295,0.3174,0.1601,0.119,0.0657,0.0,0.0,0.0,0.0,0.0,0.0,-0.0072,-0.0373,-0.0881,-0.1498,-0.1938,-0.3467,-0.5147,-0.52,-0.5237,-0.5002,-0.4295,-0.4139,-0.4059,-0.3671,-0.3593,-0.3513,-0.3202,-0.3124,-0.3124,-0.3124,-0.3124,-0.289,-0.219,-0.2113,-0.1723,-0.0628,-0.0471,-0.0392,-0.0079,0.0,0.0,0.0,0.0,0.0,0.0,0.0,0.0,0.0,0.0,0.0,0.0,0.0,0.0,0.0,0.0,0.0,0.0,0.0,0.0,0.0,0.0,0.0,2.4955,2.5265,2.5503,2.5503,2.556,2.5601,2.5601,2.5649,2.5703,2.5703,2.5613,2.5541,2.5553,2.5447,2.5514,2.6072,2.6399,2.6703,2.7028,2.8203,2.8997,2.9013,2.912,2.8672,2.7413,2.7083,2.6654,2.6122,2.5231,2.4567,2.4292,2.304,2.1553,1.9814,1.9497,1.8412,1.6636,1.5658,1.4673,1.3673,1.2124,1.0864,0.982,0.8841,0.7783,0.6872,0.649,0.5944,0.0,0.4844,0.3699,0.2109,0.1762,0.0932,0.0,0.0,0.0,0.0,0.0,0.0,0.0,0.0,-0.0362,-0.093,-0.1418,-0.2732,-0.4058,-0.4121,-0.4062,-0.3904,-0.3279,-0.3124,-0.2968,-0.2657,-0.2503,-0.2423,-0.2033,-0.1955,-0.1955,-0.1955,-0.1955,-0.1721,-0.1097,-0.102,-0.0784,-0.0079,0.0,0.0,0.0,0.0,0.0,0.0,0.0,0.0,0.0,0.0,0.0,0.0,0.0,0.0,0.0,0.0,0.0,0.0,0.0,0.0,0.0,0.0,0.0,0.0,0.0,0.0,0.0,2.4764,2.5444,2.5503,2.5549,2.5601,2.5601,2.5644,0.0,2.5683,2.5624,2.5582,2.5582,2.5486,2.5409,2.5457,2.6159,2.6749,2.694,2.8126,2.9003,2.9108,2.887,2.8168,2.6887,2.7194,2.6887,2.5534,2.5329,2.501,2.4328,2.3479,2.2262,2.0655,1.9814,1.8546,1.6706,1.572,1.4736,1.3818,1.2806,1.1768,1.0783,0.982,0.8841,0.7783,0.6795,0.6338,0.6257,0.5237,0.4162,0.3086,0.2133,0.1077,0.007,0.0,0.0,0.0,0.0,0.0,0.0,0.0,0.0,-0.022,-0.12,-0.2225,-0.2968,-0.2968,-0.2968,-0.2968,-0.289,-0.289,-0.2656,-0.1723,-0.1489,-0.1176,-0.0236,0.0,0.0,0.0,0.0,0.0,0.0,0.0,0.0,0.0,0.0,0.0,0.0,0.0,0.0,0.0,0.0,0.0,0.0,0.0,0.0,0.0,0.0,0.0,0.0,0.0,0.0,0.0,0.0,0.0,0.0,0.0,0.0,0.0,0.0,0.0,2.2406,0.0,2.4818,2.5483,2.5638,2.5601,0.0,2.5564,2.5551,2.5551,2.5485,2.5659,2.6303,2.5822,2.5755,2.7063,2.7467,2.7612,2.766,2.8164,2.8508,2.8373,2.7923,2.7344,2.6561,2.6243,2.592,2.5565,2.4586,2.4104,2.4382,2.3166,2.1886,2.0643,2.0398,1.942,1.7716,1.6018,1.5092,1.4807,1.3091,1.1768,1.0783,1.0565,0.9513,0.7783,0.7557,0.7022,0.6261,0.6025,0.5316,0.4215,0.3147,0.2112,0.1119,0.0281,0.0,0.0,0.0,0.0,0.0,0.0,0.0,-0.0073,-0.03,-0.1077,-0.1957,-0.1957,-0.1957,-0.1801,-0.0941,-0.0706,-0.0706,-0.0471,-0.0392,-0.0314,-0.0079,0.0,0.0,0.0,0.0,0.0,0.0,0.0,0.0,0.0,0.0,0.0,0.0,0.0,0.0,0.0,0.0,0.0,0.0,0.0,0.0,0.0,0.0,0.0,0.0,0.0,0.0,0.0,0.0,0.0,0.0,0.0,0.0,0.0,0.0,0.0,2.1793,2.3125,2.4512,2.498,2.5347,2.5601,2.5601,2.5548,2.5498,2.5498,2.5443,2.5534,2.6014,2.5761,2.5874,2.7119,2.7489,2.801,2.9114,2.9017,2.8896,2.9045,2.8345,2.7599,2.6844,2.6287,2.5955,2.5955,2.4482,2.3741,2.4044,2.2929,2.1822,2.0807,2.0658,1.9541,1.7354,1.5939,1.495,1.4522,1.3025,1.1996,1.1465,1.1013,0.9959,0.8466,0.8012,0.7249,0.6338,0.6338,0.5704,0.467,0.4068,0.2945,0.1564,0.0914,0.0417,0.0,0.0,0.0,0.0,0.0,0.0,0.0,0.0,-0.0385,-0.0863,-0.0863,-0.0863,-0.0706,-0.0157,0.0,0.0,0.0,0.0,0.0,0.0,0.0,0.0,0.0,0.0,0.0,0.0,0.0,0.0,0.0,0.0,0.0,0.0,0.0,0.0,0.0,0.0,0.0,0.0,0.0,0.0,0.0,0.0,0.0,0.0,0.0,0.0,0.0,0.0,0.0,0.0,0.0,0.0,0.0,0.0,0.0,2.1653,2.3017,2.4228,2.4346,2.498,2.5563,2.5563,0.0,0.0,0.0,2.5428,2.5389,2.5444,2.5672,2.6015,2.6581,2.704,2.8027,3.01,2.9539,2.9095,2.9607,2.8813,2.7881,2.7097,2.6444,2.6112,2.6112,2.4457,2.3455,2.345,2.2662,2.177,2.0878,2.071,1.9468,1.688,1.5764,1.4736,1.3882,1.2806,1.2305,1.2305,1.1391,1.049,0.9448,0.8466,0.748,0.649,0.6338,0.5794,0.4922,0.4771,0.3507,0.1823,0.1633,0.0913,0.0,0.0,0.0,0.0,0.0,0.0,0.0,0.0,0.0,0.0,0.0,0.0,0.0,0.0,0.0,0.0,0.0,0.0,0.0,0.0,0.0,0.0,0.0,0.0,0.0,0.0,0.0,0.0,0.0,0.0,0.0,0.0,0.0,0.0,0.0,0.0,0.0,0.0,0.0,0.0,0.0,0.0,0.0,0.0,0.0,0.0,0.0,0.0,0.0,0.0,0.0,0.0,0.0,0.0,0.0,2.1591,2.253,2.346,2.4152,2.4888,2.5428,2.5428,2.539,0.0,0.0,2.5322,2.5395,2.5682,2.6129,2.6584,2.6968,2.7177,2.75,2.804,2.7526,2.7127,2.7233,2.6753,2.6346,2.618,2.5306,2.4715,2.4715,2.3541,2.2791,2.2774,2.2085,2.1285,2.0333,2.0724,2.0065,1.826,1.618,1.5092,1.495,1.3164,1.2305,1.2298,1.215,1.1539,1.0484,0.9518,0.8466,0.748,0.6644,0.617,0.5989,0.5052,0.3982,0.2769,0.1897,0.0928,0.0,0.0,0.0,0.0,0.0,0.0,0.0,0.0,0.0,0.0,0.0,0.0,0.0,0.0,0.0,0.0,0.0,0.0,0.0,0.0,0.0,0.0,0.0,0.0,0.0,0.0,0.0,0.0,0.0,0.0,0.0,0.0,0.0,0.0,0.0,0.0,0.0,0.0,0.0,0.0,0.0,0.0,0.0,0.0,0.0,0.0,0.0,0.0,0.0,0.0,0.0,0.0,0.0,0.0,0.0,2.1015,2.2058,2.3122,2.3467,2.4486,2.536,2.5264,2.5187,2.5141,2.5141,2.5141,2.513,2.5149,2.5785,2.6414,2.6814,2.7513,2.8069,2.8279,2.7864,2.7589,2.7857,2.7173,2.6607,2.6401,2.5433,2.4831,2.4831,2.3492,2.2534,2.2125,2.1773,2.1248,2.0496,2.0553,1.9989,1.8848,1.684,1.5641,1.5163,1.363,1.2652,1.2298,1.2138,1.1627,1.0708,0.9744,0.8689,0.7706,0.6718,0.6338,0.6261,0.5786,0.4852,0.3749,0.2597,0.154,0.0683,0.0675,0.0404,0.0,0.0,0.0,0.0,0.0,0.0,0.0,0.0,0.0,0.0,0.0,0.0,0.0,0.0,0.0,0.0,0.0,0.0,0.0,0.0,0.0,0.0,0.0,0.0,0.0,0.0,0.0,0.0,0.0,0.0,0.0,0.0,0.0,0.0,0.0,0.0,0.0,0.0,0.0,0.0,0.0,0.0,0.0,0.0,0.0,0.0,0.0,0.0,0.0,0.0,0.0,0.0,2.0443,2.1705,2.3007,2.315,2.4284,2.532,2.512,2.5031,2.5037,2.5197,2.5222,2.5208,2.5137,2.5782,2.6513,2.7043,2.7906,2.8524,2.8532,2.8298,2.8219,2.8481,2.7792,2.7147,2.6758,2.5783,2.5221,2.5221,2.3791,2.2634,2.1946,2.174,2.1353,2.0716,2.0471,1.9876,1.8944,1.7686,1.6419,1.5186,1.3816,1.2861,1.238,1.208,1.1618,1.1003,0.9798,0.8846,0.8084,0.6795,0.6338,0.6338,0.6338,0.5524,0.4377,0.3122,0.2263,0.1608,0.1407,0.0873,0.027,0.0069,0.0,0.0,0.0,0.0,0.0,0.0,0.0,0.0,0.0,0.0,0.0,0.0,0.0,0.0,0.0,0.0,0.0,0.0,0.0,0.0,0.0,0.0,0.0,0.0,0.0,0.0079,0.0314,0.0157,0.0079,0.0314,0.0164,0.0,0.0,0.0,0.0,0.0,0.0,0.0,0.0,0.0,0.0,0.0,0.0,0.0,0.0,0.0,0.0,0.0,0.0,0.0,2.0216,2.1623,2.3093,2.3832,2.4678,2.5253,2.5053,2.4998,2.519,2.58,2.5925,2.6067,2.654,2.706,2.7644,2.8351,2.8324,2.8049,2.7504,2.7695,2.7811,2.7478,2.7352,2.7147,2.6758,2.5783,2.5221,2.5221,2.4184,2.3275,2.2649,2.2049,2.141,2.0812,2.073,1.9915,1.8371,1.87,1.7708,1.5272,1.3549,1.2698,1.266,1.2172,1.1877,1.1696,1.0027,0.9221,0.9069,0.7099,0.6338,0.6338,0.6338,0.5544,0.4344,0.317,0.2674,0.2477,0.1608,0.1274,0.1074,0.027,0.0,0.0,0.0,0.0,0.0,0.0,0.0,0.0,0.0,0.0,0.0,0.0,0.0,0.0,0.0,0.0,0.0,0.0,0.0,0.0,0.0,0.0,0.0,0.0,0.0,0.0392,0.1333,0.0628,0.0392,0.1411,0.0573,0.0,0.0,0.0,0.0,0.0,0.0,0.0,0.0,0.0,0.0,0.0,0.0,0.0,0.0,0.0,0.0,0.0,0.0,0.0,1.9516,2.1114,2.2819,2.3189,2.4216,0.0,2.4904,2.4883,2.5096,2.5842,2.589,2.6149,2.7289,2.7063,2.7058,2.8166,2.7951,2.7637,2.7678,2.7589,2.747,2.7334,2.7083,2.6873,2.6725,2.5783,2.5221,2.5221,2.4199,2.3334,2.274,2.2053,2.1424,2.0795,2.0361,1.9412,1.7857,1.8047,1.7196,1.5336,1.4469,1.3615,1.2714,1.2282,1.1601,1.0688,0.9494,0.8709,0.8058,0.6827,0.6338,0.624,0.6051,0.563,0.5154,0.4603,0.3984,0.348,0.3078,0.2609,0.2014,0.1096,0.0843,0.0865,0.0962,0.0986,0.1162,0.1717,0.1955,0.1643,0.0314,0.0471,0.0863,0.0157,0.0471,0.0784,0.0157,0.0,0.0,0.0,0.0,0.0,0.0,0.0549,0.102,0.102,0.1566,0.2111,0.2501,0.2189,0.2111,0.2501,0.1633,0.1367,0.2138,0.1522,0.1433,0.2147,0.0807,0.0,0.0,0.0,0.0,0.0,0.0,0.0,0.0,0.0,0.0,0.0,0.0,0.0,1.9341,2.1147,2.2996,2.3002,0.0,2.4949,2.4741,2.476,2.5062,2.5991,2.6561,2.7196,2.82,2.7628,2.7335,2.8225,2.7968,2.7747,2.802,2.7805,2.7601,2.75,2.7147,2.6841,2.6725,2.5944,2.5449,2.5449,2.4471,2.3651,2.3245,2.2257,2.152,2.1113,2.0245,1.9097,1.7633,1.7578,1.6856,1.542,1.5166,1.4257,1.2787,1.2382,1.1525,1.0337,0.9248,0.8413,0.7779,0.6592,0.6115,0.6091,0.5833,0.5674,0.5569,0.5416,0.5024,0.4417,0.4082,0.3613,0.2954,0.2054,0.1765,0.1823,0.2004,0.206,0.219,0.289,0.3124,0.2734,0.1331,0.1488,0.1879,0.1175,0.1566,0.1801,0.0706,0.0471,0.0471,0.0471,0.0471,0.0628,0.094,0.1566,0.2035,0.2035,0.2657,0.3202,0.3591,0.3279,0.3142,0.319,0.2549,0.2559,0.3558,0.2858,0.2681,0.357,0.2057,0.1165,0.1165,0.0807,0.0539,0.0539,0.018,0.0,0.0,0.0,0.0,0.0,0.0,0.0,1.9778,2.1848,2.3731,2.3534,2.4246,2.4911,2.4591,2.4654,2.5139,2.6348,2.8096,2.9394,2.9412,2.9071,2.8815,2.8796,2.8567,2.8394,2.842,2.8394,2.8264,2.7954,2.753,2.7147,2.6758,2.6262,2.6013,2.6013,2.5012,2.4389,2.4389,2.2684,2.1697,2.1697,2.0471,1.9097,1.7633,1.7578,1.6856,1.541,1.541,1.4569,1.2956,1.2419,1.1747,1.087,0.9289,0.8624,0.8413,0.6579,0.58,0.5786,0.5644,0.5589,0.5569,0.5416,0.5428,0.5292,0.435,0.4015,0.3882,0.3011,0.278,0.2904,0.2904,0.3006,0.3122,0.3122,0.3122,0.3124,0.3124,0.3124,0.3124,0.3124,0.3124,0.2813,0.1802,0.1568,0.1568,0.1646,0.1646,0.1958,0.289,0.3124,0.3124,0.3124,0.3124,0.3513,0.4608,0.3826,0.3182,0.3418,0.335,0.341,0.3645,0.3659,0.3659,0.3659,0.3659,0.3659,0.357,0.2413,0.179,0.179,0.0628,0.0,0.0,0.0,0.0,0.0,0.0,0.0,1.9245,2.0942,2.2691,2.2785,2.3742,2.462,2.451,2.4654,2.5186,2.6525,2.7697,2.8667,2.9301,2.8929,2.8682,2.9151,2.8772,2.8496,2.8773,2.8386,2.7992,2.7926,2.7303,2.6841,2.6725,2.6262,2.6013,2.6013,2.5335,2.4776,2.443,2.304,2.2094,2.1697,2.0471,1.9097,1.7633,1.7578,1.6856,1.541,1.541,1.4569,1.3009,1.287,1.1663,0.9792,0.9376,0.8523,0.7306,0.625,0.5742,0.5647,0.5606,0.5525,0.5423,0.5446,0.5428,0.5359,0.509,0.4957,0.4821,0.3882,0.3635,0.367,0.3813,0.3951,0.4261,0.4949,0.5245,0.5315,0.5315,0.5315,0.4768,0.2582,0.2579,0.2813,0.1802,0.1568,0.1802,0.2501,0.2657,0.2735,0.3046,0.3748,0.4217,0.4217,0.4844,0.5473,0.5786,0.555,0.5375,0.554,0.4894,0.4831,0.5837,0.531,0.5176,0.5977,0.6065,0.5351,0.3659,0.3215,0.2681,0.179,0.1433,0.0807,0.0,0.0,0.0,0.0,0.0,0.0,2.0036,2.1387,2.2726,2.3088,2.3843,2.4495,2.4495,2.4771,2.5274,2.6135,2.6931,2.7673,2.819,2.8223,2.8286,2.8682,2.8695,2.8658,2.8749,2.8255,2.784,2.7678,2.7083,2.6691,2.6691,2.6436,2.6297,2.6297,2.5598,2.5067,2.4752,2.3127,2.2016,2.1697,2.0471,1.9097,1.7633,1.7578,1.6856,1.541,1.541,1.4569,1.3009,1.3009,1.1834,0.9792,0.9557,0.8424,0.6764,0.6333,0.5913,0.5498,0.5498,0.5443,0.5428,0.5428,0.5428,0.5428,0.5428,0.5428,0.5296,0.4755,0.4572,0.4674,0.4746,0.4885,0.5117,0.5715,0.6006,0.6091,0.6152,0.6169,0.5717,0.3902,0.3908,0.4062,0.3051,0.2817,0.3049,0.3593,0.3748,0.3904,0.4295,0.4921,0.5315,0.5315,0.5867,0.6338,0.6338,0.6338,0.6339,0.6539,0.5982,0.602,0.6907,0.6383,0.634,0.7051,0.7139,0.6422,0.5085,0.455,0.3929,0.3218,0.2771,0.2147,0.1433,0.1433,0.1165,0.0718,0.0718,0.0449,2.1533,2.2539,2.3328,2.3953,2.4284,2.4478,2.4478,2.4894,2.5311,2.5404,2.5991,2.6521,2.6594,2.72,2.7677,2.7677,2.8301,2.8644,2.8297,2.7915,2.756,2.7274,2.6869,2.6623,2.6691,2.6691,2.6691,2.6691,2.5819,2.5259,2.5221,2.304,2.1744,2.1697,2.0471,1.9097,1.7633,1.7578,1.6856,1.541,1.541,1.4569,1.3009,1.3009,1.2089,1.0555,0.9658,0.842,0.6915,0.6785,0.6203,0.5491,0.5428,0.5428,0.5428,0.5428,0.5428,0.5428,0.5428,0.5428,0.5428,0.5428,0.5457,0.5569,0.5569,0.5671,0.5783,0.5783,0.5789,0.5833,0.5973,0.602,0.6064,0.6207,0.6251,0.5867,0.4921,0.4688,0.4766,0.4844,0.4844,0.5157,0.6103,0.6338,0.6338,0.6338,0.6338,0.6338,0.6338,0.6338,0.6369,0.6651,0.6692,0.6814,0.7095,0.7132,0.7139,0.7139,0.7139,0.7139,0.7139,0.6071,0.5536,0.5359,0.4285,0.3748,0.357,0.357,0.3037,0.1969,0.1879,0.1255,2.1111,2.1816,2.2455,2.3223,2.384,2.4247,2.4247,2.4357,2.467,2.5468,2.565,2.5841,2.6484,2.6741,2.6869,2.6869,2.6998,2.7105,2.698,2.644,2.6215,2.6757,2.6255,2.6065,2.664,2.6691,2.6691,2.6691,2.6139,2.5652,2.5221,2.3357,2.214,2.1697,2.0471,1.9097,1.7633,1.7578,1.6856,1.541,1.541,1.4569,1.3009,1.3009,1.2089,1.0555,0.9658,0.9075,0.8613,0.7242,0.6588,0.6334,0.5686,0.5428,0.5428,0.5428,0.5428,0.5428,0.5428,0.5428,0.5428,0.5428,0.5452,0.541,0.541,0.5515,0.5637,0.5637,0.5715,0.581,0.584,0.5939,0.6037,0.6071,0.5549,0.4999,0.4766,0.4688,0.4921,0.5786,0.5944,0.6025,0.6261,0.6338,0.6338,0.6338,0.6338,0.6338,0.6338,0.6338,0.6329,0.6502,0.6627,0.6773,0.6959,0.7078,0.7139,0.7139,0.7139,0.7139,0.7139,0.6874,0.6337,0.5447,0.5179,0.4552,0.357,0.357,0.3481,0.3215,0.2236,0.1701,2.1293,2.1784,2.2256,2.3396,2.3934,2.419,2.419,2.419,2.4357,2.4875,2.4911,2.4942,2.5364,2.5768,2.6025,2.6025,2.6355,2.653,2.634,2.5967,2.5839,2.6091,2.6127,2.6182,2.6407,2.6749,2.6906,2.6725,2.6016,2.5486,2.5221,2.3243,2.1969,2.1697,2.0471,1.9097,1.7633,1.7578,1.6856,1.541,1.541,1.4569,1.2948,1.2212,1.1358,1.0561,1.011,0.9658,0.921,0.8291,0.7437,0.6654,0.6203,0.5752,0.5428,0.5428,0.5428,0.5428,0.5428,0.5428,0.5428,0.5428,0.5428,0.5428,0.5428,0.5416,0.5481,0.5481,0.5535,0.5606,0.5681,0.5759,0.5854,0.5996,0.5759,0.5473,0.5473,0.5473,0.5628,0.6183,0.6338,0.6338,0.6338,0.6338,0.6338,0.6338,0.6338,0.6338,0.6338,0.6338,0.6342,0.6559,0.6654,0.679,0.701,0.7099,0.7139,0.7139,0.7139,0.7139,0.7139,0.7139,0.6782,0.6248,0.6248,0.5891,0.5262,0.5262,0.4996,0.4463,0.384,0.3217,2.1475,2.2036,2.2537,2.3879,2.419,2.419,2.419,2.419,2.419,2.419,2.419,2.419,2.419,2.474,2.5201,2.5201,2.575,2.6088,2.5728,2.5641,2.553,2.5322,2.5843,2.6107,2.5868,2.6437,2.6673,2.6352,2.5573,2.5121,2.5006,2.3083,2.1876,2.1558,2.0427,1.9108,1.7662,1.7499,1.6826,1.5575,1.5167,1.4273,1.2948,1.1358,1.0624,1.0624,1.0624,1.0174,0.953,0.9338,0.842,0.7111,0.685,0.6268,0.5624,0.5425,0.5428,0.5428,0.5428,0.5428,0.5428,0.5428,0.5428,0.5428,0.5428,0.5428,0.5428,0.5428,0.5428,0.5459,0.5518,0.5569,0.565,0.5895,0.6091,0.623,0.6254,0.6338,0.6338,0.6338,0.6338,0.6338,0.6338,0.6338,0.6338,0.6338,0.6338,0.6338,0.6338,0.6338,0.6373,0.6668,0.6702,0.682,0.7115,0.7139,0.7139,0.7139,0.7139,0.7139,0.7139,0.7139,0.7139,0.7139,0.7139,0.7139,0.7139,0.7139,0.6605,0.5716,0.5447,0.4821,2.0872,2.2149,2.3223,2.4008,2.419,2.419,2.419,2.419,2.419,2.419,2.419,2.419,2.419,2.4281,2.4355,2.4355,2.4447,2.4501,2.4443,2.4184,2.4118,2.4421,2.4348,2.4395,2.4683,2.4805,2.4856,2.4811,2.4813,2.4671,2.4265,2.3594,2.2585,2.107,2.0315,1.9291,1.7883,1.7206,1.6732,1.6322,1.4314,1.3191,1.2948,1.1358,1.0624,1.0624,1.0624,1.0561,1.0364,0.9594,0.9139,0.8812,0.7307,0.6654,0.6461,0.5686,0.5428,0.5428,0.5428,0.5428,0.5428,0.5428,0.5428,0.5428,0.5428,0.5428,0.5428,0.5428,0.5428,0.5432,0.5452,0.5491,0.5599,0.564,0.5861,0.6098,0.6234,0.6338,0.6338,0.6338,0.6338,0.6338,0.6338,0.6338,0.6338,0.6338,0.6338,0.6338,0.6338,0.6338,0.6373,0.6668,0.6702,0.682,0.7115,0.7139,0.7139,0.7139,0.7139,0.7139,0.7139,0.7139,0.7139,0.7139,0.7139,0.7139,0.7139,0.7139,0.7051,0.6874,0.5894,0.5359,2.1244,2.2464,2.3353,2.4026,2.419,2.419,2.419,2.419,2.419,2.419,2.419,2.419,2.419,2.419,2.419,2.419,2.419,2.4133,2.3955,2.3795,2.371,2.3691,2.3985,2.4173,2.415,2.4562,2.4731,2.4506,2.4298,2.3992,2.3567,2.2769,2.171,2.0374,1.9758,1.8814,1.7452,1.6797,1.6169,1.5501,1.3579,1.299,1.3606,1.1538,1.0624,1.0624,1.0624,1.0624,1.0561,1.0174,0.9722,0.9204,0.7897,0.7111,0.6588,0.5752,0.5428,0.5428,0.5428,0.5428,0.5428,0.5428,0.5428,0.5428,0.5428,0.5428,0.5428,0.5428,0.5428,0.5428,0.5428,0.541,0.5484,0.5569,0.5749,0.5942,0.6098,0.62,0.6338,0.6338,0.6338,0.6338,0.6338,0.6338,0.6338,0.6338,0.6338,0.6338,0.6338,0.6338,0.6342,0.6549,0.6651,0.679,0.7004,0.7095,0.7139,0.7139,0.7139,0.7139,0.7139,0.7139,0.7139,0.7139,0.7139,0.7139,0.7139,0.7139,0.7139,0.7051,0.6605,0.634,2.1429,2.244,2.3103,2.3786,2.4062,2.419,2.419,2.419,2.419,2.419,2.419,2.419,2.419,2.419,2.419,2.419,2.419,2.4113,2.3858,2.3735,2.3566,2.3236,2.3654,2.3841,2.3522,2.404,2.4253,2.3947,2.3632,2.3242,2.2847,2.1957,2.0921,1.9709,1.9141,1.8285,1.7171,1.652,1.575,1.484,1.3402,1.32,1.4001,1.1866,1.0926,1.0863,1.0688,1.0624,1.0624,1.0624,1.0238,0.953,0.8678,0.7832,0.6915,0.6075,0.5624,0.5428,0.5428,0.5428,0.5428,0.5428,0.5428,0.5428,0.5428,0.5428,0.5428,0.5428,0.5428,0.5428,0.5428,0.5428,0.5456,0.5504,0.5671,0.5854,0.6047,0.6179,0.6338,0.6338,0.6338,0.6338,0.6338,0.6338,0.6338,0.6338,0.6338,0.6338,0.6338,0.6338,0.6315,0.6458,0.661,0.6763,0.6915,0.7058,0.7139,0.7139,0.7139,0.7139,0.7139,0.7139,0.7139,0.7139,0.7139,0.7139,0.7139,0.7139,0.7139,0.7139,0.7139,0.7139,2.0831,2.1727,2.2403,2.3082,2.373,2.419,2.419,2.419,2.419,2.419,2.419,2.419,2.419,2.419,2.419,2.419,2.419,2.419,2.417,2.3896,2.3566,2.3236,2.2958,2.2677,2.2417,2.2423,2.2457,2.2429,2.2632,2.254,2.2061,2.1824,2.0892,1.9183,1.8638,1.8017,1.7368,1.6604,1.5793,1.507,1.4007,1.3588,1.3615,1.2292,1.1772,1.171,1.0926,1.0624,1.0624,1.0624,1.0561,1.0434,0.9594,0.8683,0.7832,0.6981,0.6141,0.5428,0.5428,0.5428,0.5428,0.5428,0.5428,0.5428,0.5428,0.5428,0.5428,0.5428,0.5428,0.5428,0.5428,0.5428,0.5428,0.5439,0.5593,0.5884,0.6186,0.6254,0.6338,0.6338,0.6338,0.6338,0.6338,0.6338,0.6338,0.6338,0.6338,0.6338,0.6338,0.6338,0.6315,0.6458,0.661,0.6763,0.6915,0.7058,0.7139,0.7139,0.7139,0.7139,0.7139,0.7139,0.7139,0.7139,0.7139,0.7139,0.7139,0.7139,0.7139,0.7139,0.7139,0.7139,2.0012,2.0918,2.1712,2.2912,2.3144,2.324,2.3749,2.3714,2.3566,2.3566,2.3566,2.3566,2.3566,2.3917,2.419,2.419,2.419,2.4113,2.3917,2.3774,2.3566,2.3236,2.2898,2.2643,2.2563,2.2398,2.231,2.231,2.2102,2.1805,2.1375,2.1007,2.0094,1.8504,1.8262,1.7547,1.6256,1.5556,1.5055,1.4662,1.3374,1.3305,1.4326,1.2831,1.2305,1.2512,1.1717,1.1108,1.0624,1.0624,1.0624,1.0498,0.9658,0.9139,0.8748,0.7827,0.6985,0.6203,0.6203,0.5881,0.5428,0.5428,0.5428,0.5428,0.5428,0.5428,0.5428,0.5428,0.5428,0.5428,0.5428,0.5428,0.5476,0.5599,0.5725,0.5884,0.6193,0.6338,0.6338,0.6338,0.6338,0.6338,0.6338,0.6338,0.6338,0.6338,0.6338,0.6338,0.6338,0.6338,0.6281,0.6332,0.6468,0.6617,0.677,0.6919,0.7044,0.7136,0.7139,0.7139,0.7139,0.7139,0.7139,0.7139,0.7139,0.7139,0.7139,0.7139,0.7139,0.7139,0.7139,0.7139,1.9304,2.0318,2.1305,2.254,2.2553,2.2529,2.3479,2.3325,2.3003,2.3177,2.3189,2.3189,2.3189,2.3566,2.3858,2.3858,2.3858,2.3795,2.3566,2.3455,2.3277,2.3069,2.2764,2.2563,2.2563,2.2398,2.231,2.231,2.1735,2.1275,2.0991,2.0265,1.9222,1.7854,1.7666,1.6941,1.5632,1.5017,1.4529,1.4171,1.3195,1.3265,1.4311,1.2907,1.2356,1.257,1.1564,1.0854,1.0421,1.0521,1.0501,1.0421,0.9945,0.953,0.921,0.8678,0.7897,0.7111,0.6785,0.6334,0.5815,0.5491,0.5428,0.5428,0.5428,0.5428,0.5428,0.5428,0.5428,0.5428,0.5428,0.5428,0.5557,0.6014,0.6257,0.6444,0.7021,0.6678,0.6338,0.6338,0.6338,0.6338,0.6338,0.6338,0.6338,0.6338,0.6338,0.6338,0.6338,0.6338,0.6338,0.6338,0.6386,0.6512,0.6614,0.6763,0.6892,0.6987,0.6993,0.6993,0.6993,0.7041,0.7068,0.7068,0.7115,0.7139,0.7139,0.7139,0.7139,0.7139,0.7139,0.7139,0.0,0.0,0.0,2.1964,2.1953,2.2081,2.334,2.3022,2.2575,2.3041,2.3153,2.3147,2.3165,2.3165,2.3165,2.3165,2.3189,2.3189,2.3189,2.2923,2.2721,2.2721,2.249,2.231,2.231,2.231,2.231,2.231,2.1493,2.0991,2.0991,1.9656,1.8419,1.7353,1.6795,1.6238,1.5632,1.5017,1.4422,1.3826,1.3571,1.3496,1.3464,1.2384,1.1886,1.1839,1.0351,0.984,1.0114,1.0414,1.0367,1.0134,1.0421,1.0085,0.9326,0.9326,0.8807,0.7897,0.7046,0.6785,0.6588,0.5752,0.5495,0.5495,0.5495,0.5495,0.5495,0.5495,0.5495,0.5491,0.5428,0.5428,0.5663,0.6691,0.7142,0.7606,0.8592,0.7484,0.6331,0.6335,0.6338,0.6338,0.6338,0.6338,0.6338,0.6338,0.6338,0.6338,0.6338,0.6338,0.6338,0.6338,0.6383,0.6468,0.6471,0.661,0.6695,0.6702,0.6702,0.6702,0.6702,0.6848,0.6929,0.6929,0.7068,0.7139,0.7139,0.7139,0.7139,0.7139,0.7139,0.7139,1.801,0.0,0.0,0.0,0.0,0.0,2.1762,2.1598,2.1397,2.1871,2.1955,2.2096,2.2468,2.2561,2.2561,2.2561,2.2908,2.3189,2.3189,2.3117,2.3069,2.3069,2.2789,2.2616,2.2651,2.2443,2.231,2.231,2.1764,2.1306,2.1039,1.9302,1.8185,1.7907,1.6993,1.6423,1.6238,1.5197,1.4617,1.4422,1.3504,1.3213,1.3455,1.2711,1.2152,1.1839,1.0956,1.0158,0.9449,0.98,0.988,0.9813,0.9893,0.9933,0.9865,0.9865,0.9487,0.8877,0.8683,0.8156,0.7572,0.7377,0.7312,0.7312,0.7312,0.7312,0.7312,0.7312,0.7312,0.7116,0.6527,0.633,0.644,0.6827,0.7455,0.8034,0.8448,0.7724,0.7088,0.7298,0.6795,0.6338,0.6338,0.6338,0.6338,0.6338,0.6338,0.6338,0.6338,0.6338,0.6338,0.6338,0.6295,0.6363,0.6464,0.6512,0.6583,0.6695,0.6702,0.6702,0.6702,0.6848,0.6929,0.6929,0.7068,0.7139,0.7139,0.7139,0.7139,0.7139,0.7139,0.7139,1.8267,1.9047,2.0058,2.0809,0.0,0.0,2.1335,2.1182,2.1008,2.1704,2.1823,2.1924,2.2254,2.231,2.231,2.231,2.2598,2.2824,2.2824,2.2824,2.2824,2.2824,2.2643,2.2554,2.2588,2.2405,2.231,2.231,2.1705,2.1086,2.0481,1.9185,1.8341,1.8106,1.7271,1.6612,1.6151,1.5197,1.456,1.4329,1.3382,1.3008,1.3242,1.2508,1.2095,1.1814,1.1126,1.0324,0.9491,0.9673,0.9659,0.9512,0.9633,0.986,1.0114,1.0114,0.9991,0.9786,0.9402,0.8947,0.8484,0.8091,0.8027,0.8027,0.8027,0.8027,0.8027,0.8027,0.8027,0.7897,0.7372,0.7242,0.7335,0.7792,0.8364,0.8945,0.9417,0.9004,0.8396,0.771,0.6896,0.6338,0.6338,0.6338,0.6338,0.6338,0.6338,0.6338,0.6338,0.6338,0.6338,0.6338,0.6338,0.6295,0.6376,0.6383,0.6424,0.6512,0.6519,0.6519,0.6519,0.6661,0.677,0.6831,0.6976,0.7082,0.7139,0.7139,0.7139,0.7139,0.7139,0.7139,1.9023,1.9558,2.0259,2.0739,2.0351,0.0,2.1455,2.1231,2.1022,2.1884,2.2058,2.2075,2.2105,2.219,2.2252,2.2139,2.2231,2.2321,2.231,2.231,2.231,2.231,2.231,2.231,2.231,2.231,2.231,2.231,2.1493,2.0665,1.9889,1.9192,1.8574,1.8145,1.7504,1.6714,1.572,1.5005,1.4422,1.3909,1.3238,1.2881,1.2881,1.2138,1.1814,1.1765,1.1116,1.0415,0.9814,0.9814,0.9525,0.9163,0.9479,0.9766,1.002,1.002,1.0227,1.0445,0.9679,0.9442,0.9338,0.8544,0.8285,0.8285,0.8285,0.8285,0.8285,0.8285,0.8221,0.8156,0.8156,0.8156,0.8355,0.9139,0.9575,1.0013,1.0811,1.0629,0.978,0.7961,0.6961,0.649,0.6644,0.6567,0.649,0.6644,0.6644,0.6644,0.6644,0.6644,0.6644,0.6644,0.6644,0.6644,0.6644,0.6644,0.6567,0.649,0.6567,0.6567,0.649,0.6709,0.6866,0.6861,0.6865,0.7014,0.7139,0.7139,0.7139,0.7139,0.7139,0.7139,1.9065,1.9926,2.0868,2.0202,2.0776,0.0,2.0277,2.0321,2.0536,2.0537,2.0527,2.0643,2.102,2.161,2.1861,2.1208,2.194,2.2537,2.2321,2.231,2.231,2.231,2.231,2.231,2.231,2.231,2.231,2.231,2.1493,2.0926,2.078,1.917,1.8224,1.8106,1.7146,1.6552,1.6337,1.5242,1.4652,1.4514,1.343,1.2881,1.2881,1.2138,1.1814,1.1765,1.1116,1.0415,0.9814,0.9814,0.9449,0.8898,0.8958,0.9158,0.9356,0.9356,0.9746,1.0139,1.0017,1.0105,1.0301,1.0168,1.0104,1.0104,1.0104,1.0104,1.0104,1.0104,0.9588,0.9075,0.9075,0.9075,0.9075,0.9274,0.9893,1.045,1.0648,1.0348,0.988,0.9454,0.8351,0.7783,0.8542,0.8012,0.7783,0.8618,0.8694,0.8694,0.8694,0.8694,0.8694,0.8694,0.8694,0.8694,0.8694,0.8694,0.8389,0.7553,0.8237,0.8389,0.7557,0.8416,0.8608,0.7918,0.7386,0.7112,0.7139,0.7139,0.7139,0.7139,0.7139,0.7139,1.9687,2.0003,2.0631,2.049,2.062,0.0,0.0,2.0724,2.0554,2.1453,2.1016,2.0634,2.1269,2.1406,2.1406,2.1406,2.1784,2.2254,2.2695,2.248,2.231,2.231,2.231,2.231,2.231,2.231,2.2209,2.1974,2.1354,2.0894,2.0649,1.928,1.838,1.8106,1.7312,1.6752,1.6522,1.5599,1.5017,1.4709,1.3789,1.319,1.2881,1.251,1.2344,1.2344,1.199,1.1283,1.0312,1.0312,0.9718,0.8804,0.8804,0.8985,0.9183,0.9183,0.9519,0.99,0.99,1.0094,1.0341,1.0341,1.0441,1.0624,1.0624,1.0624,1.0624,1.0624,1.0301,0.9977,0.9977,0.9977,0.9977,0.9977,1.0301,1.0665,1.0742,1.0702,1.0691,1.0829,1.0014,0.9286,0.9296,0.8917,0.8689,0.9221,0.9296,0.9296,0.9296,0.9296,0.9296,0.9296,0.9296,0.9296,0.9296,0.9296,0.9069,0.8618,0.8993,0.9069,0.8537,0.9091,0.8987,0.8242,0.7501,0.7139,0.7139,0.7139,0.7139,0.7139,0.7139,0.7139,2.0575,2.0489,2.0802,2.1032,2.0708,2.0652,0.0,0.0,0.0,2.2182,2.1526,2.0883,2.1402,2.1081,2.0901,2.1402,2.1597,2.196,2.2739,2.2633,2.2453,2.2453,2.2377,2.2321,2.236,2.2321,2.2106,2.1658,2.1213,2.0797,2.0314,1.9419,1.865,1.8145,1.7585,1.7034,1.6522,1.5908,1.5365,1.488,1.4143,1.3552,1.3065,1.2978,1.2881,1.2881,1.2881,1.2098,1.0813,1.0813,1.002,0.8804,0.8804,0.8951,0.9103,0.9103,0.9345,0.9606,0.9666,0.9873,1.0127,1.018,1.0367,1.0624,1.0624,1.0624,1.0624,1.0624,1.0624,1.0624,1.0624,1.0624,1.0624,1.0624,1.0624,1.0641,1.0929,1.1223,1.1516,1.181,1.143,1.0864,1.0045,0.975,0.9674,0.982,0.99,0.99,0.99,0.99,0.99,0.99,0.99,0.99,0.99,0.99,0.9825,0.9593,0.975,0.9825,0.9593,0.9682,0.9355,0.8483,0.7842,0.7316,0.7139,0.7316,0.7316,0.7139,0.7139,0.7139,2.1636,2.2234,2.3001,2.1486,2.199,2.2371,2.0424,0.0,2.1239,1.9998,0.0,2.0328,1.9723,0.0,0.0,1.9705,2.1168,2.218,2.1592,2.2429,2.3111,2.3111,2.2624,2.2371,2.2634,2.2453,2.2106,2.1658,2.1213,2.0797,2.0314,1.9419,1.865,1.8145,1.7585,1.7034,1.6522,1.5908,1.5588,1.5499,1.4318,1.3779,1.3684,1.3152,1.2881,1.2881,1.2881,1.2098,1.0813,1.0813,1.002,0.8804,0.8804,0.8831,0.8858,0.8858,0.9045,0.9269,0.9593,0.9873,1.016,1.0421,1.0598,1.0624,1.0624,1.0624,1.0624,1.0624,1.0624,1.0624,1.0624,1.0624,1.0624,1.0624,1.0624,1.0641,1.0929,1.1223,1.1516,1.181,1.2025,1.2077,1.2003,1.1242,1.0938,1.1848,1.1929,1.1929,1.1929,1.1929,1.1929,1.1929,1.1929,1.1929,1.1929,1.1929,1.1545,1.0714,1.1471,1.1545,1.064,1.0996,1.0701,0.9543,0.8952,0.8189,0.7139,0.8189,0.8105,0.7139,0.7139,0.7139,2.1531,2.1814,2.2258,2.1883,2.183,2.1693,2.1133,2.0655,2.0443,2.0701,0.0,0.0,0.0,0.0,0.0,0.0,2.0626,2.1241,2.1658,2.1835,2.2268,2.3267,2.3052,2.2781,2.2721,2.2463,2.2106,2.1658,2.1213,2.0797,2.0314,1.9419,1.865,1.8145,1.7585,1.7034,1.6522,1.6238,1.5964,1.5588,1.4732,1.4143,1.3779,1.32,1.2881,1.2881,1.2881,1.2098,1.0813,1.0813,1.002,0.8804,0.8804,0.8804,0.8804,0.8804,0.8884,0.9031,0.9325,0.9619,0.994,1.0408,1.0624,1.0624,1.0624,1.0624,1.0624,1.0624,1.0624,1.0624,1.0624,1.0624,1.0624,1.0624,1.0624,1.0752,1.1142,1.1336,1.1563,1.2031,1.2218,1.2305,1.2305,1.1922,1.1842,1.2224,1.2305,1.2305,1.2305,1.2305,1.2305,1.2305,1.2305,1.2305,1.2305,1.2305,1.215,1.1694,1.207,1.2077,1.1694,1.1378,1.109,1.0756,1.0011,0.9461,0.9139,0.9662,0.9662,0.9139,0.8448,0.8105,2.2154,2.2199,2.2307,2.23,2.1698,2.1152,2.1243,2.0606,2.0244,2.1235,2.0831,0.0,0.0,0.0,2.0097,2.0429,0.0,2.0806,2.1491,2.1404,2.1805,2.3246,2.3372,2.3236,2.2944,2.2599,2.2169,2.1609,2.1213,2.0764,2.0158,1.9361,1.865,1.8145,1.7585,1.7034,1.6522,1.6522,1.6194,1.5588,1.4971,1.4376,1.3779,1.32,1.2881,1.2881,1.2881,1.2206,1.1065,1.1065,1.0261,0.9061,0.9061,0.8956,0.8804,0.8804,0.8804,0.8864,0.9232,0.9606,0.9993,1.0483,1.0624,1.0624,1.0624,1.0624,1.0624,1.0624,1.0624,1.0624,1.0624,1.0624,1.0624,1.0624,1.0624,1.0722,1.1296,1.1423,1.1603,1.2191,1.2305,1.2305,1.2305,1.2305,1.2305,1.2305,1.2305,1.2305,1.2305,1.2305,1.2305,1.2305,1.2305,1.2305,1.2305,1.2305,1.2305,1.2305,1.2305,1.2305,1.2305,1.1815,1.1534,1.1478,1.0909,1.0642,1.0611,1.0869,1.1037,1.1037,0.9579,0.889,2.4245,2.4454,2.446,2.2729,2.213,2.15,1.9789,2.0609,2.1492,2.0686,2.1786,2.2648,2.1896,2.1748,2.1437,2.0631,2.1198,0.0,0.0,2.1364,2.229,2.311,2.3488,2.3638,2.3491,2.2999,2.2371,2.1556,2.1195,2.0648,1.9747,1.9207,1.865,1.8145,1.7585,1.7034,1.6522,1.6522,1.6194,1.5588,1.4971,1.4376,1.3779,1.32,1.2881,1.2881,1.2881,1.2452,1.1765,1.1765,1.0965,0.9762,0.9762,0.9361,0.8804,0.8804,0.8804,0.8891,0.9466,1.0047,1.0598,1.0618,1.0624,1.0624,1.0624,1.0624,1.0624,1.0624,1.0624,1.0624,1.0624,1.0624,1.0624,1.0624,1.0624,1.0722,1.1296,1.1423,1.1603,1.2191,1.2305,1.2305,1.2305,1.2305,1.2305,1.2305,1.2305,1.2305,1.2305,1.2305,1.2305,1.2305,1.2305,1.2305,1.2305,1.2305,1.2305,1.2305,1.2305,1.2305,1.2305,1.2585,1.2331,1.1478,1.1735,1.1399,1.0611,1.1724,1.2242,1.2151,0.9923,0.889,2.3879,2.3823,2.3465,2.3164,2.2644,2.1826,2.0431,2.0537,2.0868,2.0558,2.1418,2.2116,2.1858,2.1803,2.151,2.0631,2.0758,2.0715,0.0,2.0718,2.1486,2.1884,2.2707,2.3031,2.2553,2.2374,2.1984,2.1243,2.0765,2.0296,1.9726,1.9207,1.865,1.8145,1.7585,1.7034,1.6522,1.6522,1.638,1.6194,1.5197,1.4606,1.4376,1.3382,1.2881,1.2881,1.2881,1.2501,1.1814,1.1814,1.1015,0.9814,0.9814,0.9413,0.8804,0.8804,0.8804,0.8891,0.9479,0.994,1.0301,1.0557,1.0624,1.0624,1.0624,1.0624,1.0624,1.0624,1.0624,1.0624,1.0624,1.0624,1.0624,1.0624,1.0624,1.0722,1.1296,1.1423,1.1603,1.2191,1.2305,1.2305,1.2305,1.2305,1.2305,1.2305,1.2305,1.2305,1.2305,1.2305,1.2305,1.2305,1.2305,1.2305,1.2305,1.2305,1.2305,1.2305,1.2305,1.2305,1.2305,1.2398,1.2533,1.2625,1.2728,1.2833,1.2954,1.3294,1.347,1.347,1.1906,1.0783,2.3351,2.3225,2.2863,2.3118,2.2741,2.2077,2.1223,2.1211,2.1383,2.1383,2.2061,2.2648,2.2648,2.2409,2.1951,2.1106,2.0686,2.0289,0.0,2.0151,2.0594,2.0691,2.1836,2.2459,2.1936,2.1768,2.1431,2.0821,2.04,2.0014,1.9711,1.9006,1.8458,1.8106,1.7394,1.6837,1.6522,1.6522,1.638,1.6194,1.5152,1.4606,1.4329,1.3334,1.2881,1.2881,1.2881,1.2618,1.2187,1.2187,1.1525,1.0466,1.0269,0.9762,0.9113,0.891,0.8871,0.9031,0.9512,0.9873,1.0167,1.0461,1.0624,1.0624,1.0624,1.0624,1.0624,1.0624,1.0624,1.0624,1.0624,1.0624,1.0624,1.0624,1.0624,1.0688,1.1169,1.1356,1.157,1.2058,1.2231,1.2305,1.2305,1.2305,1.2305,1.2305,1.2305,1.2305,1.2305,1.2305,1.2305,1.2305,1.2305,1.2305,1.2305,1.2305,1.2305,1.2305,1.2305,1.2305,1.2305,1.2305,1.2585,1.32,1.3213,1.35,1.4088,1.4088,1.4088,1.4088,1.3294,1.2334]},{"header":{"parameterUnit":"m.s-1","parameterCategory":1,"la1":30.6,"la2":29.2853,"lo1":-89.7004,"lo2":-87.6739,"dy":0.0162,"dx":0.0183,"nx":112,"ny":82,"refTime":"2024-08-14T06:00:00:Z","depth":0,"parameterNumber":3,"parameterNumberName":"V-component_of_WINDS"},"data":[0.0,0.0,0.0,0.0,0.0,0.0,0.0,0.0,0.0,0.0,0.0,0.0,0.0,0.0,0.0,0.0,0.0,0.0,0.0,0.0,0.0,0.0,0.0,0.0,0.0,0.0,0.0,0.0,0.0,0.0,0.0,0.0,0.0,0.0,0.0,0.0,0.0,0.0,0.0,0.0,0.0,0.0,0.0,0.0,0.0,0.0,0.0,0.0,0.0,0.0,0.0,0.0,0.0,0.0,0.0,0.0,0.0,0.0,0.0,0.0,0.0,0.0,0.0,0.0,0.0,0.0,0.0,0.0,0.0,0.0,0.0,0.0,0.0,0.0,0.0,0.0,0.0,0.0,0.0,0.0,0.0,0.0,0.0,0.0,0.0,0.0,0.0,0.0,0.0,0.0,2.4017,2.4315,2.5392,2.612,2.612,2.5291,2.4547,2.4033,0.0,0.0,0.0,0.0,0.0,0.0,0.0,0.0,0.0,0.0,0.0,0.0,0.0,0.0,0.0,0.0,0.0,0.0,0.0,0.0,0.0,0.0,0.0,0.0,0.0,0.0,0.0,0.0,0.0,0.0,0.0,0.0,0.0,0.0,0.0,0.0,0.0,0.0,0.0,0.0,0.0,0.0,0.0,0.0,0.0,0.0,0.0,0.0,0.0,0.0,0.0,0.0,0.0,0.0,0.0,0.0,0.0,0.0,0.0,0.0,0.0,0.0,0.0,0.0,0.0,0.0,0.0,0.0,0.0,0.0,0.0,0.0,0.0,0.0,0.0,0.0,0.0,0.0,0.0,0.0,0.0,0.0,0.0,0.0,0.0,0.0,0.0,0.0,0.0,0.0,0.0,0.0,0.0,0.0,0.0,0.0,0.0,0.0,0.0,0.0,0.0,0.0,0.0,0.0,2.4514,2.6084,2.6455,2.659,2.659,2.5326,2.45,2.4413,0.0,0.0,0.0,0.0,0.0,0.0,0.0,0.0,0.0,0.0,0.0,0.0,0.0,0.0,0.0,0.0,0.0,0.0,0.0,0.0,0.0,0.0,0.0,0.0,0.0,0.0,0.0,0.0,0.0,0.0,0.0,0.0,0.0,0.0,0.0,0.0,0.0,0.0,0.0,0.0,0.0,0.0,0.0,0.0,0.0,0.0,0.0,0.0,0.0,0.0,0.0,0.0,0.0,0.0,0.0,0.0,0.0,0.0,0.0,0.0,0.0,0.0,0.0,0.0,0.0,0.0,0.0,0.0,0.0,0.0,0.0,0.0,0.0,0.0,0.0,0.0,0.0,0.0,0.0,0.0,0.0,0.0,0.0,0.0,0.0,0.0,0.0,0.0,0.0,0.0,0.0,0.0,0.0,0.0,0.0,0.0,0.0,0.0,0.0,0.0,0.0,0.0,0.0,2.4168,2.4859,2.6539,2.6691,2.6691,2.6691,2.5338,2.4506,2.4506,2.3244,0.0,0.0,0.0,0.0,0.0,0.0,0.0,0.0,0.0,0.0,0.0,0.0,0.0,0.0,0.0,0.0,0.0,0.0,0.0,0.0,0.0,0.0,0.0,0.0,0.0,0.0,0.0,0.0,0.0,0.0,0.0,0.0,0.0,0.0,0.0,0.0,0.0,0.0,0.0,0.0,0.0,0.0,0.0,0.0,0.0,0.0,0.0,0.0,0.0,0.0,0.0,0.0,0.0,0.0,0.0,0.0,0.0,0.0,0.0,0.0,0.0,0.0,0.0,0.0,0.0,0.0,0.0,0.0,0.0,0.0,0.0,0.0,0.0,0.0,0.0,0.0,0.0,0.0,0.0,0.0,0.0,0.0,0.0,0.0,0.0,0.0,0.0,0.0,0.0,0.0,0.0,0.0,0.0,0.0,0.0,0.0,0.0,0.0,0.0,0.0,0.0,0.0,2.5,2.5253,2.6556,2.6691,2.6623,2.6454,2.5236,2.4438,2.4269,2.3021,0.0,0.0,0.0,0.0,0.0,0.0,0.0,0.0,0.0,0.0,0.0,0.0,0.0,0.0,0.0,0.0,0.0,0.0,0.0,0.0,0.0,0.0,0.0,0.0,0.0,0.0,0.0,0.0,0.0,0.0,0.0,0.0,0.0,0.0,0.0,0.0,0.0,0.0,0.0,0.0,0.0,0.0,0.0,0.0,0.0,0.0,0.0,0.0,0.0,0.0,0.0,0.0,0.0,0.0,0.0,0.0,0.0,0.0,0.0,0.0,0.0,0.0,0.0,0.0,0.0,0.0,0.0,0.0,0.0,0.0,0.0,0.0,0.0,0.0,0.0,0.0,0.0,0.0,0.0,0.0,0.0,0.0,0.0,0.0,0.0,0.0,0.0,0.0,0.0,0.0,0.0,0.0,0.0,0.0,0.0,0.0,0.0,0.0,0.0,0.0,0.0,0.0,2.5118,2.5828,2.6607,2.6691,2.642,2.5744,2.4949,2.4218,2.3511,2.275,0.0,0.0,0.0,0.0,0.0,0.0,0.0,0.0,0.0,0.0,0.0,0.0,0.0,0.0,0.0,0.0,0.0,0.0,0.0,0.0,0.0,0.0,0.0,0.0,0.0,0.0,0.0,0.0,0.0,0.0,0.0,0.0,0.0,0.0,0.0,0.0,0.0,0.0,0.0,0.0,0.0,0.0,0.0,0.0,0.0,0.0,0.0,0.0,0.0,0.0,0.0,0.0,0.0,0.0,0.0,0.0,0.0,0.0,0.0,0.0,0.0,0.0,0.0,0.0,0.0,0.0,0.0,0.0,0.0,0.0,0.0,0.0,0.0,0.0,0.0,0.0,0.0,0.0,0.0,0.0,0.0,0.0,0.0,0.0,0.0,0.0,0.0,0.0,0.0,0.0,0.0,0.0,0.0,0.0,0.0,0.0,0.0,0.0,0.0,0.0,0.0,0.0,2.5135,2.5879,2.6623,2.6285,2.5896,2.5625,2.4492,2.3697,2.341,0.0,0.0,0.0,0.0,0.0,0.0,0.0,0.0,0.0,0.0,0.0,0.0,0.0,0.0,0.0,0.0,0.0,0.0,0.0,0.0,0.0,0.0,0.0,0.0,0.0,0.0,0.0,0.0,0.0,0.0,0.0,0.0,0.0,0.0,0.0,0.0,0.0,0.0,0.0,0.0,0.0,0.0,0.0,0.0,0.0,0.0,0.0,0.0,0.0,0.0,0.0,0.0,0.0,0.0,0.0,0.0,0.0,0.0,0.0,0.0,0.0,0.0,0.0,0.0,0.0,0.0,0.0,0.0,0.0,0.0,0.0,0.0,0.0,0.0,0.0,0.0,0.0,0.0,0.0,0.0,0.0,0.0,0.0,0.0,0.0,0.0,0.0,0.0,0.0,0.0,0.0,0.0,0.0,0.0,0.0,0.0,0.0,0.0,0.0,0.0,0.0,0.0,2.4455,2.5338,2.615,2.664,2.6048,2.5507,2.527,2.4224,2.3408,2.3054,0.0,0.0,0.0,0.0,0.0,0.0,0.0,0.0,0.0,0.0,0.0,0.0,0.0,0.0,0.0,0.0,0.0,0.0,0.0,0.0,0.0,0.0,0.0,0.0,0.0,0.0,0.0,0.0,0.0,0.0,0.0,0.0,0.0,0.0,0.0,0.0,0.0,0.0,0.0,0.0,0.0,0.0,0.0,0.0,0.0,0.0,0.0,0.0,0.0,0.0,0.0,0.0,0.0,0.0,0.0,0.0,0.0,0.0,0.0,0.0,0.0,0.0,0.0,0.0,0.0,0.0,0.0,0.0,0.0,0.0,0.0,0.0,0.0,0.0,0.0,0.0,0.0,0.0,0.0,0.0,0.0,0.0,0.0,0.0,0.0,0.0,0.0,0.0,0.0,0.0,0.0,0.0,0.0,0.0,0.0,0.0,0.0,0.0,0.0,0.0,0.0,0.0,2.4506,2.5778,2.6691,2.6674,2.6031,2.5287,2.4557,2.4116,2.3433,0.0,0.0,0.0,0.0,0.0,0.0,0.0,0.0,0.0,0.0,0.0,0.0,0.0,0.0,0.0,0.0,0.0,0.0,0.0,0.0,0.0,0.0,0.0,0.0,0.0,0.0,0.0,0.0,0.0,0.0,0.0,0.0,0.0,0.0,0.0,0.0,0.0,0.0,0.0,0.0,0.0,0.0,0.0,0.0,0.0,0.0,0.0,0.0,0.0,0.0,0.0,0.0,0.0,0.0,0.0,0.0,0.0,0.0,0.0,0.0,0.0,0.0,0.0,0.0,0.0,0.0,0.0,0.0,0.0,0.0,0.0,0.0,0.0,0.0,0.0,0.0,0.0,0.0,0.0,0.0,0.0,0.0,0.0,0.0,0.0,0.0,0.0,0.0,0.0,0.0,0.0,0.0,0.0,0.0,0.0,0.0,0.0,0.0,0.0,0.0,0.0,0.0,0.0,2.4438,2.5778,2.6488,2.5981,2.5253,2.4632,2.4127,2.3446,2.292,2.259,0.0,0.0,0.0,0.0,0.0,0.0,0.0,0.0,0.0,0.0,0.0,0.0,0.0,0.0,0.0,0.0,0.0,0.0,0.0,0.0,0.0,0.0,0.0,0.0,0.0,0.0,0.0,0.0,0.0,0.0,0.0,0.0,0.0,0.0,0.0,0.0,0.0,0.0,0.0,0.0,0.0,0.0,0.0,0.0,0.0,0.0,0.0,0.0,0.0,0.0,0.0,0.0,0.0,0.0,0.0,0.0,0.0,0.0,0.0,0.0,0.0,0.0,0.0,0.0,0.0,0.0,0.0,0.0,0.0,0.0,0.0,0.0,0.0,0.0,0.0,0.0,0.0,0.0,0.0,0.0,0.0,0.0,0.0,0.0,0.0,0.0,0.0,0.0,0.0,0.0,0.0,0.0,0.0,0.0,0.0,0.0,0.0,0.0,0.0,0.0,0.0,0.0,2.4421,2.5778,2.642,2.5693,2.5071,2.4482,2.394,2.3395,2.3045,2.2923,0.0,0.0,0.0,0.0,0.0,0.0,0.0,0.0,0.0,0.0,0.0,0.0,0.0,0.0,0.0,0.0,0.0,0.0,0.0,0.0,0.0,0.0,0.0,0.0,0.0,0.0,0.0,0.0,0.0,0.0,0.0,0.0,0.0,0.0,0.0,0.0,0.0,0.0,0.0,0.0,0.0,0.0,0.0,0.0,0.0,0.0,0.0,0.0,0.0,0.0,0.0,0.0,0.0,0.0,0.0,0.0,0.0,0.0,0.0,0.0,0.0,0.0,0.0,0.0,0.0,0.0,0.0,0.0,0.0,0.0,0.0,0.0,0.0,0.0,0.0,0.0,0.0,0.0,0.0,0.0,0.0,0.0,0.0,0.0,0.0,0.0,0.0,0.0,0.0,0.0,0.0,0.0,0.0,0.0,0.0,0.0,0.0,0.0,0.0,0.0,0.0,0.0,2.4421,2.581,2.642,2.5592,2.5202,2.4705,2.39,2.3726,2.3544,2.3259,0.0,0.0,0.0,0.0,0.0,0.0,0.0,0.0,0.0,0.0,0.0,0.0,0.0,0.0,0.0,0.0,0.0,0.0,0.0,0.0,0.0,0.0,0.0,0.0,0.0,0.0,0.0,0.0,0.0,0.0,0.0,0.0,0.0,0.0,0.0,0.0,0.0,0.0,0.0,0.0,0.0,0.0,0.0,0.0,0.0,0.0,0.0,0.0,0.0,0.0,0.0,0.0,0.0,0.0,0.0,0.0,0.0,0.0,0.0,0.0,1.8641,1.8056,0.0,0.0,0.0,0.0,0.0,0.0,0.0,0.0,0.0,0.0,0.0,0.0,0.0,0.0,0.0,0.0,0.0,0.0,0.0,0.0,0.0,0.0,0.0,0.0,0.0,0.0,0.0,0.0,0.0,0.0,0.0,0.0,0.0,0.0,0.0,0.0,0.0,0.0,0.0,0.0,2.4421,2.6062,2.6536,2.4927,2.4935,2.4599,2.3457,2.3319,2.3392,2.3566,2.2808,0.0,0.0,0.0,0.0,0.0,0.0,0.0,0.0,0.0,0.0,0.0,0.0,0.0,0.0,0.0,0.0,0.0,0.0,0.0,0.0,0.0,0.0,0.0,0.0,0.0,0.0,0.0,0.0,0.0,0.0,0.0,0.0,0.0,0.0,0.0,0.0,0.0,0.0,0.0,0.0,0.0,0.0,0.0,0.0,0.0,0.0,0.0,0.0,0.0,0.0,0.0,0.0,0.0,0.0,0.0,0.0,0.0,0.0,0.0,2.0266,1.9934,0.0,0.0,0.0,0.0,0.0,0.0,0.0,0.0,0.0,0.0,0.0,0.0,0.0,0.0,0.0,0.0,0.0,0.0,0.0,0.0,0.0,0.0,0.0,0.0,0.0,0.0,0.0,0.0,0.0,0.0,0.0,0.0,0.0,0.0,0.0,0.0,0.0,0.0,0.0,0.0,2.4687,2.641,2.6906,2.5155,2.5304,2.4956,2.3557,2.3588,2.3735,2.3917,2.3209,0.0,0.0,0.0,0.0,0.0,0.0,0.0,0.0,0.0,0.0,0.0,0.0,0.0,0.0,0.0,0.0,0.0,0.0,0.0,0.0,0.0,0.0,0.0,0.0,0.0,0.0,0.0,0.0,0.0,0.0,0.0,0.0,0.0,0.0,0.0,0.0,0.0,0.0,0.0,0.0,0.0,0.0,0.0,0.0,0.0,0.0,0.0,0.0,0.0,0.0,0.0,0.0,0.0,2.0027,2.0346,2.1511,2.1151,2.168,2.2861,2.16,2.1728,2.2682,2.119,0.0,0.0,0.0,0.0,0.0,0.0,0.0,0.0,0.0,0.0,0.0,0.0,0.0,0.0,0.0,0.0,0.0,0.0,0.0,0.0,0.0,0.0,2.1744,2.1515,2.2117,2.2324,2.0917,0.0,0.0,0.0,0.0,0.0,0.0,0.0,0.0,0.0,0.0,0.0,2.5098,2.6813,2.736,2.5667,2.5804,2.5384,2.3819,2.3937,2.4151,2.4208,2.3584,2.318,0.0,0.0,0.0,0.0,0.0,0.0,0.0,0.0,0.0,0.0,0.0,0.0,0.0,0.0,0.0,0.0,0.0,0.0,0.0,0.0,0.0,0.0,0.0,0.0,0.0,0.0,0.0,0.0,0.0,0.0,0.0,0.0,1.263,0.9569,0.0,0.0,0.0,0.0,0.0,0.0,0.0,0.0,0.0,0.0,0.0,0.0,0.0,1.9808,2.0234,2.1276,2.1703,2.1487,2.2558,2.3265,2.36,2.3656,2.3897,2.4206,2.3549,0.0,2.3509,2.2987,0.0,0.0,0.0,0.0,0.0,0.0,0.0,0.0,0.0,0.0,0.0,0.0,0.0,0.0,0.0,0.0,0.0,0.0,0.0,0.0,0.0,0.0,2.2556,2.2505,2.26,2.2746,2.292,2.2615,2.226,2.2057,2.2337,2.2521,0.0,0.0,0.0,0.0,0.0,0.0,2.5438,2.7129,2.7609,2.5693,2.5853,2.5448,2.3837,2.3735,2.3896,2.417,2.4098,2.3909,2.3611,2.298,0.0,0.0,0.0,0.0,0.0,0.0,0.0,0.0,0.0,0.0,0.0,0.0,0.0,0.0,0.0,0.0,0.0,0.0,0.0,0.0,0.0,0.0,0.0,0.0,0.0,0.0,0.0,0.0,0.0,1.4328,1.6438,1.3985,1.3877,1.3176,0.0,0.0,0.0,0.0,0.0,0.0,0.0,0.0,0.0,2.1771,2.1529,2.1726,2.2461,2.2808,2.2918,2.2794,2.3503,2.4024,2.4282,2.4476,2.4528,2.4495,2.4247,2.4097,2.3937,2.3414,2.311,2.3016,0.0,0.0,0.0,0.0,2.2744,2.2542,2.2664,2.2623,2.2491,2.2334,0.0,0.0,0.0,0.0,0.0,0.0,0.0,2.2762,2.2716,2.2987,2.3165,2.2797,2.2848,2.3125,2.3615,2.3491,2.3388,2.3801,2.4292,2.4403,2.3624,2.4065,0.0,0.0,0.0,2.6516,2.6516,2.7815,2.8246,2.6946,2.655,2.591,2.4743,2.4251,2.4036,2.419,2.419,2.4113,2.3996,2.3668,2.3428,0.0,0.0,0.0,0.0,0.0,0.0,0.0,0.0,0.0,0.0,0.0,0.0,0.0,0.0,0.0,0.0,0.0,0.0,0.0,0.0,0.0,0.0,0.0,0.0,0.0,0.0,0.0,0.0,1.7712,1.8756,1.8084,1.7325,1.6772,0.0,0.0,0.0,0.0,0.0,0.0,2.1349,2.1315,2.1971,2.361,2.3339,2.3493,2.4209,2.4003,2.3903,2.3921,2.4062,2.43,2.4575,2.4731,2.4746,2.4636,2.4591,2.4461,2.4228,2.3674,2.3588,2.3795,2.3544,2.361,2.3795,2.3544,2.361,2.3816,2.3816,2.3816,2.3767,2.3417,2.3309,2.3162,2.2354,0.0,0.0,0.0,0.0,2.423,2.3862,2.3894,2.3849,2.3245,2.3393,2.3815,2.4425,2.4634,2.482,2.517,2.5722,2.5868,2.487,2.5354,0.0,2.4938,2.6303,2.7416,2.7416,2.8351,2.8705,2.7879,2.7255,2.6502,2.5495,2.4832,2.441,2.4208,2.419,2.419,2.419,2.419,2.419,2.419,0.0,0.0,0.0,0.0,0.0,0.0,0.0,0.0,0.0,0.0,0.0,0.0,0.0,0.0,0.0,0.0,0.0,0.0,0.0,0.0,0.0,0.0,0.0,0.0,0.0,0.0,0.0,0.0,0.0,2.0884,2.1649,0.0,0.0,0.0,0.0,2.3987,2.2216,2.2027,2.4353,2.4279,2.4412,2.4891,2.4766,2.4704,2.4756,2.4559,2.4461,2.4461,2.4459,2.4591,2.479,2.479,2.485,2.4974,2.4842,2.467,2.4461,2.4247,2.417,2.417,2.4151,2.417,2.417,2.4151,2.417,2.417,2.417,2.417,2.417,2.4153,2.4135,2.4135,2.4098,2.463,0.0,0.0,2.5576,2.586,2.5411,2.5084,2.4721,2.4304,2.4516,2.5058,2.59,2.6391,2.6437,2.5719,2.5864,2.5979,2.56,0.0,2.6428,2.6067,2.7023,2.7765,2.7765,2.848,2.8705,2.7879,2.775,2.709,2.5531,2.5366,2.5017,2.4245,2.419,2.419,2.419,2.419,2.419,2.419,2.3419,0.0,0.0,0.0,0.0,0.0,0.0,0.0,0.0,0.0,0.0,0.0,0.0,0.0,0.0,0.0,0.0,0.0,0.0,0.0,0.0,0.0,0.0,0.0,0.0,0.0,0.0,0.0,0.0,2.2589,2.3224,0.0,2.3365,2.3073,2.3551,2.5136,2.435,2.4222,2.5159,2.5523,2.5561,2.534,2.5487,2.5389,2.4992,2.479,2.47,2.47,2.478,2.4858,2.4924,2.5061,2.5084,2.4998,2.4949,2.4836,2.4685,2.4607,2.4426,2.4209,2.4339,2.4393,2.4393,2.4393,2.4393,2.4375,2.4228,2.419,2.419,2.419,2.4538,2.498,2.498,2.5529,2.6172,2.6172,2.6292,2.6374,2.6224,2.6091,2.5903,2.553,2.5571,2.5906,2.6744,2.7028,2.7252,2.7701,2.7664,2.7459,2.709,2.7634,2.7926,2.7287,2.7976,2.8576,2.8576,2.881,2.8906,2.8613,2.8117,2.7567,2.6979,2.6009,2.5293,2.4999,2.4483,2.419,2.419,2.419,2.419,2.419,2.3914,2.3529,0.0,0.0,0.0,0.0,0.0,0.0,0.0,0.0,0.0,0.0,0.0,0.0,0.0,0.0,0.0,0.0,0.0,0.0,0.0,0.0,0.0,0.0,0.0,0.0,0.0,2.4753,2.5159,2.3649,2.4275,2.4687,2.4307,2.4371,2.4896,2.5984,2.5814,2.5885,2.6381,2.6799,2.6812,2.6389,2.6583,2.6521,2.6081,2.5884,2.5766,2.5736,2.5552,2.5449,2.543,2.5348,2.5224,2.5099,2.5099,2.5018,2.4883,2.4883,2.4682,2.4428,2.4561,2.4591,2.4591,2.4591,2.4561,2.4478,2.4339,2.4303,2.4358,2.4635,2.5078,2.5538,2.5754,2.6374,2.6998,2.6998,2.72,2.7365,2.709,2.6998,2.6915,2.6566,2.6589,2.6853,2.7538,2.7767,2.8111,2.8842,2.8773,2.8518,2.8237,2.865,2.8833,2.8282,2.8668,2.8994,2.8994,2.8994,2.8994,2.8994,2.8521,2.8081,2.7824,2.6557,2.5786,2.5786,2.4795,2.4318,2.4575,2.4337,2.419,2.419,2.4465,2.4337,2.3804,0.0,0.0,0.0,0.0,0.0,0.0,0.0,0.0,0.0,0.0,0.0,0.0,0.0,0.0,0.0,0.0,0.0,0.0,0.0,0.0,0.0,0.0,0.0,2.5543,2.5649,2.5274,2.418,2.5022,2.5245,2.4151,2.4841,2.5798,2.6914,2.6788,2.7094,2.8145,2.8223,2.819,2.8106,2.814,2.8098,2.8005,2.7798,2.7684,2.7606,2.6753,2.6371,2.6333,2.5646,2.5332,2.5332,2.5313,2.5184,2.5003,2.5022,2.4924,2.4832,2.4818,2.4823,2.4842,2.4823,2.4685,2.4512,2.453,2.4549,2.4679,2.5483,2.5744,2.5875,2.6454,2.72,2.7842,2.7842,2.8411,2.881,2.8044,2.7842,2.7738,2.7339,2.7541,2.7935,2.8334,2.8707,2.8994,2.8994,2.8994,2.8994,2.8994,2.8994,2.8994,2.8994,2.8994,0.0,2.8994,2.8994,2.8994,2.8994,2.8994,2.8686,2.7897,2.7108,2.6631,2.6612,2.5107,2.4575,2.5384,2.4649,2.4245,2.4263,2.5034,2.5439,2.5439,0.0,0.0,0.0,0.0,0.0,0.0,0.0,0.0,0.0,0.0,0.0,0.0,0.0,0.0,0.0,0.0,0.0,0.0,0.0,0.0,0.0,2.2353,2.3408,2.4348,2.4833,2.5123,2.5161,2.5273,2.5265,2.5099,2.5889,2.6526,2.6837,2.7378,2.7813,2.8115,2.8688,2.873,2.8182,2.8733,2.8744,2.8147,2.8032,2.7984,2.7957,2.7724,2.7607,2.7588,2.6703,2.6331,2.6276,2.5601,2.5303,2.5299,2.5245,2.5216,2.5216,2.5015,2.5336,2.5811,2.5184,2.485,2.4776,2.5213,2.5469,2.5697,2.6373,2.6954,2.7437,2.7451,2.8026,2.8686,2.8686,2.881,2.8938,2.8741,2.8686,2.8645,2.8534,2.8599,2.8718,2.8808,2.8929,2.8994,2.8994,2.8994,2.8994,2.8994,2.8994,2.8994,2.8994,2.8994,2.8994,2.8994,2.8994,2.8994,2.8994,2.8994,2.8902,2.8705,2.7934,2.7218,2.6649,2.564,2.5182,2.5403,2.5201,2.5328,2.5933,2.6153,2.6264,0.0,0.0,0.0,0.0,0.0,0.0,0.0,0.0,0.0,0.0,0.0,0.0,0.0,0.0,0.0,0.0,0.0,0.0,0.0,0.0,0.0,0.0,2.3059,2.349,2.4223,2.4728,2.5116,2.5354,2.5343,2.5473,2.5834,2.6436,2.7087,2.7793,2.8312,2.876,2.9135,2.9601,2.9656,2.9219,2.9687,2.968,2.9179,2.9171,2.916,2.9102,2.8788,2.8637,2.8617,2.7704,2.7291,2.7246,2.6691,2.6467,2.6502,2.6056,2.5917,2.5919,0.0,0.0,0.0,0.0,2.5178,2.547,2.5823,2.6265,2.6778,2.7334,2.7846,2.8241,2.8304,2.8631,2.8994,2.8994,2.8994,2.8994,2.8994,2.8994,2.8994,2.8994,2.8994,2.8994,2.8994,2.8994,2.8994,2.8994,2.8994,0.0,2.8994,2.9292,2.9402,2.9049,2.9287,2.936,2.903,2.8994,2.8994,2.8994,2.8994,2.8994,2.8994,2.8264,0.0,0.0,0.0,2.5897,2.5897,2.5897,0.0,0.0,0.0,0.0,0.0,0.0,0.0,0.0,2.7632,2.797,0.0,0.0,0.0,0.0,0.0,0.0,0.0,0.0,0.0,0.0,0.0,0.0,0.0,0.0,0.0,0.0,2.4046,2.4265,2.4609,2.4867,2.5041,2.511,2.5316,2.5705,2.6361,2.6722,2.7569,2.9169,2.9376,2.9752,3.0536,3.0587,0.0,0.0,0.0,3.0629,3.0512,3.0625,3.0632,3.0495,2.9854,2.9557,2.9518,2.8656,2.8262,2.8242,2.8081,2.8049,2.8043,2.7194,2.689,2.685,2.5854,2.5399,2.5293,2.5172,2.5652,2.6339,2.6422,0.0,0.0,2.8395,2.8563,2.861,2.8941,2.9021,2.8994,2.8994,2.8994,2.8994,2.8994,2.8994,2.8994,2.8994,2.8994,2.8994,2.8994,2.8994,2.8994,2.8994,2.8994,2.8994,2.8994,2.9604,2.9861,2.9214,2.9751,2.9953,2.9214,2.9122,2.9085,2.8994,2.8994,0.0,2.8994,2.8356,2.8213,2.886,2.7647,2.6891,2.6869,2.6961,2.7383,2.8191,2.8117,2.8838,3.0391,3.0631,3.1171,3.192,2.9425,2.9067,0.0,0.0,0.0,0.0,0.0,0.0,0.0,0.0,0.0,0.0,0.0,0.0,0.0,0.0,0.0,2.2255,2.3053,2.3785,2.3763,2.3786,2.4217,2.523,2.5197,2.5482,2.6476,2.7238,2.8078,2.9071,2.9794,3.0257,3.043,3.05,3.0513,3.0513,3.0587,3.0608,3.0589,3.0613,3.0603,3.0583,3.0491,0.0,3.0425,2.9601,2.9227,2.9188,2.8418,2.8111,2.8171,2.7926,2.7848,2.7756,2.6803,2.5974,2.537,2.586,2.6266,2.6625,2.716,2.7994,2.891,2.9499,2.9583,2.9417,2.9338,2.916,0.0,2.8994,2.8994,2.8994,2.8994,2.8994,2.8994,2.8994,2.8994,2.8994,2.8994,2.8994,2.8994,2.8994,2.8994,2.8994,2.8994,2.9122,2.9402,2.9898,3.0099,3.0136,2.9989,2.9971,2.9732,2.9067,2.8994,2.8994,2.8994,2.8847,2.8629,2.829,2.8643,2.8762,2.8539,2.9163,2.9879,3.0687,3.0063,3.0314,3.1492,3.1536,3.2077,3.307,3.1659,3.1526,0.0,0.0,0.0,0.0,0.0,0.0,0.0,0.0,0.0,0.0,0.0,1.0586,1.9713,0.0,2.2473,2.2415,2.2993,2.3468,2.3512,2.3515,2.3841,2.4746,2.4726,2.5234,2.6746,2.7287,2.8068,2.9308,2.9789,3.008,3.0196,3.0151,3.0152,3.0256,3.0356,3.0375,3.0307,3.0501,3.0581,3.054,3.0628,3.0673,3.0696,3.0259,3.0115,3.017,2.9593,2.9439,2.9506,2.9047,2.8564,2.8092,2.7607,2.7086,2.6688,2.7001,2.7432,2.7898,2.8234,2.8967,2.979,2.9956,2.9861,2.9661,2.9474,2.9203,2.8994,2.8994,2.9089,2.9178,2.9021,2.9089,2.9178,2.904,2.8994,2.8994,2.8994,2.8994,2.9104,2.9531,2.9604,2.9732,3.0136,3.021,3.021,3.021,3.054,3.0797,3.0797,3.0797,3.0485,2.9696,2.9971,3.0044,2.9641,3.0097,3.0169,2.9589,3.034,3.0751,3.0609,3.0982,3.1325,3.1594,3.1343,3.1616,3.2396,3.2653,3.3299,3.4243,3.3696,3.3578,0.0,0.0,0.0,0.0,0.0,0.0,0.0,-0.2169,0.1389,1.0396,1.2817,1.5128,2.1038,2.1826,2.1933,2.2972,2.3045,2.3017,2.3122,2.3064,2.3227,2.3803,2.4133,2.5061,2.7019,2.7204,2.7902,2.9564,2.9696,2.9763,2.9939,2.978,2.9763,2.9939,3.0081,3.0107,2.9999,3.0366,3.0537,3.0482,3.0559,3.0617,3.0665,3.0628,3.0708,3.0858,3.0723,3.0742,3.0859,3.0137,2.9412,2.8713,2.8649,2.8559,2.845,2.8058,2.8409,2.9102,2.9102,2.9679,3.0367,3.015,2.9924,2.9731,2.957,2.9312,2.9089,2.9115,2.9249,2.9372,2.9181,2.9291,2.9414,2.9203,2.9138,2.9175,2.9363,2.94,2.964,3.0415,3.0604,3.0808,3.1455,3.1565,3.1352,3.0766,3.1219,3.1623,3.1623,3.1623,3.1311,3.0522,3.0999,3.1152,3.0562,3.134,3.1689,3.126,3.205,3.2485,3.2449,3.243,3.241,3.2374,3.241,3.275,3.3409,3.3844,3.4448,3.519,3.5343,3.5281,-1.3345,-1.4017,-1.2953,-0.7349,-0.5404,-0.4087,0.0,0.4664,1.0987,1.6563,1.8912,2.04,2.1824,2.2074,2.2207,2.2747,2.2485,2.2124,2.1857,2.1486,2.1543,2.2275,2.3506,2.5061,2.7019,2.7204,2.7902,2.9564,2.9696,2.9713,2.9729,2.9713,2.9713,2.9729,2.992,3.0028,2.9999,3.0285,3.0425,3.0414,3.0482,3.0524,3.0521,3.0575,3.0648,3.0721,3.0818,3.0879,3.0898,3.0781,3.0683,3.0585,3.047,3.0364,3.0108,2.8493,2.8409,2.9102,2.9102,2.9679,3.0398,3.0367,3.0182,2.9969,2.9939,2.9661,2.9394,2.957,2.9494,2.9434,2.957,2.9643,2.9661,2.9625,2.9625,2.9832,3.0621,3.0772,3.0998,3.1808,3.1977,3.1996,3.209,3.2109,3.2156,3.2305,3.2412,3.2485,3.2485,3.2485,3.2173,3.1347,3.1347,3.1452,3.1604,3.1953,3.2128,3.2071,3.3044,3.35,3.328,3.3261,3.3619,3.4352,3.3638,3.379,3.4883,3.4935,3.5127,3.5465,3.6176,3.6393,-1.3752,-1.3461,-1.1754,-0.7014,-0.1917,0.1866,0.1713,0.5677,1.0964,1.6507,1.8521,1.9622,2.0815,2.1069,2.1194,2.1668,2.1609,2.1428,2.1275,2.1118,2.1274,2.1995,2.3023,2.4331,2.6034,2.6206,2.6881,2.8523,2.8651,2.8815,2.9163,2.9034,2.918,2.9677,2.978,2.9877,2.9999,3.0267,3.0398,3.0398,3.0428,3.0462,3.0498,3.0529,3.0606,3.0716,3.0837,3.0898,3.0898,3.0898,3.0898,3.0898,3.0747,3.0665,3.0496,2.9715,2.9601,2.9871,2.9871,3.0102,3.0398,3.0398,3.0209,2.9999,2.9999,2.9796,2.9589,2.9678,2.9712,2.9729,2.9713,2.978,2.9959,3.0352,3.0467,3.0675,3.1523,3.1693,3.1939,3.2732,3.2902,3.3053,3.3563,3.3638,3.3691,3.3811,3.3396,3.3246,3.3769,3.3803,3.3695,3.3359,3.2876,3.2664,3.294,3.3524,3.3741,3.3391,3.4255,3.4734,3.4617,3.4617,3.4723,3.4944,3.4742,3.4792,3.5105,3.5273,3.5383,3.5526,3.6334,3.6906,-1.3615,-1.2258,-1.0283,-0.8018,-0.0734,0.574,0.5211,0.7284,1.0615,1.5133,1.6682,1.7689,1.9097,1.9622,1.9982,2.044,2.0684,2.0797,2.0797,2.0698,2.1007,2.199,2.2562,2.3579,2.5359,2.5711,2.6428,2.7791,2.7897,2.8121,2.8669,2.8511,2.8753,2.9476,2.9589,2.9696,2.9829,3.0142,3.0299,3.0299,3.0367,3.0428,3.0472,3.0516,3.0594,3.0716,3.0837,3.0898,3.0898,3.0898,3.0898,3.0898,3.0793,3.0696,3.06,3.0552,3.0463,3.0398,3.0398,3.0398,3.0398,3.0398,3.0267,3.0103,3.0103,2.9973,2.9796,2.9864,2.9939,2.9984,2.9912,3.0003,3.0305,3.1026,3.1184,3.1469,3.253,3.2756,3.2987,3.3823,3.3994,3.4185,3.4812,3.4926,3.4926,3.4926,3.4375,3.4149,3.4639,3.4694,3.4694,3.4694,3.4148,3.3866,3.4135,3.4742,3.4955,3.457,3.5161,3.5493,3.5493,3.5493,3.5417,3.5207,3.5398,3.5398,3.5207,3.5417,3.5622,3.5853,3.668,3.7526,-1.2574,-1.0374,-0.8707,-0.9893,-0.2799,0.5539,0.9628,1.1495,1.2624,1.3501,1.4608,1.5697,1.6808,1.7904,1.8804,1.9271,1.9905,2.0314,2.0314,1.998,2.0314,2.1903,2.2132,2.3047,2.539,2.6231,2.702,2.7844,2.7897,2.8047,2.8376,2.8402,2.859,2.8998,2.9267,2.9394,2.9433,2.9813,3.0013,3.0013,3.0286,3.041,3.0402,3.0537,3.0624,3.0716,3.0837,3.0898,3.0898,3.0898,3.0898,3.0898,3.0898,3.076,3.0606,3.06,3.0516,3.0398,3.0398,3.0398,3.0398,3.0398,3.0398,3.0398,3.0398,3.0196,3.0047,3.0311,3.0196,3.0061,3.0311,3.0379,3.0609,3.1475,3.1686,3.2128,3.3782,3.4128,3.4397,3.5282,3.5441,3.5441,3.546,3.5479,3.5479,3.5479,3.5441,3.5251,3.4754,3.4694,3.4694,3.4694,3.4675,3.4756,3.5049,3.5086,3.5187,3.5455,3.5488,3.5493,3.5493,3.5493,3.5493,3.5493,3.5493,3.5493,3.5493,3.5493,3.5911,3.668,3.7565,3.843,-1.1091,-0.9114,-0.6582,-0.4063,-0.0977,0.2607,0.703,0.9553,1.1081,1.1416,1.2962,1.431,1.4446,1.629,1.7663,1.7112,1.8636,2.0076,2.0494,2.0474,2.0849,2.2087,2.2666,2.338,2.4509,2.5444,2.6293,2.7063,2.7115,2.7378,2.802,2.8075,2.8446,2.9246,2.9351,2.9735,3.0396,2.9995,3.008,3.0593,3.0285,3.0275,3.0529,3.0581,3.0685,3.0837,3.0879,3.0898,3.0898,3.0898,3.0898,3.0898,3.0898,3.0792,3.0665,3.0623,3.0545,3.0462,3.0425,3.0398,3.0398,3.0398,3.0398,3.0398,3.0398,3.0343,3.0279,3.0367,3.0343,3.0299,3.0386,3.0833,3.1468,3.2295,3.2929,3.366,3.4814,3.5064,3.5161,3.5449,3.5493,3.5493,3.5493,3.5493,3.5493,3.5493,3.5493,3.5432,3.5239,3.5223,3.5223,3.5223,3.5223,3.5273,3.5354,3.5369,3.5398,3.5493,3.5493,3.5493,3.5493,3.5493,3.5493,3.5493,3.5493,3.5776,3.6315,3.6315,3.6738,3.7584,3.845,3.9008,-0.9914,-0.8395,-0.5789,-0.1157,0.0,0.0766,0.36,0.6538,0.8808,0.9256,1.0721,1.2017,1.2091,1.3826,1.536,1.5852,1.7447,1.897,2.0164,2.0073,2.0571,2.2486,2.332,2.403,2.478,2.566,2.6241,2.6453,2.6939,2.7352,2.7683,2.8059,2.8658,2.9439,2.961,3.0129,3.1061,3.0657,3.0791,3.1462,3.1177,3.1041,3.102,3.102,3.0955,3.0836,3.0836,3.0858,3.0898,3.0898,3.0898,3.0898,3.0898,3.0816,3.0729,3.0959,3.1013,3.0906,3.0532,3.0398,3.0398,3.0398,3.0398,3.0398,3.0398,3.0398,3.0398,3.0398,3.0398,3.0456,3.0794,3.1275,3.1987,3.3103,3.3795,3.443,3.5315,3.5493,3.5493,3.5493,3.5493,3.5493,3.5493,3.5493,3.5493,3.5493,3.5493,3.5493,3.5493,3.5493,3.5493,3.5493,3.5493,3.5493,3.5493,3.5493,3.5493,3.5493,3.5493,3.5493,3.5493,3.5493,3.5493,3.5493,3.5795,3.618,3.6699,3.7007,3.7603,3.8469,3.9027,3.945,-0.8869,-0.7903,-0.6044,-0.1384,-0.0111,0.0,0.0,0.2911,0.5887,0.702,0.7824,0.8679,0.9642,1.0647,1.2308,1.5389,1.642,1.7498,1.9435,1.9087,1.9818,2.3053,2.3962,2.4833,2.5989,2.6745,2.6848,2.6102,2.7323,2.7885,2.7431,2.8456,2.9229,2.9602,3.0013,3.0626,3.1414,3.1709,3.2047,3.2499,3.2746,3.2509,3.1854,3.1854,3.1462,3.0771,3.0771,3.0829,3.0898,3.0957,3.0976,3.0976,3.0976,3.0914,3.0927,3.164,3.1887,3.1748,3.0852,3.0533,3.0533,3.0533,3.0494,3.0456,3.0456,3.0436,3.0398,3.0398,3.0398,3.059,3.1429,3.1698,3.216,3.3757,3.4199,3.4487,3.5334,3.5493,3.5493,3.5493,3.5493,3.5493,3.5493,3.5493,3.5493,3.5493,3.5493,3.5493,3.5493,3.5493,3.5493,3.5493,3.5493,3.5493,3.5493,3.5493,3.5493,3.5493,3.5493,3.5493,3.5493,3.5493,3.5493,3.5493,3.6295,3.6719,3.6776,3.7642,3.8507,3.9354,3.9354,3.9758,-0.6685,-0.5101,-0.3473,-0.336,-0.1679,0.0,0.0,0.0774,0.2199,0.4751,0.4522,0.429,0.5629,0.9015,1.219,1.394,1.7289,2.0005,2.101,2.1427,2.2085,2.3405,2.3688,2.4109,2.4937,2.5591,2.6267,2.6905,2.7686,2.8336,2.8902,2.9223,2.9554,2.9958,3.0402,3.1039,3.1846,3.2214,3.2367,3.2277,3.2348,3.2484,3.2687,3.2687,3.2322,3.1663,3.1663,3.1372,3.0957,3.1601,3.1875,3.1875,3.1875,3.2207,3.2651,3.2109,3.2299,3.2788,3.2389,3.2256,3.2256,3.2256,3.1872,3.1371,3.1371,3.0929,3.0398,3.0398,3.0398,3.0436,3.0679,3.166,3.2699,3.3122,3.4218,3.5238,3.5449,3.5493,3.5493,3.5493,3.5493,3.5493,3.5493,3.5493,3.5493,3.5493,3.5493,3.5493,3.5493,3.5493,3.5493,3.5493,3.5493,3.5493,3.5493,3.5493,3.5493,3.5493,3.5493,3.5493,3.5493,3.5493,3.5493,3.5493,3.6295,3.7026,3.768,3.8546,3.9392,4.0181,4.0181,4.0296,-0.5395,-0.4255,-0.3081,-0.2637,-0.1233,0.0,0.0,-0.0501,-0.0499,0.1217,0.1883,0.2272,0.2439,0.6691,1.1545,1.5646,1.781,1.9521,2.102,2.1226,2.1761,2.304,2.3212,2.3574,2.454,2.5236,2.6236,2.7724,2.8351,2.8857,2.9263,2.9713,3.0108,3.0342,3.1005,3.1797,3.2793,3.3125,3.3231,3.3079,3.3337,3.3427,3.3365,3.3458,3.3169,3.2523,3.2523,3.2335,3.2031,3.2519,3.2734,3.2695,3.2344,3.248,3.2831,3.2608,3.2809,3.3283,3.3886,3.407,3.391,3.3141,3.2583,3.216,3.1814,3.1371,3.0968,3.0968,3.0968,3.1141,3.1891,3.2776,3.3564,3.3949,3.4795,3.5493,3.5493,3.5493,3.5493,3.5493,3.5493,3.5493,3.5493,3.5493,3.5493,3.5493,3.5493,3.5493,3.5493,3.5493,3.5493,3.5493,3.5493,3.5493,3.5493,3.5493,3.5493,3.5493,3.5493,3.5493,3.5493,3.5493,3.5493,3.5493,3.668,3.7507,3.8007,3.9219,4.0046,4.0489,4.0489,4.0489,-0.473,-0.4514,-0.3772,-0.0728,0.0,0.0,0.0,-0.1285,-0.2512,-0.2512,-0.0445,0.1058,0.0167,0.3931,0.9923,1.8253,1.8033,1.7727,2.027,2.0112,2.0443,2.2331,2.2592,2.3147,2.4558,2.517,2.6347,2.8354,2.8996,2.927,2.9181,3.0029,3.0679,3.0924,3.1667,3.2614,3.3788,3.4018,3.4152,3.42,3.4774,3.467,3.398,3.4251,3.3989,3.3349,3.3362,3.3384,3.3398,3.3515,3.3574,3.3496,3.2793,3.2539,3.2597,3.3102,3.3322,3.3575,3.4952,3.5454,3.5257,3.3737,3.316,3.2949,3.2237,3.1948,3.1852,3.1852,3.1852,3.2199,3.3641,3.4103,3.4391,3.5161,3.543,3.5493,3.5493,3.5493,3.5493,3.5493,3.5493,3.5493,3.5493,3.5493,3.5493,3.5493,3.5493,3.5493,3.5493,3.5493,3.5493,3.5493,3.5493,3.5493,3.5493,3.5493,3.5493,3.5493,3.5617,3.5701,3.5701,3.5824,3.5875,3.5875,3.7417,3.8207,3.8227,3.9779,4.053,4.054,4.05,4.0504,-0.4563,-0.4514,-0.3772,-0.0728,0.0,0.0,0.0,-0.213,-0.4107,-0.4107,-0.3702,-0.2627,-0.039,0.0765,0.5185,1.6645,1.7577,1.7783,2.0414,2.1094,2.1452,2.1852,2.1841,2.2608,2.4514,2.478,2.5859,2.8323,2.8606,2.9085,3.003,3.0236,3.093,3.2139,3.2338,3.287,3.3788,3.3842,3.3986,3.42,3.4593,3.4813,3.4876,3.5153,3.4846,3.4119,3.4221,3.3921,3.3375,3.4158,3.4473,3.4453,3.4316,3.4277,3.4199,3.3534,3.3717,3.4302,3.4478,3.4959,3.5449,3.5161,3.4564,3.3949,3.3814,3.3256,3.2699,3.2699,3.2699,3.2756,3.3045,3.366,3.4237,3.4391,3.4988,3.5493,3.5493,3.5493,3.5493,3.5493,3.5493,3.5493,3.5493,3.5493,3.5493,3.5493,3.5493,3.5493,3.5493,3.5493,3.5493,3.5493,3.5493,3.5493,3.5493,3.5493,3.5493,3.5493,3.6226,3.6654,3.6654,3.7394,3.7813,3.7813,3.8816,3.9313,3.9313,4.0223,4.0688,4.0733,4.059,4.0559,-0.2354,-0.2132,-0.1794,-0.0336,0.0,0.0,0.0,-0.1736,-0.3535,-0.434,-0.4504,-0.4042,-0.2633,-0.0437,0.3565,1.0949,1.4378,1.6822,1.9032,2.0407,2.1318,2.1628,2.1648,2.2218,2.3882,2.4381,2.5379,2.7324,2.783,2.8543,2.9761,3.0123,3.0977,3.2451,3.2484,3.2934,3.3788,3.3807,3.3935,3.42,3.4551,3.4832,3.5105,3.5369,3.5297,3.4991,3.5076,3.4948,3.4693,3.5173,3.5117,3.4707,3.4707,3.418,3.3457,3.3862,3.3682,3.3365,3.461,3.4952,3.4936,3.5347,3.4911,3.4199,3.4199,3.3583,3.2987,3.3449,3.3583,3.368,3.4141,3.4564,3.4872,3.4872,3.5199,3.5493,3.5493,3.5493,3.5493,3.5493,3.5493,3.5493,3.5493,3.5493,3.5493,3.5493,3.5493,3.5515,3.5546,3.5558,3.554,3.5488,3.5562,3.559,3.557,3.5579,3.5601,3.5601,3.6027,3.6276,3.6276,3.7129,3.7624,3.7624,3.8928,3.9602,3.9602,4.0373,4.0761,4.0793,4.0703,4.069,-0.0336,0.0224,0.056,0.0896,0.0728,0.0392,0.0056,-0.0894,-0.2233,-0.411,-0.4507,-0.4504,-0.4511,-0.0817,0.3062,0.5729,1.0626,1.4871,1.7027,1.889,2.0218,2.0832,2.1104,2.1725,2.3024,2.3783,2.4882,2.64,2.7188,2.8125,2.9316,2.9978,3.0937,3.2316,3.2451,3.2872,3.368,3.3762,3.3935,3.42,3.4551,3.4832,3.5105,3.5369,3.5534,3.5568,3.5646,3.5743,3.5853,3.5948,3.5585,3.498,3.498,3.4062,3.2891,3.4219,3.3665,3.2572,3.4714,3.4967,3.4468,3.5263,3.5053,3.4468,3.4468,3.4007,3.3603,3.4295,3.4468,3.4641,3.5334,3.5493,3.5493,3.5493,3.5493,3.5493,3.5493,3.5493,3.5493,3.5493,3.5493,3.5493,3.5493,3.5493,3.5488,3.5509,3.5522,3.5546,3.5611,3.5659,3.5621,3.5558,3.5639,3.5675,3.5621,3.5679,3.5703,3.5703,3.5898,3.6027,3.6027,3.7038,3.7615,3.7615,3.9154,3.9928,3.9928,4.0552,4.0864,4.0877,4.0836,4.0809,-0.0056,0.095,0.2347,0.3711,0.3026,0.1673,0.0279,-0.0111,-0.1003,-0.3881,-0.4514,-0.4511,-0.4514,-0.0834,0.2771,0.4426,0.7836,1.1477,1.47,1.6469,1.7723,1.8521,1.9621,2.081,2.2096,2.2994,2.4327,2.6347,2.7188,2.8125,2.9316,2.9978,3.0794,3.1808,3.2282,3.2745,3.3243,3.3625,3.3935,3.42,3.4551,3.4832,3.5105,3.5369,3.5507,3.5515,3.5588,3.5638,3.5723,3.5869,3.5908,3.5879,3.5879,3.5293,3.4492,3.4648,3.4056,3.3321,3.4351,3.4603,3.4598,3.5359,3.55,3.5391,3.5391,3.5334,3.5295,3.5372,3.5391,3.5411,3.5488,3.5493,3.5493,3.5493,3.5493,3.5493,3.5493,3.5493,3.5493,3.5493,3.5493,3.5493,3.5493,3.5493,3.5522,3.5588,3.559,3.5621,3.5682,3.5797,3.5827,3.5709,3.5696,3.5703,3.5696,3.5703,3.5703,3.5703,3.6553,3.707,3.707,3.8723,3.9628,3.9628,4.0565,4.1054,4.1053,4.0991,4.103,4.1151,4.0914,4.0864,0.2235,0.246,0.2569,0.4101,0.4045,0.3423,0.2858,0.1284,-0.0335,-0.1569,-0.179,-0.1788,-0.1793,0.1171,0.3793,0.4385,0.6722,0.9328,1.189,1.3848,1.5703,1.7517,1.9154,2.0581,2.1874,2.3147,2.4637,2.6375,2.7188,2.7944,2.8826,2.9406,3.0394,3.1735,3.1986,3.2433,3.3184,3.3361,3.3707,3.42,3.4551,3.4832,3.5105,3.5369,3.5493,3.5488,3.5566,3.5648,3.571,3.5841,3.5632,3.5215,3.5215,3.4394,3.3242,3.373,3.3046,3.2121,3.3955,3.4246,3.3999,3.5247,3.5253,3.4863,3.5341,3.5141,3.4834,3.5353,3.5493,3.5493,3.5493,3.5493,3.5493,3.5493,3.5493,3.5493,3.5493,3.5493,3.5493,3.5493,3.5493,3.5515,3.5538,3.5562,3.5568,3.5646,3.5663,3.5702,3.5802,3.5869,3.5907,3.5876,3.5876,3.5868,3.5817,3.5861,3.5876,3.5876,3.6259,3.6713,3.724,3.8456,3.9355,3.9883,4.0762,4.1191,4.1191,4.115,4.115,4.1191,4.1082,4.1077,0.3755,0.3697,0.3125,0.4206,0.4497,0.4389,0.3937,0.2521,0.1063,0.0168,0.0,0.0279,0.1176,0.2685,0.3965,0.0,0.5919,0.7663,0.935,1.1487,1.3633,1.5683,1.7532,1.9302,2.0841,2.3009,2.4894,2.6404,2.6982,2.7645,2.8479,2.8919,2.98,3.1325,3.1625,3.2127,3.2777,3.3075,3.3478,3.4018,3.4383,3.4735,3.5105,3.5289,3.5432,3.5507,3.5558,3.5611,3.5687,3.5791,3.5539,3.5036,3.4785,3.3984,3.3008,3.3574,3.2871,3.1953,3.4226,3.4278,3.3568,3.4925,3.4743,3.4154,3.4958,3.4738,3.4372,3.5257,3.5493,3.5493,3.5493,3.5493,3.5488,3.5534,3.5515,3.554,3.555,3.5562,3.5562,3.5562,3.5562,3.5577,3.5611,3.563,3.5666,3.5749,3.5761,3.5807,3.5916,3.594,3.5947,3.5996,3.5996,3.5975,3.5921,3.5973,3.5996,3.5996,3.5996,3.6387,3.7266,3.8144,3.9004,3.9883,4.0762,4.1191,4.1191,4.1191,4.1191,4.1191,4.1191,4.1328,0.3934,0.4487,0.4467,0.4477,0.448,0.4082,0.2567,0.3365,0.3602,0.0617,0.0,0.0897,0.3884,0.3251,0.2734,0.4252,0.5373,0.6324,0.731,0.9455,1.1254,1.2251,1.4328,1.6456,1.8533,2.2102,2.4894,2.6404,2.651,2.7108,2.8415,2.8511,2.9042,3.0293,3.1287,3.1808,3.1808,3.2745,3.3335,3.3613,3.4018,3.4513,3.5105,3.5105,3.5239,3.5507,3.5507,3.554,3.5601,3.5667,3.5772,3.5809,3.5017,3.4687,3.4687,3.4687,3.4121,3.3613,3.5371,3.4844,3.3534,3.4351,3.4023,3.3466,3.4276,3.4381,3.4372,3.5257,3.5493,3.5493,3.5493,3.5493,3.5528,3.5568,3.5611,3.5621,3.5682,3.5703,3.5703,3.5703,3.5703,3.5703,3.5703,3.5703,3.5729,3.5873,3.59,3.5916,3.5996,3.5996,3.5996,3.5996,3.5996,3.5996,3.5996,3.5996,3.5996,3.5996,3.5996,3.6387,3.7266,3.8144,3.9004,3.9883,4.0762,4.1191,4.1191,4.1191,4.1191,4.1191,4.1191,4.1621,0.3585,0.4494,0.4487,0.449,0.4497,0.4389,0.3878,0.2579,0.1177,0.0224,0.0783,0.2125,0.4113,0.4092,0.3993,0.4616,0.4952,0.5657,0.7121,0.8868,1.0814,1.3068,1.6689,1.9731,2.1533,2.3246,2.4509,2.4951,2.596,2.6707,2.7108,2.8012,2.9042,3.0251,3.0608,3.1094,3.1771,3.24,3.2916,3.3335,3.3913,3.4423,3.4832,3.5035,3.5258,3.5493,3.5493,3.554,3.5591,3.5621,3.5385,3.4924,3.4081,3.3431,3.293,3.2324,3.1934,3.1934,3.3633,3.3496,3.2812,3.4217,3.3641,3.268,3.4125,3.4435,3.4442,3.5322,3.5574,3.5588,3.5621,3.5639,3.5629,3.5671,3.5679,3.5667,3.5696,3.5703,3.5703,3.5703,3.5703,3.5723,3.5812,3.5836,3.5877,3.5951,3.5973,3.5974,3.5996,3.5996,3.5996,3.5996,3.5996,3.5996,3.5996,3.5996,3.5996,3.5996,3.6562,3.7285,3.8144,3.9023,3.9902,4.0762,4.1055,4.1191,4.1191,4.1191,4.1191,4.1191,4.1191,4.1621,0.18,0.3214,0.3641,0.3641,0.4048,0.4514,0.4514,0.2188,0.0,0.0,0.1623,0.3363,0.4333,0.4487,0.4556,0.4656,0.4714,0.5312,0.7116,0.8623,1.0841,1.4072,1.7671,2.0546,2.2198,2.3234,2.4105,2.4681,2.5563,2.6229,2.651,2.758,2.8732,2.9935,3.0166,3.0794,3.1789,3.2282,3.2763,3.3214,3.3768,3.4195,3.4529,3.4813,3.5105,3.5354,3.5446,3.5522,0.0,3.559,3.5197,3.4486,3.3626,3.2858,3.2129,3.1582,3.1387,3.1582,3.293,3.2871,3.2363,3.3418,3.3201,3.278,3.4189,3.4717,3.4941,3.5484,3.5648,3.5646,3.5689,3.5703,3.5717,3.5761,3.5791,3.5777,3.5802,3.5806,3.5806,3.5806,3.5806,3.5838,3.5921,3.5942,3.5948,3.5996,3.5996,3.5996,3.5996,3.5996,3.5996,3.5996,3.5996,3.5996,3.5996,3.5996,3.6133,3.6465,3.6992,3.7832,3.9043,3.9609,4.0312,4.1172,4.1191,4.1191,4.1191,4.1191,4.1191,4.1191,4.1191,4.1816,0.0,0.1027,0.2058,0.2063,0.3307,0.4514,0.4514,0.2244,0.0,0.0168,0.2467,0.4511,0.4511,0.4494,0.448,0.4546,0.4613,0.5381,0.7219,0.8936,1.1425,1.5314,1.7519,1.936,2.0912,2.2219,2.3579,2.4983,2.5218,2.5562,2.6318,2.7129,2.8112,2.9361,2.9935,3.0714,3.1752,3.223,3.2713,3.3154,3.3578,3.3935,3.42,3.4529,3.4813,3.5105,3.5369,3.5493,3.5488,3.5574,3.5165,3.4413,3.3663,3.2892,3.2187,3.2207,3.2168,3.2226,3.3027,3.2773,3.2129,3.2187,3.2734,3.3554,3.4354,3.5125,3.5717,3.5717,3.5717,3.5717,3.5723,3.5723,3.5741,3.5877,3.5907,3.5918,3.5995,3.5996,3.5996,3.5996,3.5996,3.5996,3.5996,3.5996,3.5996,3.5996,3.5996,3.5996,3.5996,3.5996,3.5996,3.5996,3.6055,3.6094,3.6094,3.6094,3.6445,3.7246,3.7422,3.8203,3.9824,3.9961,4.0371,4.1172,4.1191,4.1191,4.1191,4.1191,4.1191,4.1191,4.1191,4.2109,-0.0831,0.0,0.0542,0.05,0.2525,0.4514,0.0,0.3026,0.1675,0.1675,0.3186,0.4524,0.4697,0.4611,0.4541,0.4772,0.4843,0.5743,0.8259,1.1522,1.4604,1.7133,1.8394,1.9414,2.0473,2.1346,2.204,2.242,2.3433,2.4315,2.4919,2.6184,2.7638,2.9345,2.954,3.0192,3.1312,3.2127,3.255,3.2681,3.3447,3.3935,3.42,3.4288,3.4595,3.5105,3.5174,3.5304,3.5507,3.5528,3.5048,3.4332,3.425,3.3332,3.2051,3.2167,3.1777,3.1328,3.2187,3.1914,3.1328,3.1973,3.2734,3.3555,3.4413,3.5237,3.5845,3.5845,3.5845,3.5853,3.5925,3.593,3.593,3.5973,3.5974,3.5975,3.5996,3.5996,3.5996,3.5996,3.5996,3.5996,3.5996,3.5996,3.5996,3.5996,3.5996,3.5996,3.5996,3.5996,3.5996,3.5996,3.6601,3.6992,3.6992,3.6992,3.707,3.7285,3.8555,3.9473,3.9883,4.0547,4.0996,4.1191,4.1191,4.1191,4.1191,4.1191,4.1191,4.1191,4.1191,4.2109,-0.0428,0.0,0.0,0.0,0.2273,0.4514,0.4514,0.3875,0.3244,0.3244,0.3916,0.456,0.4646,0.5241,0.5559,0.4904,0.622,0.7966,0.9812,1.2168,1.4486,1.6685,1.7626,1.8529,1.9773,2.0538,2.1018,2.1018,2.2631,2.3741,2.4044,2.5689,2.7189,2.8507,2.9096,3.0091,3.147,3.2144,3.2616,3.2809,3.3494,3.3876,3.4018,3.4147,3.4449,3.4926,3.5053,3.5239,3.5493,3.5493,3.5027,3.4313,3.4369,3.366,3.256,3.2233,3.1853,3.1504,3.1582,3.1289,3.1035,3.1914,3.2734,3.3555,3.4434,3.5271,3.5947,3.5947,3.5947,3.595,3.5996,3.5996,3.5996,3.5996,3.5996,3.5996,3.5996,3.5996,3.5996,3.5996,3.5996,3.5996,3.5996,3.5996,3.5996,3.5996,3.5996,3.5996,3.5996,3.5996,3.5996,3.5996,3.6777,3.7305,3.7305,3.8027,3.8496,3.8496,3.9375,4.0078,4.0488,4.0957,4.1191,4.1191,4.1191,4.1191,4.1191,4.1191,4.1191,4.1191,4.1191,4.2109,0.0567,0.0703,0.0687,0.0691,0.2625,0.4507,0.4507,0.0,0.0,0.0,0.4484,0.4591,0.4831,0.5927,0.6426,0.5227,0.7946,1.0479,1.1404,1.2235,1.349,1.5413,1.6302,1.7337,1.8711,1.9657,2.0127,2.0127,2.2021,2.3252,2.345,2.5168,2.6527,2.7333,2.8505,2.9835,3.1416,3.2143,3.2713,3.3105,3.3578,3.3807,3.3807,3.4043,3.4311,3.4653,3.4926,3.519,3.5446,3.5493,3.5091,3.4475,3.4496,3.4078,3.3388,3.2518,3.2194,3.207,3.1191,3.0898,3.1035,3.1914,3.2656,3.3398,3.4394,3.5215,3.582,3.5957,3.5996,3.5996,3.5996,3.5996,3.5996,3.5996,3.5996,3.5996,3.5996,3.5996,3.5996,3.5996,3.5996,3.5996,3.5996,3.5996,3.5996,3.5996,3.5996,3.5996,3.5996,3.5996,3.5996,3.5996,3.6894,3.75,3.75,3.9101,4.0098,4.0098,4.0098,4.043,4.1172,4.1191,4.1191,4.1191,4.1191,4.1191,4.1191,4.1191,4.1191,4.1191,4.1191,4.2109,0.313,0.3821,0.3821,0.3825,0.4165,0.4484,0.4484,0.4477,0.0,0.0,0.4522,0.4879,0.6225,0.5673,0.5409,0.6474,0.8634,1.0763,1.2411,1.395,1.5037,1.5407,1.6075,1.6623,1.692,1.8134,1.8964,1.8964,2.0374,2.1722,2.2774,2.3683,2.4921,2.6619,2.7377,2.8391,2.9653,3.1585,3.255,3.2616,3.3419,3.3807,3.3788,3.3842,3.3993,3.4292,3.4614,3.4926,3.519,3.5417,3.5443,3.5316,3.5383,3.495,3.4224,3.3403,3.2721,3.207,3.1191,3.0898,3.1035,3.1914,3.2285,3.2676,3.4238,3.4785,3.5059,3.5781,3.5996,3.5996,3.5996,3.5996,3.5996,3.5996,3.5996,3.5996,3.5996,3.5996,3.5996,3.5996,3.5996,3.5996,3.5996,3.5996,3.5996,3.5996,3.5996,3.5996,3.5996,3.5996,3.5996,3.5996,3.7441,3.8398,3.8398,4.0,4.0996,4.0996,4.0996,4.1055,4.1191,4.1191,4.1191,4.1191,4.1191,4.1191,4.1191,4.1191,4.1191,4.1191,4.1191,4.2109,0.3281,0.4238,0.4494,0.4349,0.4428,0.4643,0.514,0.5124,0.5058,0.5058,0.5058,0.5399,0.6504,0.7151,0.8455,1.1107,1.0838,1.0916,1.2739,1.3216,1.3606,1.4118,1.4831,1.5439,1.5864,1.7235,1.8124,1.8124,1.9799,2.1198,2.2125,2.3146,2.4229,2.5423,2.6425,2.7387,2.8208,2.9765,3.1201,3.2517,3.2703,3.3177,3.3788,3.3348,3.3529,3.4223,3.4551,3.4851,3.5122,3.5383,3.5493,3.5507,3.5528,3.5076,3.4229,3.3003,3.2053,3.1321,3.093,3.0837,3.1035,3.1914,3.248,3.3086,3.4316,3.5039,3.5488,3.5898,3.5996,3.5996,3.5996,3.5996,3.5996,3.5996,3.5996,3.5996,3.5996,3.5996,3.5996,3.5996,3.5996,3.5996,3.5996,3.5996,3.5996,3.5996,3.5996,3.5996,3.5996,3.5996,3.5996,3.5996,3.7559,3.8594,3.8594,4.0195,4.1191,4.1191,4.1191,4.1191,4.1191,4.1191,4.1191,4.1191,4.1191,4.1191,4.1191,4.1191,4.1191,4.1211,4.1641,4.2519,0.2737,0.3778,0.4368,0.4238,0.4337,0.475,0.5626,0.5664,0.555,0.5817,0.5881,0.611,0.6853,0.8627,1.0914,1.3779,1.2279,1.1308,1.3078,1.2599,1.2343,1.3281,1.3857,1.451,1.5294,1.6743,1.7578,1.7578,1.9438,2.0832,2.1472,2.2611,2.3508,2.4148,2.5393,2.6377,2.7054,2.8031,2.9621,3.1837,3.1775,3.2236,3.3113,3.2745,3.3036,3.3863,3.4454,3.4832,3.5016,3.5369,3.5493,3.5493,3.5493,3.4878,3.3819,3.2428,3.1383,3.068,3.069,3.0769,3.0975,3.168,3.2441,3.3281,3.4141,3.5,3.5742,3.5937,3.5996,3.5996,3.5996,3.5996,3.5996,3.5996,3.5996,3.5996,3.5996,3.5996,3.5996,3.5996,3.5996,3.5996,3.5996,3.5996,3.5996,3.5996,3.5996,3.5996,3.5975,3.5996,3.5996,3.5975,3.7558,3.8769,3.918,4.043,4.1191,4.1191,4.1191,4.1191,4.1191,4.1191,4.1191,4.1191,4.1191,4.1191,4.1191,4.1191,4.1191,4.1211,4.1836,4.2695,0.2169,0.3039,0.4228,0.4202,0.4351,0.468,0.5382,0.5542,0.5758,0.6793,0.7007,0.7229,0.8051,0.9054,0.9993,1.0671,1.1229,1.2196,1.3863,1.3433,1.3191,1.4001,1.4163,1.451,1.5294,1.6743,1.7578,1.7578,1.898,2.0144,2.0845,2.1479,2.217,2.2812,2.4059,2.5262,2.6359,2.7081,2.8202,2.9812,3.0612,3.1038,3.1138,3.2127,3.2632,3.2801,3.4124,3.4714,3.4754,3.5289,3.5493,3.5493,3.5493,3.4518,3.2996,3.2188,3.1351,3.0623,3.068,3.0716,3.0743,3.0936,3.1582,3.2441,3.3242,3.4101,3.4961,3.5762,3.5996,3.5996,3.5996,3.5996,3.5996,3.5996,3.5996,3.5996,3.5996,3.5996,3.5996,3.5996,3.5996,3.5996,3.5996,3.5996,3.5996,3.5996,3.5996,3.5974,3.5913,3.5951,3.5974,3.591,3.7515,3.9258,4.0879,4.1133,4.1191,4.1191,4.1191,4.1191,4.1191,4.1191,4.1191,4.1191,4.1191,4.1191,4.1191,4.1191,4.1191,4.1191,4.1269,4.2148,0.2873,0.3866,0.4902,0.4245,0.4598,0.0,0.6036,0.6204,0.6315,0.6864,0.7424,0.7995,0.8604,1.0592,1.1976,1.1308,1.2371,1.333,1.3425,1.3606,1.3846,1.4154,1.4628,1.505,1.5352,1.6743,1.7578,1.7578,1.8992,2.0105,2.0746,2.139,2.1993,2.2694,2.3526,2.4514,2.5621,2.5894,2.6606,2.7809,2.8862,2.9876,3.0884,3.0785,3.1236,3.2177,3.3383,3.398,3.422,3.5124,3.5493,3.5391,3.4314,3.3198,3.2089,3.1264,3.0778,3.0545,3.0568,3.0592,3.0735,3.1387,3.2176,3.3035,3.3893,3.4752,3.5508,3.574,3.5806,3.5841,3.5975,3.5973,3.5947,3.5996,3.5973,3.5948,3.5996,3.5996,3.5996,3.5996,3.5996,3.5996,3.5996,3.5972,3.5942,3.5942,3.5864,3.5797,3.5772,3.5792,3.5797,3.5772,3.7406,3.9156,4.0803,4.1026,4.1049,4.0959,4.1105,4.1191,4.1191,4.1191,4.1191,4.1191,4.1191,4.1191,4.1191,4.1191,4.1191,4.1211,4.1719,4.2285,0.3979,0.4688,0.5362,0.4889,0.0,0.576,0.6745,0.675,0.6833,0.7637,0.8184,0.864,0.9027,1.1023,1.2314,1.1475,1.2525,1.3235,1.2696,1.3114,1.3537,1.3786,1.451,1.5108,1.5352,1.6528,1.7246,1.7246,1.8608,1.967,2.0118,2.1121,2.1899,2.2346,2.3187,2.4116,2.5182,2.5221,2.5709,2.6708,2.7502,2.8596,2.9942,2.971,3.0221,3.1347,3.2519,3.3128,3.3363,3.4314,3.468,3.4545,3.3083,3.2179,3.1583,3.0717,3.0428,3.0463,3.049,3.0529,3.0678,3.1339,3.2335,3.3388,3.3984,3.4939,3.5812,3.5723,3.5703,3.5735,3.5874,3.5868,3.5849,3.5899,3.5864,3.5853,3.595,3.5973,3.5973,3.5973,3.5973,3.5951,3.5906,3.5864,3.5841,3.5841,3.5761,3.5696,3.5659,3.5689,3.5917,3.6462,3.7629,3.9037,4.0665,4.0877,4.0908,4.0801,4.0964,4.1077,4.1077,4.1105,4.1149,4.1149,4.1171,4.1191,4.1191,4.1191,4.1191,4.1211,4.1758,4.2168,0.5346,0.5296,0.5479,0.6196,0.5933,0.5923,0.7343,0.7128,0.7209,0.9266,0.9469,0.9268,0.9274,0.9939,1.0488,1.0481,1.1253,1.1834,1.1772,1.1834,1.2143,1.2887,1.3726,1.451,1.5294,1.6093,1.6492,1.6492,1.7841,1.8715,1.8715,2.0604,2.1697,2.1697,2.2935,2.4116,2.5182,2.5221,2.5709,2.6691,2.6691,2.7115,2.7943,2.908,2.9821,3.0276,3.1613,3.2185,3.2241,3.2704,3.2891,3.2814,3.2006,3.1698,3.1583,3.0717,3.0398,3.0402,3.0472,3.0498,3.0516,3.0575,3.1773,3.3193,3.3193,3.4361,3.5684,3.5684,3.5684,3.5703,3.5703,3.5703,3.5703,3.5703,3.5703,3.5749,3.5873,3.5903,3.5903,3.59,3.59,3.5864,3.5723,3.5703,3.5703,3.5703,3.5703,3.5667,3.5601,3.5655,3.6365,3.8109,3.8291,3.8972,4.0638,4.0793,4.0793,4.0793,4.0793,4.0793,4.0801,4.0925,4.0996,4.0996,4.1128,4.1191,4.1191,4.1191,4.1191,4.1191,4.1191,4.1621,0.3959,0.4883,0.5868,0.5575,0.6251,0.7176,0.761,0.7128,0.7044,0.8619,0.8932,0.9039,0.9238,1.0458,1.101,0.9824,1.0829,1.1586,1.1045,1.1903,1.2757,1.2948,1.4213,1.5108,1.5352,1.6093,1.6492,1.6492,1.7413,1.8167,1.8661,2.0116,2.1151,2.1697,2.2935,2.4116,2.5182,2.5221,2.5709,2.6691,2.6691,2.7115,2.7897,2.8241,2.8866,2.9697,3.0669,3.1261,3.1648,3.253,3.2564,3.2025,3.1795,3.1333,3.0756,3.0494,3.0398,3.039,3.0417,3.0439,3.0441,3.0516,3.1293,3.2213,3.2216,3.338,3.47,3.4668,3.5098,3.5562,3.5562,3.5562,3.562,3.5805,3.5766,3.5749,3.5873,3.5903,3.5873,3.5772,3.5761,3.5755,3.571,3.5663,3.563,3.563,3.559,3.5558,3.5528,3.5546,3.5968,3.7069,3.781,3.8644,3.9651,4.0335,4.0688,4.0597,4.0584,4.0645,4.0793,4.085,4.0908,4.0996,4.1049,4.1105,4.1191,4.1191,4.1191,4.1191,4.1191,4.1328,0.481,0.5681,0.6624,0.6566,0.7119,0.7723,0.7723,0.7692,0.7848,0.8681,0.9011,0.9192,0.9432,1.0342,1.0787,0.9806,1.0586,1.1288,1.1108,1.2212,1.313,1.3425,1.4628,1.541,1.541,1.5806,1.6036,1.6036,1.7024,1.7797,1.8232,2.0016,2.126,2.1697,2.2935,2.4116,2.5182,2.5221,2.5709,2.6691,2.6691,2.7115,2.7897,2.7897,2.8394,2.9265,2.9855,3.0377,3.0829,3.1479,3.152,3.1179,3.1179,3.0871,3.0398,3.0398,3.0398,3.0398,3.0398,3.0398,3.0421,3.0451,3.1052,3.1748,3.1757,3.2684,3.3735,3.3698,3.4064,3.4545,3.4891,3.4988,3.5104,3.5627,3.5685,3.5648,3.5768,3.5788,3.5749,3.5679,3.5663,3.5646,3.5621,3.5579,3.5562,3.5562,3.5534,3.5493,3.5493,3.5493,3.5949,3.7084,3.7771,3.8556,3.9677,4.0298,4.0602,4.0504,4.0489,4.0549,4.0679,4.0723,4.0807,4.0889,4.0902,4.0959,4.1049,4.1049,4.1077,4.1126,4.1126,4.115,0.6789,0.7107,0.7524,0.8423,0.8243,0.7777,0.7777,0.8511,0.915,0.9121,0.9396,0.9653,0.9679,0.99,1.0074,1.0074,1.0301,1.0781,1.1505,1.2356,1.3219,1.3972,1.4817,1.5371,1.541,1.541,1.541,1.541,1.6687,1.7523,1.7578,2.0116,2.1649,2.1697,2.2935,2.4116,2.5182,2.5221,2.5709,2.6691,2.6691,2.7115,2.7897,2.7897,2.8308,2.8998,2.9289,2.9607,2.9954,2.9984,3.015,3.0367,3.0398,3.0398,3.0398,3.0398,3.0398,3.0398,3.0398,3.0398,3.0398,3.0398,3.0948,3.1583,3.1583,3.216,3.2795,3.2795,3.2833,3.3083,3.3872,3.4141,3.4391,3.5199,3.5449,3.5534,3.5579,3.5611,3.56,3.559,3.559,3.5566,3.5515,3.5493,3.5493,3.5493,3.5493,3.5493,3.5493,3.5493,3.6122,3.7719,3.795,3.8642,4.0239,4.045,4.0489,4.0489,4.0489,4.0489,4.0489,4.0623,4.068,4.0703,4.0771,4.0785,4.0801,4.0801,4.0864,4.0988,4.0992,4.1074,0.5264,0.6256,0.7242,0.7658,0.8151,0.8586,0.8586,0.8745,0.8797,0.846,0.8895,0.9406,0.9639,0.9733,0.978,0.978,0.9826,0.9932,1.0155,1.1291,1.2364,1.2906,1.4107,1.5049,1.5381,1.541,1.541,1.541,1.6255,1.6978,1.7578,1.9686,2.1102,2.1697,2.2935,2.4116,2.5182,2.5221,2.5709,2.6691,2.6691,2.7115,2.7897,2.7897,2.8308,2.8998,2.9289,2.9454,2.9551,2.9877,3.0028,3.0122,3.0311,3.0398,3.0398,3.0398,3.0398,3.0398,3.0398,3.0398,3.0398,3.0398,3.0533,3.0679,3.0679,3.1275,3.1968,3.1968,3.241,3.2949,3.3122,3.368,3.4237,3.443,3.5032,3.5568,3.56,3.5611,3.5579,3.5528,3.5522,3.5528,3.5507,3.5493,3.5493,3.5493,3.5493,3.5493,3.5493,3.5493,3.5892,3.6873,3.7584,3.8411,3.9469,4.0142,4.0489,4.0489,4.0489,4.0489,4.0489,4.0534,4.0582,4.0692,4.0707,4.0742,4.0801,4.0801,4.0809,4.085,4.0955,4.1019,0.5656,0.6504,0.7285,0.7942,0.8476,0.8804,0.8804,0.8804,0.8745,0.8505,0.876,0.9078,0.9232,0.9379,0.9472,0.9472,0.9593,0.9853,1.0243,1.0956,1.164,1.2305,1.3169,1.3995,1.4562,1.4751,1.4991,1.5352,1.6415,1.7191,1.7578,1.9851,2.1308,2.1697,2.2935,2.4116,2.5182,2.5221,2.5709,2.6691,2.6691,2.7115,2.7926,2.8255,2.8651,2.9017,2.9156,2.9289,2.9433,2.9644,2.9829,3.0013,3.015,3.0299,3.0398,3.0398,3.0398,3.0398,3.0398,3.0398,3.0398,3.0398,3.0398,3.0398,3.0398,3.0717,3.1083,3.1083,3.1391,3.1795,3.2218,3.266,3.3199,3.4007,3.4879,3.5558,3.5558,3.5558,3.5534,3.552,3.5493,3.5493,3.5493,3.5493,3.5493,3.5493,3.5493,3.5493,3.5493,3.5493,3.5968,3.7199,3.7738,3.8507,3.9758,4.0258,4.0489,4.0489,4.0489,4.0489,4.0489,4.0489,4.053,4.0596,4.0596,4.063,4.0657,4.0657,4.069,4.0752,4.0816,4.087,0.631,0.6948,0.7432,0.8515,0.8804,0.8804,0.8804,0.8804,0.8804,0.8804,0.8804,0.8804,0.8804,0.9005,0.911,0.911,0.9372,0.9754,1.046,1.0621,1.1035,1.1875,1.2327,1.2946,1.3754,1.4057,1.4482,1.5138,1.6528,1.7346,1.751,1.9977,2.1404,2.1558,2.2686,2.3808,2.4875,2.499,2.5542,2.6573,2.6808,2.7272,2.7926,2.8651,2.8994,2.8994,2.8994,2.9134,2.933,2.9392,2.9607,2.9908,2.9969,3.0136,3.0343,3.0379,3.0398,3.0398,3.0398,3.0398,3.0398,3.0398,3.0398,3.0398,3.0398,3.0398,3.0398,3.0398,3.0398,3.0571,3.1295,3.1583,3.2045,3.343,3.4545,3.5334,3.5468,3.5493,3.5493,3.5493,3.5493,3.5493,3.5493,3.5493,3.5493,3.5493,3.5493,3.5493,3.5493,3.5493,3.6142,3.7815,3.8007,3.8681,4.0354,4.0489,4.0489,4.0489,4.0489,4.0489,4.0489,4.0489,4.0489,4.0489,4.0489,4.0489,4.0489,4.0489,4.0559,4.0674,4.0692,4.0731,0.5011,0.6299,0.7658,0.8561,0.8804,0.8804,0.8804,0.8804,0.8804,0.8804,0.8804,0.8804,0.8804,0.8838,0.8864,0.8864,0.8898,0.8978,0.9078,0.9588,1.0362,1.1452,1.214,1.2903,1.3965,1.4105,1.4134,1.4253,1.5429,1.6407,1.707,1.8937,2.0247,2.0887,2.1595,2.2488,2.3624,2.4121,2.4924,2.612,2.7206,2.7811,2.7926,2.8651,2.8994,2.8994,2.8994,2.9017,2.9067,2.931,2.9434,2.9513,2.9861,3.0013,3.0075,3.0311,3.0398,3.0398,3.0398,3.0398,3.0398,3.0398,3.0398,3.0398,3.0398,3.0398,3.0398,3.0398,3.0398,3.0417,3.0533,3.1141,3.1756,3.1987,3.3237,3.4584,3.5353,3.5493,3.5493,3.5493,3.5493,3.5493,3.5493,3.5493,3.5493,3.5493,3.5493,3.5493,3.5493,3.5493,3.6142,3.7815,3.8007,3.8681,4.0354,4.0489,4.0489,4.0489,4.0489,4.0489,4.0489,4.0489,4.0489,4.0489,4.0489,4.0489,4.0489,4.0489,4.0504,4.0534,4.0649,4.0703,0.5297,0.6548,0.7701,0.8567,0.8804,0.8804,0.8804,0.8804,0.8804,0.8804,0.8804,0.8804,0.8804,0.8804,0.8804,0.8804,0.8804,0.8903,0.9316,0.9614,1.0125,1.0984,1.1505,1.2184,1.3113,1.3336,1.3638,1.4077,1.4963,1.5805,1.6501,1.803,1.9292,2.0285,2.0912,2.1739,2.2847,2.3333,2.4314,2.5799,2.6795,2.7388,2.7589,2.8558,2.8994,2.8994,2.8994,2.8994,2.9017,2.9134,2.9267,2.9414,2.9731,2.9908,3.0028,3.0299,3.0398,3.0398,3.0398,3.0398,3.0398,3.0398,3.0398,3.0398,3.0398,3.0398,3.0398,3.0398,3.0398,3.0398,3.0398,3.0679,3.1102,3.1583,3.2602,3.3699,3.4584,3.5161,3.5493,3.5493,3.5493,3.5493,3.5493,3.5493,3.5493,3.5493,3.5493,3.5493,3.5493,3.5493,3.5968,3.7142,3.7719,3.8507,3.9719,4.0239,4.0489,4.0489,4.0489,4.0489,4.0489,4.0489,4.0489,4.0489,4.0489,4.0489,4.0489,4.0489,4.0489,4.0504,4.0559,4.0602,0.5442,0.6488,0.7395,0.8248,0.8639,0.8804,0.8804,0.8804,0.8804,0.8804,0.8804,0.8804,0.8804,0.8804,0.8804,0.8804,0.8804,0.8956,0.9458,0.971,1.0064,1.0712,1.1156,1.1757,1.2507,1.2782,1.3168,1.3756,1.4553,1.5311,1.5997,1.7387,1.8591,1.9623,2.0259,2.1035,2.1978,2.2738,2.3795,2.5192,2.6161,2.6766,2.7039,2.8296,2.8839,2.8863,2.897,2.8994,2.8994,2.8994,2.9112,2.933,2.9533,2.9748,2.9954,3.0196,3.0343,3.0398,3.0398,3.0398,3.0398,3.0398,3.0398,3.0398,3.0398,3.0398,3.0398,3.0398,3.0398,3.0398,3.0398,3.0398,3.0552,3.1218,3.216,3.3199,3.4295,3.5045,3.5493,3.5493,3.5493,3.5493,3.5493,3.5493,3.5493,3.5493,3.5493,3.5493,3.5493,3.5493,3.5815,3.6622,3.7488,3.8354,3.9219,4.0027,4.0489,4.0489,4.0489,4.0489,4.0489,4.0489,4.0489,4.0489,4.0489,4.0489,4.0489,4.0489,4.0489,4.0489,4.0489,4.0489,0.4666,0.5619,0.6477,0.7333,0.8171,0.8804,0.8804,0.8804,0.8804,0.8804,0.8804,0.8804,0.8804,0.8804,0.8804,0.8804,0.8804,0.8804,0.8857,0.9413,1.0064,1.0712,1.1384,1.2058,1.2812,1.2881,1.29,1.2949,1.3869,1.4778,1.5519,1.7051,1.8241,1.8934,1.947,2.0098,2.079,2.2337,2.3414,2.4001,2.5531,2.6242,2.6294,2.7772,2.842,2.8446,2.8839,2.8994,2.8994,2.8994,2.9017,2.9062,2.931,2.9551,2.9748,2.9939,3.0182,3.0398,3.0398,3.0398,3.0398,3.0398,3.0398,3.0398,3.0398,3.0398,3.0398,3.0398,3.0398,3.0398,3.0398,3.0398,3.0398,3.0456,3.1718,3.3372,3.5084,3.5468,3.5493,3.5493,3.5493,3.5493,3.5493,3.5493,3.5493,3.5493,3.5493,3.5493,3.5493,3.5493,3.5815,3.6622,3.7488,3.8354,3.9219,4.0027,4.0489,4.0489,4.0489,4.0489,4.0489,4.0489,4.0489,4.0489,4.0489,4.0489,4.0489,4.0489,4.0489,4.0489,4.0489,4.0489,0.4482,0.5312,0.6123,0.7224,0.8366,0.9213,0.9415,0.9762,1.0064,1.0064,1.0064,1.0064,1.0064,0.9361,0.8804,0.8804,0.8804,0.8956,0.9361,0.9666,1.0064,1.0712,1.1416,1.1913,1.2187,1.2608,1.2881,1.2881,1.3611,1.4296,1.4967,1.5902,1.7011,1.8343,1.8583,1.9233,2.0436,2.1313,2.2215,2.3126,2.4252,2.5155,2.5846,2.6901,2.7638,2.8102,2.8464,2.8749,2.8994,2.8994,2.8994,2.904,2.9289,2.9434,2.9532,2.9729,2.9958,3.015,3.015,3.0254,3.0398,3.0398,3.0398,3.0398,3.0398,3.0398,3.0398,3.0398,3.0398,3.0398,3.0398,3.0398,3.0667,3.1756,3.2468,3.3372,3.5122,3.5493,3.5493,3.5493,3.5493,3.5493,3.5493,3.5493,3.5493,3.5493,3.5493,3.5493,3.5493,3.5493,3.5622,3.5911,3.668,3.7526,3.8392,3.9238,3.995,4.0469,4.0489,4.0489,4.0489,4.0489,4.0489,4.0489,4.0489,4.0489,4.0489,4.0489,4.0489,4.0489,4.0489,4.0489,0.4059,0.4972,0.5908,0.6838,0.7987,0.9045,0.9665,1.0081,1.0422,1.0746,1.0813,1.0813,1.0813,1.0064,0.9458,0.9458,0.9458,0.9614,1.0064,1.032,1.0669,1.1065,1.1724,1.2187,1.2187,1.2608,1.2881,1.2881,1.3647,1.4283,1.4698,1.562,1.6857,1.8327,1.8535,1.9148,2.028,2.0764,2.1439,2.2351,2.3323,2.4178,2.4913,2.5887,2.665,2.711,2.7576,2.8093,2.8631,2.8906,2.8851,2.8631,2.9089,2.933,2.9433,2.9533,2.9731,2.9908,2.9984,3.0122,3.0267,3.0367,3.0398,3.0398,3.0398,3.0398,3.0398,3.0398,3.0398,3.0398,3.0398,3.0398,3.0732,3.2058,3.2568,3.3149,3.4508,3.5172,3.5493,3.5493,3.5493,3.5493,3.5493,3.5493,3.5493,3.5493,3.5493,3.5493,3.5493,3.5493,3.5493,3.5493,3.6219,3.693,3.7507,3.8354,3.9084,3.9623,3.9662,3.9662,3.9662,3.9931,4.0085,4.0085,4.0354,4.0489,4.0489,4.0489,4.0489,4.0489,4.0489,4.0489,0.0,0.0,0.0,0.6091,0.708,0.8256,0.9489,0.9595,0.9699,1.0622,1.0797,1.0855,1.0864,1.0864,1.0864,1.0864,1.0813,1.0813,1.0813,1.1366,1.1765,1.1765,1.2403,1.2881,1.2881,1.2881,1.2881,1.2881,1.4025,1.4698,1.4698,1.6348,1.7787,1.8855,1.9406,1.9874,2.028,2.0764,2.1181,2.1598,2.2811,2.3376,2.3439,2.4838,2.549,2.5533,2.6277,2.7034,2.7787,2.8613,2.8484,2.7842,2.8631,2.9082,2.9355,2.9355,2.9494,2.9731,2.9924,2.9984,3.0028,3.0299,3.0386,3.0386,3.0386,3.0386,3.0386,3.0386,3.0386,3.0367,3.0398,3.0398,3.0554,3.1145,3.1886,3.2621,3.3223,3.447,3.5455,3.5474,3.5493,3.5493,3.5493,3.5493,3.5493,3.5493,3.5493,3.5493,3.5493,3.5493,3.5493,3.5493,3.6199,3.668,3.6699,3.7488,3.7969,3.8007,3.8007,3.8007,3.8007,3.8834,3.9296,3.9296,4.0085,4.0489,4.0489,4.0489,4.0489,4.0489,4.0489,4.0489,0.3135,0.0,0.0,0.0,0.0,0.0,0.9014,0.9447,1.0034,1.1024,1.1247,1.1441,1.2199,1.2314,1.2314,1.2314,1.1484,1.0813,1.0813,1.0965,1.1065,1.1065,1.1674,1.2089,1.2107,1.2569,1.2881,1.2881,1.36,1.4236,1.4663,1.6705,1.8027,1.8302,1.9207,1.9747,1.9874,2.0632,2.1071,2.1181,2.2145,2.2885,2.3422,2.4033,2.4778,2.5533,2.5967,2.6122,2.6137,2.6924,2.7145,2.6961,2.7181,2.7665,2.8249,2.8249,2.8769,2.9494,2.9551,2.9661,2.9815,2.9864,2.988,2.988,2.988,2.988,2.988,2.988,2.988,2.9927,3.0061,3.0103,3.03,3.1115,3.1352,3.1632,3.2373,3.3456,3.4454,3.5089,3.5369,3.5493,3.5493,3.5493,3.5493,3.5493,3.5493,3.5493,3.5493,3.5493,3.5493,3.5493,3.5699,3.6084,3.6661,3.693,3.7334,3.7969,3.8007,3.8007,3.8007,3.8834,3.9296,3.9296,4.0085,4.0489,4.0489,4.0489,4.0489,4.0489,4.0489,4.0489,0.3139,0.4049,0.5048,0.5576,0.0,0.0,0.9221,0.9709,1.0303,1.1723,1.2035,1.2215,1.2783,1.2881,1.2881,1.2881,1.2206,1.1692,1.1692,1.1692,1.1692,1.1692,1.2039,1.2246,1.2264,1.2676,1.2881,1.2881,1.3695,1.456,1.5433,1.6899,1.7867,1.8106,1.893,1.9536,1.9945,2.0632,2.1086,2.1244,2.1945,2.253,2.2936,2.3278,2.3737,2.4356,2.4699,2.4771,2.4725,2.5199,2.5664,2.6135,2.6465,2.709,2.7787,2.7787,2.8412,2.9246,2.9372,2.9493,2.9589,2.9678,2.9696,2.9696,2.9696,2.9696,2.9696,2.9696,2.9696,2.9731,2.9845,2.9877,2.9975,3.0404,3.0677,3.094,3.1289,3.2466,3.3676,3.442,3.507,3.5493,3.5493,3.5493,3.5493,3.5493,3.5493,3.5493,3.5493,3.5493,3.5493,3.5493,3.5493,3.5699,3.6161,3.6199,3.643,3.693,3.6969,3.6969,3.6969,3.7777,3.8392,3.8738,3.9565,4.0162,4.0489,4.0489,4.0489,4.0489,4.0489,4.0489,0.3354,0.389,0.4631,0.546,0.598,0.0,0.9385,0.9788,1.014,1.2006,1.2416,1.2426,1.257,1.2619,1.2589,1.259,1.2706,1.2822,1.2881,1.2881,1.2881,1.2881,1.2881,1.2881,1.2881,1.2881,1.2881,1.2881,1.4025,1.5152,1.625,1.698,1.7626,1.8066,1.8688,1.9398,2.0212,2.0748,2.1181,2.1521,2.2032,2.231,2.231,2.259,2.2695,2.2721,2.3045,2.3392,2.3692,2.3692,2.4335,2.5348,2.6043,2.6833,2.753,2.753,2.8099,2.8893,2.9138,2.9277,2.9392,2.9551,2.9625,2.9625,2.9625,2.9625,2.9625,2.9625,2.9643,2.9661,2.9661,2.9661,2.9626,2.9434,2.9911,3.0364,3.011,3.1538,3.3016,3.3481,3.46,3.5446,3.5417,3.5432,3.5446,3.5417,3.5417,3.5417,3.5417,3.5417,3.5417,3.5417,3.5417,3.5417,3.5417,3.5417,3.5432,3.5446,3.5432,3.5432,3.5446,3.62,3.7045,3.7939,3.8931,3.9777,4.0489,4.0489,4.0489,4.0489,4.0489,4.0489,0.3965,0.4326,0.477,0.5272,0.6056,0.0,0.6982,0.7497,0.8245,0.9144,0.9355,0.9571,1.0366,1.0716,1.0781,1.0516,1.1361,1.2236,1.2822,1.2881,1.2881,1.2881,1.2881,1.2881,1.2881,1.2881,1.2881,1.2881,1.4025,1.4789,1.5028,1.6886,1.7987,1.8106,1.9043,1.9639,1.9818,2.0599,2.1023,2.1118,2.1915,2.231,2.231,2.259,2.2695,2.2721,2.3045,2.3392,2.3692,2.3692,2.3987,2.4447,2.4612,2.5162,2.588,2.588,2.6778,2.8048,2.8092,2.8537,2.9089,2.9115,2.9138,2.9138,2.9138,2.9138,2.9138,2.9138,2.9291,2.9454,2.9454,2.9454,2.9454,2.9412,2.9354,2.9306,2.9255,3.0705,3.2067,3.2175,3.3808,3.5105,3.4908,3.5053,3.5105,3.4889,3.487,3.487,3.487,3.487,3.487,3.487,3.487,3.487,3.487,3.487,3.4944,3.5155,3.4981,3.4944,3.5174,3.5741,3.6559,3.7653,3.9372,4.0335,4.0489,4.0489,4.0489,4.0489,4.0489,4.0489,0.423,0.4434,0.4668,0.5251,0.5961,0.0,0.0,0.7646,0.8304,0.9439,0.9412,0.9403,1.0031,1.0153,1.0153,1.0153,1.098,1.1646,1.1814,1.2461,1.2881,1.2881,1.2881,1.2881,1.2881,1.2881,1.3017,1.3334,1.4201,1.4835,1.5141,1.676,1.7827,1.8106,1.8893,1.9442,1.969,2.033,2.0764,2.1007,2.1645,2.2061,2.231,2.2453,2.25,2.25,2.2669,2.3007,2.3437,2.3437,2.3753,2.419,2.419,2.4685,2.5403,2.5403,2.6153,2.72,2.72,2.7732,2.8411,2.8411,2.8686,2.8994,2.8994,2.8994,2.8994,2.8994,2.9089,2.9181,2.9181,2.9181,2.9181,2.9181,2.9089,2.9104,2.9512,3.0646,3.1723,3.213,3.3537,3.4656,3.4694,3.4793,3.4851,3.4714,3.4694,3.4694,3.4694,3.4694,3.4694,3.4694,3.4694,3.4694,3.4694,3.4694,3.4754,3.4889,3.4774,3.4754,3.4889,3.5152,3.6045,3.7563,3.9509,4.0489,4.0489,4.0489,4.0489,4.0489,4.0489,4.0489,0.4373,0.4495,0.4707,0.5341,0.5938,0.666,0.0,0.0,0.0,0.9818,0.9753,0.9517,0.9697,0.9552,0.9525,0.9697,1.0476,1.0889,1.0483,1.1594,1.251,1.251,1.2725,1.2822,1.2715,1.2822,1.3152,1.3732,1.4376,1.4971,1.5588,1.6659,1.7544,1.8066,1.8612,1.9169,1.969,2.0089,2.0483,2.0862,2.1368,2.1794,2.218,2.2254,2.231,2.231,2.231,2.2634,2.3189,2.3189,2.3606,2.419,2.419,2.4593,2.5182,2.5182,2.5676,2.6392,2.6557,2.7126,2.7824,2.797,2.8484,2.8994,2.8994,2.8994,2.8994,2.8994,2.8994,2.8994,2.8994,2.8994,2.8994,2.8994,2.8994,2.9237,3.0026,3.0834,3.1641,3.2449,3.3432,3.4195,3.4464,3.4569,3.4591,3.4529,3.4526,3.4526,3.4526,3.4526,3.4526,3.4526,3.4526,3.4526,3.4526,3.4526,3.4548,3.4593,3.4569,3.4548,3.4593,3.4913,3.585,3.749,3.9423,4.0457,4.0489,4.0457,4.0457,4.0489,4.0489,4.0489,0.455,0.4929,0.5257,0.5457,0.6357,0.7054,0.6538,0.0,0.7888,0.7527,0.0,0.7702,0.7423,0.0,0.0,0.7416,0.866,0.9529,0.9165,1.0222,1.1023,1.1023,1.2157,1.2657,1.1972,1.251,1.3152,1.3732,1.4376,1.4971,1.5588,1.6659,1.7544,1.8066,1.8612,1.9169,1.969,2.0089,2.0314,2.0382,2.1228,2.1628,2.1688,2.2106,2.231,2.231,2.231,2.2634,2.3189,2.3189,2.3606,2.419,2.419,2.4263,2.4337,2.4337,2.485,2.5642,2.6355,2.7126,2.7915,2.8631,2.892,2.8994,2.8994,2.8994,2.8994,2.8994,2.8994,2.8994,2.8994,2.8994,2.8994,2.8994,2.8994,2.9237,3.0026,3.0834,3.1641,3.2449,3.3264,3.3868,3.3895,3.4093,3.4171,3.3928,3.3921,3.3921,3.3921,3.3921,3.3921,3.3921,3.3921,3.3921,3.3921,3.3921,3.4012,3.4242,3.4037,3.4012,3.4265,3.5688,3.6714,3.7234,3.9166,4.025,4.0489,4.025,4.0286,4.0489,4.0489,4.0489,0.4576,0.4836,0.5088,0.5558,0.6208,0.6736,0.6562,0.6961,0.739,0.7483,0.0,0.0,0.0,0.0,0.0,0.0,0.8177,0.8636,0.7936,0.8989,0.9914,1.0117,1.1057,1.1733,1.1765,1.2452,1.3152,1.3732,1.4376,1.4971,1.5588,1.6659,1.7544,1.8066,1.8612,1.9169,1.969,1.9874,2.007,2.0314,2.0943,2.1368,2.1628,2.2077,2.231,2.231,2.231,2.2634,2.3189,2.3189,2.3606,2.419,2.419,2.419,2.419,2.419,2.441,2.4814,2.5621,2.6429,2.731,2.8594,2.8994,2.8994,2.8994,2.8994,2.8994,2.8994,2.8994,2.8994,2.8994,2.8994,2.8994,2.8994,2.8994,2.9342,3.0613,3.1146,3.177,3.3054,3.3568,3.3807,3.3807,3.3902,3.391,3.3815,3.3807,3.3807,3.3807,3.3807,3.3807,3.3807,3.3807,3.3807,3.3807,3.3807,3.3842,3.3961,3.385,3.3868,3.3961,3.5281,3.6272,3.6902,3.8364,3.9407,3.9984,3.9861,3.9861,3.9984,4.0176,4.0286,0.4457,0.4719,0.5048,0.5663,0.6171,0.6568,0.68,0.7045,0.7368,0.7729,0.7582,0.0,0.0,0.0,0.7315,0.7486,0.0,0.8091,0.7295,0.8003,0.8699,0.904,0.9921,1.0712,1.119,1.208,1.2929,1.37,1.4376,1.5017,1.582,1.6756,1.7544,1.8066,1.8612,1.9169,1.969,1.969,1.9909,2.0314,2.0797,2.1213,2.1628,2.2077,2.231,2.231,2.231,2.2598,2.3069,2.3069,2.3459,2.4074,2.4074,2.4113,2.419,2.419,2.419,2.4355,2.5364,2.6392,2.7457,2.8608,2.8994,2.8994,2.8994,2.8994,2.8994,2.8994,2.8994,2.8994,2.8994,2.8994,2.8994,2.8994,2.8994,2.9457,3.1035,3.1384,3.188,3.3495,3.3807,3.3807,3.3807,3.3807,3.3807,3.3807,3.3807,3.3807,3.3807,3.3807,3.3807,3.3807,3.3807,3.3807,3.3807,3.3807,3.3807,3.3807,3.3807,3.3807,3.3807,3.4807,3.5764,3.6684,3.7732,3.87,3.9599,3.9529,3.9462,3.9462,3.9901,4.0101,0.422,0.4809,0.5535,0.572,0.6294,0.683,0.6959,0.745,0.7822,0.758,0.7983,0.8243,0.7969,0.7862,0.7802,0.756,0.7715,0.0,0.0,0.7304,0.7243,0.7565,0.8899,0.9791,0.979,1.1032,1.2337,1.3601,1.4297,1.5209,1.6423,1.6993,1.7544,1.8066,1.8612,1.9169,1.969,1.969,1.9909,2.0314,2.0797,2.1213,2.1628,2.2077,2.231,2.231,2.231,2.2463,2.2721,2.2721,2.3117,2.3714,2.3714,2.3917,2.419,2.419,2.419,2.4428,2.6007,2.7603,2.892,2.8975,2.8994,2.8994,2.8994,2.8994,2.8994,2.8994,2.8994,2.8994,2.8994,2.8994,2.8994,2.8994,2.8994,2.9457,3.1035,3.1384,3.188,3.3495,3.3807,3.3807,3.3807,3.3807,3.3807,3.3807,3.3807,3.3807,3.3807,3.3807,3.3807,3.3807,3.3807,3.3807,3.3807,3.3807,3.3807,3.3807,3.3807,3.3807,3.3807,3.4578,3.5559,3.6684,3.7504,3.8484,3.9599,3.9264,3.9125,3.9133,3.9797,4.0101,0.4157,0.4362,0.4774,0.5829,0.6121,0.6362,0.7135,0.7475,0.7595,0.7533,0.7796,0.8049,0.7902,0.7882,0.7829,0.756,0.7555,0.7386,0.0,0.6384,0.606,0.5711,0.7159,0.8726,1.0041,1.1585,1.3014,1.4261,1.4949,1.5644,1.6479,1.6993,1.7544,1.8066,1.8612,1.9169,1.969,1.969,1.9782,1.9909,2.0632,2.1055,2.1213,2.1945,2.231,2.231,2.231,2.2436,2.2695,2.2695,2.3093,2.3692,2.3692,2.3896,2.419,2.419,2.419,2.4428,2.6043,2.731,2.8301,2.881,2.8994,2.8994,2.8994,2.8994,2.8994,2.8994,2.8994,2.8994,2.8994,2.8994,2.8994,2.8994,2.8994,2.9457,3.1035,3.1384,3.188,3.3495,3.3807,3.3807,3.3807,3.3807,3.3807,3.3807,3.3807,3.3807,3.3807,3.3807,3.3807,3.3807,3.3807,3.3807,3.3807,3.3807,3.3807,3.3807,3.3807,3.3807,3.3807,3.4064,3.4908,3.6408,3.6703,3.7535,3.8998,3.8884,3.8844,3.8844,3.9249,3.9552,0.4117,0.4043,0.4289,0.5443,0.5828,0.6122,0.705,0.7563,0.7836,0.7836,0.8029,0.8243,0.8243,0.8156,0.7989,0.7682,0.758,0.7185,0.0,0.5826,0.547,0.5255,0.6468,0.7843,0.9255,1.0794,1.2373,1.3978,1.4686,1.5497,1.6466,1.7188,1.7747,1.8106,1.8817,1.9369,1.969,1.969,1.9782,1.9909,2.0665,2.1055,2.1244,2.1974,2.231,2.231,2.231,2.2415,2.2563,2.2563,2.2865,2.3369,2.3477,2.3714,2.4054,2.4151,2.4373,2.4814,2.6135,2.7126,2.7934,2.8741,2.8994,2.8994,2.8994,2.8994,2.8994,2.8994,2.8994,2.8994,2.8994,2.8994,2.8994,2.8994,2.8994,2.9365,3.0687,3.1201,3.1788,3.3128,3.3605,3.3807,3.3807,3.3807,3.3807,3.3807,3.3807,3.3807,3.3807,3.3807,3.3807,3.3807,3.3807,3.3807,3.3807,3.3807,3.3807,3.3807,3.3807,3.3807,3.3807,3.3807,3.4578,3.6266,3.6303,3.7092,3.8707,3.8707,3.8707,3.8707,3.8884,3.9117]}]]